     2.11           OBSERVATION DATA    G (GPS)             RINEX VERSION / TYPE
teqc 2010Oct21 OPUS Account 20111027 15:15:16UTC            PGM / RUN BY / DATE
N 856 RESET                                                 MARKER NAME
1064                                                        MARKER NUMBER
CSMIDDLETON NGS                                             OBSERVER / AGENCY
0220316069 TRIMBLE 5700 1.30                                REC # / TYPE / VERS
60183425 TRM41249.00 NONE                                   ANT # / TYPE
  -750798.6230 -5520210.2739  3095263.0873                  APPROX POSITION XYZ
        2.0010        0.0000        0.0000                  ANTENNA: DELTA H/E/N
     1     1                                                WAVELENGTH FACT L1/2
     5    L1    L2    C1    P1    P2                        # / TYPES OF OBSERV
    15                                                      LEAP SECONDS
  2011     8    15     0     0   30.0000000     GPS         TIME OF FIRST OBS
                                                            END OF HEADER
 11  8 15  0  0 30.0000000  0  8G12G28G10G17G05G09G04G02
 -25080118.60957 -19513056.71455  22398962.8444                   22398961.8834
-112050095.62556 -87274172.93153  23711794.5944                   23711796.0704
 -42715419.93058 -33271769.69556  21160660.7034                   21160660.3284
 -94736954.85557 -73776988.61556  22275814.2814                   22275814.0784
 -12274373.00857  -9545234.56554  23431996.8444                   23431998.4964
 -42999799.43057 -33463378.04855  22490882.1644                   22490883.2584
 -74392241.87158 -57896183.42456  20466926.7274                   20466926.1134
 -53771171.85258 -41856627.77256  20674626.3674                   20674623.5984
 11  8 15  0  1  0.0000000  0  8G12G28G10G17G05G09G04G02
 -23704621.20347 -18441240.53045  22660711.1024                   22660709.8014
-110491798.87146 -86059915.85543  24008329.2734                   24008330.8794
 -41303713.97348 -32171739.04846  21429299.1334                   21429299.2624
 -93232820.61747 -72604935.99245  22562041.8364                   22562041.2114
 -10918395.15247  -8488628.30644  23690030.5234                   23690031.8324
 -41483123.66447 -32281552.83845  22779495.6484                   22779496.3404
 -72873554.43048 -56712790.62546  20755923.1954                   20755922.7664
 -52337950.19548 -40739831.64946  20947359.4144                   20947356.8204
 11  8 15  0  1 30.0000000  0  8G12G28G10G17G05G09G04G02
 -23904281.85947 -18596820.24245  22622716.9924                   22622715.8874
-110508650.56246 -86073047.18543  24005122.3594                   24005123.5824
 -41466882.31248 -32298883.18246  21398249.6884                   21398249.2544
 -93303961.28947 -72660370.31145  22548504.0474                   22548503.0044
 -11137748.50047  -8659552.81544  23648289.1804                   23648291.1054
 -41541404.90247 -32326966.82645  22768405.0784                   22768406.4734
 -72929925.59848 -56756716.23446  20745196.3914                   20745195.8204
 -52479757.11748 -40850330.52446  20920374.6334                   20920371.5554
 11  8 15  0  2  0.0000000  0  8G12G28G10G17G05G09G04G02
 -24103670.57047 -18752188.06045  22584774.3524                   22584773.4654
-110525231.02746 -86085967.19043  24001965.9454                   24001969.6094
 -41629496.45748 -32425595.47046  21367304.9534                   21367304.3204
 -93374953.22747 -72715688.73745  22534994.5164                   22534993.8834
 -11357002.36747  -8830399.85444  23606566.4384                   23606567.6684
 -41599223.38747 -32372020.25745  22757403.2424                   22757403.8014
 -72985935.42648 -56800360.26846  20734537.7424                   20734537.3674
 -52621167.64148 -40960520.51846  20893464.7274                   20893461.9224
 11  8 15  0  2 30.0000000  0  8G12G28G10G17G05G09G04G02
 -24302780.85947 -18907338.93645  22546885.1954                   22546883.9614
-110541538.65246 -86098674.56043  23998863.3054                   23998866.1374
 -41791550.11748 -32551871.03746  21336467.3914                   21336467.1094
 -93445792.05147 -72770887.82445  22521514.5474                   22521513.9804
 -11576149.62946  -9001163.81344  23564863.6564                   23564865.1604
 -41656578.19547 -32416712.36545  22746488.9384                   22746489.5704
 -73041582.34048 -56843721.51946  20723948.8524                   20723947.8674
 -52762178.25048 -41070398.89846  20866631.3524                   20866628.6724
 11  8 15  0  3  0.0000000  0  8G12G28G10G17G05G09G04G02
 -24501615.32447 -19062274.88445  22509048.3284                   22509047.2154
-110557580.59146 -86111174.81243  23995811.4064                   23995812.7384
 -41953046.20748 -32677712.12246  21305735.2114                   21305734.9924
 -93516482.43747 -72825971.26845  22508062.3524                   22508061.7344
 -11795192.88346  -9171846.72244  23523180.6254                   23523182.2854
 -41713478.27047 -32461050.12145  22735660.8594                   22735661.9144
 -73096874.05548 -56886805.98446  20713426.9384                   20713426.0164
 -52902794.94948 -41179970.32646  20839872.7894                   20839870.1804
 11  8 15  0  3 30.0000000  0  8G12G28G10G17G05G09G04G02
 -24700169.64847 -19216992.52645  22471264.6174                   22471263.8754
-110573356.63346 -86123467.99643  23992809.8674                   23992811.0594
 -42113980.32448 -32803115.29046  21275110.4844                   21275110.4924
 -93587021.96147 -72880937.14445  22494638.8914                   22494638.7074
 -12014127.35546  -9342444.85844  23481519.3914                   23481521.1804
 -41769924.50047 -32505034.25945  22724919.3054                   22724920.7544
 -73151811.03148 -56929614.04846  20702972.6724                   20702972.2664
 -53043016.32448 -41289233.71446  20813189.4224                   20813187.1764
 11  8 15  0  4  0.0000000  0  8G12G28G10G17G05G09G04G02
 -24898441.80547 -19371490.29445  22433534.5084                   22433534.0394
-110588869.39846 -86135555.96443  23989857.6954                   23989859.5354
 -42274350.35948 -32928078.94146  21244593.4224                   21244592.6374
 -93657410.64847 -72935785.48445  22481244.3674                   22481244.4024
 -12232950.71147  -9512956.41744  23439878.2734                   23439880.4304
 -41825920.15647 -32548667.29245  22714263.9144                   22714265.0204
 -73206396.02748 -56972147.83246  20692585.4534                   20692585.0234
 -53182842.96948 -41398189.52146  20786581.2664                   20786578.3244
 11  8 15  0  4 30.0000000  0  8G12G28G10G17G05G09G04G02
 -25096426.35547 -19525763.96245  22395859.3834                   22395859.0744
-110604117.82446 -86147438.02443  23986955.9454                   23986958.1994
 -42434151.55948 -33052599.32746  21214183.9304                   21214183.7344
 -93727645.16447 -72990513.71045  22467879.3834                   22467879.1024
 -12451656.98447  -9683376.77644  23398259.9924                   23398261.3444
 -41881465.80147 -32591949.64044  22703693.9304                   22703694.0594
 -73260628.79348 -57014407.14146  20682265.4224                   20682265.2154
 -53322272.79348 -41506836.10946  20760048.6094                   20760045.6134
 11  8 15  0  5  0.0000000  0  8G12G28G10G17G05G09G04G02
 -25294122.51247 -19679812.89545  22358238.6804                   22358238.2424
-110619105.55546 -86159116.83543  23984104.4534                   23984105.2814
 -42593383.59848 -33176676.21846  21183883.3914                   21183882.6684
 -93797726.46547 -73045122.54745  22454543.9454                   22454543.7734
 -12670245.32447  -9853705.21844  23356663.5004                   23356665.5664
 -41936566.45746 -32634885.25744  22693208.4774                   22693208.9694
 -73314513.53948 -57056395.27646  20672011.5314                   20672011.3484
 -53461308.22348 -41615175.39446  20733591.3284                   20733588.3914
 11  8 15  0  5 30.0000000  0  8G12G28G10G17G05G09G04G02
 -25491529.85247 -19833636.77345  22320673.4534                   22320672.9024
-110633837.16046 -86170596.15843  23981301.1804                   23981302.4454
 -42752046.35248 -33300309.50146  21153690.9064                   21153690.4964
 -93867656.66047 -73099613.60245  22441235.9534                   22441236.0004
 -12888715.21947 -10023941.39944  23315090.2974                   23315091.6454
 -41991227.49647 -32677478.30244  22682806.5234                   22682807.2704
 -73368054.67648 -57098115.67046  20661823.0394                   20661822.8674
 -53599951.94948 -41723209.44446  20707208.0864                   20707205.4614
 11  8 15  0  6  0.0000000  0  8G12G28G10G17G05G09G04G02
 -25688641.60947 -19987230.30945  22283164.8204                   22283163.9344
-110648309.66446 -86181873.35243  23978546.8674                   23978548.1914
 -42910133.08648 -33423493.95046  21123607.5394                   21123607.4844
 -93937430.57847 -73153982.91545  22427958.6254                   22427958.3444
 -13107058.59047 -10194078.95644  23273541.1644                   23273542.5084
 -42045447.42247 -32719727.65944  22672489.0784                   22672490.4344
 -73421250.05148 -57139566.62146  20651700.0394                   20651699.6684
 -53738200.21148 -41830935.34546  20680900.4454                   20680897.5744
 11  8 15  0  6 30.0000000  0  8G12G28G10G17G05G09G04G02
 -25885455.76247 -20140591.95445  22245711.7664                   22245711.1954
-110662525.63746 -86192950.97742  23975841.0394                   23975843.1604
 -43067642.27048 -33546228.36346  21093635.0314                   21093634.8404
 -94007047.90247 -73208230.20845  22414710.9924                   22414710.5594
 -13325274.21947 -10364116.95544  23232015.2894                   23232016.5664
 -42099230.09447 -32761636.27345  22662254.5554                   22662256.1294
 -73474102.92648 -57180750.70346  20641642.7034                   20641642.1764
 -53876053.85548 -41938353.75847  20654667.5944                   20654664.8914
 11  8 15  0  7  0.0000000  0  8G12G28G10G17G05G09G04G02
 -26081969.44547 -20293719.46645  22208316.4844                   22208315.9184
-110676487.02046 -86203830.11943  23973185.5084                   23973186.3404
 -43224571.34848 -33668510.73646  21063772.1644                   21063771.7854
 -94076508.35947 -73262355.25945  22401493.3914                   22401492.4144
 -13543358.07847 -10534052.35344  23190515.6644                   23190516.2934
 -42152578.19547 -32803206.27745  22652103.5004                   22652104.7854
 -73526615.39848 -57221669.53746  20631650.0004                   20631649.6764
 -54013513.59448 -42045465.22447  20628510.1024                   20628506.9774
 11  8 15  0  7 30.0000000  0  8G12G28G10G17G05G09G04G02
 -26278176.64547 -20446608.16945  22170979.6254                   22170978.5514
-110690192.69146 -86214509.93543  23970577.5474                   23970579.5904
 -43380914.70748 -33790336.70746  21034020.9844                   21034020.7934
 -94145807.98847 -73316354.99645  22388305.8364                   22388306.0314
 -13761303.71947 -10703880.02044  23149042.6254                   23149042.9494
 -42205491.79346 -32844437.69644  22642034.5554                   22642035.1914
 -73578786.33247 -57262322.22546  20621722.4304                   20621721.7344
 -54150576.44948 -42152267.43146  20602427.6334                   20602424.5824
 11  8 15  0  8  0.0000000  0  8G12G28G10G17G05G09G04G02
 -24898647.39547 -19371650.26745  22433495.4304                   22433494.8134
-109128222.53546 -84997390.45243  24267809.4924                   24267812.4144
 -41961244.04348 -32684099.80446  21304175.4224                   21304175.1334
 -92639522.66447 -72142626.19845  22674942.4694                   22674941.5944
 -12403680.64847  -9645991.79244  23407388.7344                   23407389.7814
 -40682551.16046 -31657730.71444  22931840.1884                   22931840.4614
 -72055195.43748 -56075108.55546  20911652.0004                   20911651.4614
 -52711817.53148 -41031156.56546  20876214.7424                   20876211.3554
 11  8 15  0  8 30.0000000  0  8G12G28G10G17G05G09G04G02
 -25094232.95747 -19524054.55445  22396276.5234                   22396275.9924
-109141420.98446 -85007675.07643  24265298.3594                   24265300.1884
 -42116408.54748 -32805007.18046  21274648.3984                   21274648.3164
 -92708497.79747 -72196373.07845  22661816.9064                   22661815.9614
 -12621341.36747  -9815597.40144  23365969.1954                   23365969.9104
 -40734603.93747 -31698291.38145  22921934.2194                   22921935.8164
 -72106689.63748 -56115233.93146  20901852.7664                   20901852.4494
 -52848087.62548 -41137341.03146  20850283.3524                   20850280.3324
 11  8 15  0  9  0.0000000  0  8G12G28G10G17G05G09G04G02
 -25289503.28147 -19676213.19045  22359117.9304                   22359117.4924
-109154368.35546 -85017764.06443  24262835.3134                   24262837.0164
 -42270980.05548 -32925452.50946  21245234.5164                   21245234.0084
 -92777308.89847 -72249992.15745  22648722.7814                   22648721.8244
 -12838854.01247  -9985087.70844  23324577.2584                   23324578.7584
 -40786230.35947 -31738519.79544  22912109.8524                   22912112.2854
 -72157848.45348 -56155097.96046  20892117.8754                   20892117.7814
 -52983961.39148 -41243216.67346  20824427.0234                   20824424.5044
 11  8 15  0  9 30.0000000  0  8G12G28G10G17G05G09G04G02
 -25484457.14847 -19828125.24345  22322019.6414                   22322018.3164
-109167067.68746 -85027659.74843  24260418.6884                   24260421.4224
 -42424957.60548 -33045434.99146  21215933.3914                   21215933.2344
 -92845956.94947 -72303484.18345  22635659.8054                   22635658.7114
 -13056217.52047 -10154461.75544  23283215.0004                   23283216.0474
 -40837435.09047 -31778419.62844  22902366.4064                   22902367.1454
 -72208675.35248 -56194703.36246  20882445.5554                   20882445.4774
 -53119440.93048 -41348785.14046  20798646.1564                   20798643.4614
 11  8 15  0 10  0.0000000  0  8G12G28G10G17G05G09G04G02
 -25679090.59847 -19979787.65045  22284982.0704                   22284980.8594
-109179519.73446 -85037362.82943  24258049.4924                   24258051.2544
 -42578338.10948 -33164952.24946  21186746.2114                   21186746.0904
 -92914440.04747 -72356847.68345  22622627.7114                   22622626.7464
 -13273427.46147 -10323716.15245  23241881.1094                   23241882.7424
 -40888220.23847 -31817992.50344  22892702.3054                   22892703.3554
 -72259171.57448 -56234051.07546  20872836.5704                   20872836.1414
 -53254525.60248 -41454045.91446  20772940.4844                   20772937.3634
 11  8 15  0 10 30.0000000  0  8G12G28G10G17G05G09G04G02
 -25873402.59047 -20131199.54146  22248005.7274                   22248004.6214
-109191727.90246 -85046875.82543  24255726.6334                   24255728.5234
 -42731120.56248 -33284003.48346  21157672.8984                   21157672.6214
 -92982759.04747 -72410083.29045  22609627.0084                   22609626.6764
 -13490482.26247 -10492849.66045  23200577.2814                   23200578.1684
 -40938589.93446 -31857241.68044  22883117.4614                   22883118.9144
 -72309340.78148 -56273143.98246  20863289.8364                   20863289.1994
 -53389217.43448 -41559000.58546  20747309.3914                   20747306.7704
 11  8 15  0 11  0.0000000  0  8G12G28G10G17G05G09G04G02
 -26067388.52747 -20282357.38246  22211091.2974                   22211090.8554
-109203692.27046 -85056198.80243  24253449.5704                   24253451.8634
 -42883300.90648 -33402585.54646  21128713.8524                   21128713.4304
 -93050911.09047 -72463188.82045  22596657.9534                   22596658.0044
 -13707376.96547 -10661858.42345  23159303.2504                   23159304.8954
 -40988545.64547 -31896168.23944  22873611.2814                   22873612.3714
 -72359183.50048 -56311982.48946  20853805.1334                   20853804.3954
 -53523515.04748 -41663648.05646  20721753.5864                   20721750.7934
 11  8 15  0 11 30.0000000  0  8G12G28G10G17G05G09G04G02
 -26261042.89848 -20433256.86046  22174239.7734                   22174238.9344
-109215411.94546 -85065331.11343  24251219.0704                   24251221.6524
 -43034874.64148 -33520694.91846  21099870.3054                   21099869.8954
 -93118893.22347 -72516161.96345  22583721.3524                   22583721.5004
 -13924106.00047 -10830738.06845  23118061.5634                   23118062.1484
 -41038088.03546 -31934772.76344  22864182.8204                   22864184.3794
 -72408699.24648 -56350566.20346  20844382.5784                   20844382.2894
 -53657416.41448 -41767986.77246  20696272.7274                   20696269.8674
 11  8 15  0 12  0.0000000  0  8G12G28G10G17G05G09G04G02
 -26454364.80148 -20583897.24246  22137452.2034                   22137451.1334
-109226890.61746 -85074275.59643  24249034.6334                   24249037.2194
 -43185841.05148 -33638331.06946  21071142.4384                   21071141.7074
 -93186706.55147 -72569003.57345  22570817.3204                   22570817.1804
 -14140667.75447 -10999487.38745  23076851.1094                   23076851.5824
 -41087221.62546 -31973058.71844  22854834.5234                   22854834.6764
 -72457891.62948 -56388897.95346  20835021.4694                   20835021.2774
 -53790923.55548 -41872018.29646  20670867.5394                   20670864.6134
 11  8 15  0 12 30.0000000  0  8G12G28G10G17G05G09G04G02
 -26647348.39548 -20734274.05546  22100728.4924                   22100726.8554
-109238127.07446 -85083031.34143  24246896.3914                   24246898.6684
 -43336195.70348 -33755490.53046  21042530.7034                   21042529.7934
 -93254347.18747 -72621710.60745  22557945.7274                   22557945.5554
 -14357056.46947 -11168101.86745  23035673.1094                   23035673.9924
 -41135946.95747 -32011026.59245  22845562.1884                   22845563.3524
 -72506760.14148 -56426977.34246  20825722.0474                   20825721.7974
 -53924034.17648 -41975740.84346  20645536.9304                   20645534.3874
 11  8 15  0 13  0.0000000  0  7G12G10G17G05G09G04G02
 -26839988.80948 -20884383.45745  22064070.1954                   22064068.7814
 -43485934.17248 -33872169.83846  21014036.0634                   21014035.6454
 -93321812.14547 -72674280.76345  22545106.8134                   22545107.3324
 -14573266.29347 -11336576.91745  22994529.7114                   22994531.1174
 -41184264.62547 -32048676.80144  22836367.8594                   22836368.8794
 -72555304.92248 -56464804.46846  20816484.2974                   20816484.1334
 -54056746.61348 -42079153.12546  20620282.9924                   20620280.1374
 11  8 15  0 13 30.0000000  0  7G12G10G17G05G09G04G02
 -27032277.55948 -21034218.82545  22027478.9064                   22027477.9534
 -43635048.02348 -33988362.42946  20985661.0864                   20985660.4614
 -93389094.64147 -72726708.72845  22532304.3754                   22532303.7034
 -14789288.50047 -11504905.79245  22953421.8914                   22953423.3914
 -41232171.83647 -32086007.16444  22827251.3364                   22827252.5944
 -72603522.13348 -56502376.34846  20807308.9454                   20807308.3324
 -54189055.57048 -42182251.01146  20595105.3364                   20595101.8874
 11  8 15  0 14  0.0000000  0  7G12G10G17G05G09G04G02
 -27224205.43447 -21183772.99346  21990955.6484                   21990955.0554
 -43783529.05148 -34104061.91346  20957405.7504                   20957405.6764
 -93456187.78547 -72778989.15145  22519536.7504                   22519536.1764
 -15005113.90647 -11673081.33345  22912351.3674                   22912353.2074
 -41279665.37947 -32123015.20444  22818213.3444                   22818214.5004
 -72651407.62548 -56539689.73846  20798196.6334                   20798196.5984
 -54320955.19148 -42285029.91447  20570005.5474                   20570002.5314
 11  8 15  0 14 30.0000000  0  7G12G10G17G05G09G04G02
 -27415764.09848 -21333039.47446  21954503.5864                   21954503.1994
 -43931369.84448 -34219262.51546  20929272.8674                   20929272.0314
 -93523085.51247 -72831117.30845  22506805.8984                   22506805.6954
 -15220733.81247 -11841096.73145  22871320.6484                   22871321.5274
 -41326743.01647 -32159699.13044  22809254.5784                   22809255.8094
 -72698958.05548 -56576742.04546  20789148.3054                   20789147.6524
 -54452440.45748 -42387485.95946  20544985.2734                   20544982.0704
 11  8 15  0 15  0.0000000  0  7G12G10G17G05G09G04G02
 -26031530.12948 -20254415.57646  22217914.3444                   22217913.6294
 -42503148.96148 -33106363.12046  21201054.2734                   21201053.2074
 -92014369.83647 -71655494.73845  22793905.5864                   22793905.0864
 -13860723.11747 -10781348.04345  23130121.8444                   23130122.4924
 -39797991.75847 -30968464.47444  23100166.9454                   23100167.1684
 -71170759.67248 -55385938.14246  21079954.6024                   21079954.1994
 -53008093.17248 -41262020.52947  20819835.1484                   20819832.0744
 11  8 15  0 15 30.0000000  0  7G12G10G17G05G09G04G02
 -26222354.37547 -20403109.78646  22181602.0784                   22181601.0554
 -42649715.25048 -33220570.60446  21173163.5864                   21173163.1564
 -92080886.13747 -71707325.65945  22781248.2974                   22781247.8794
 -14075934.34447 -10949045.01045  23089168.1024                   23089169.5704
 -39844259.08246 -31004516.97244  23091362.0704                   23091363.2034
 -71217658.77048 -55422482.91446  21071030.3054                   21071029.7154
 -53138763.53148 -41363841.56847  20794969.1884                   20794966.2774
 11  8 15  0 16  0.0000000  0  7G12G10G17G05G09G04G02
 -26412809.44147 -20551516.32745  22145359.5084                   22145358.2624
 -42795643.37548 -33334280.80746  21145394.2504                   21145393.6644
 -92147212.23447 -71759008.37645  22768626.2274                   22768626.8134
 -14290938.46547 -11116580.57945  23048254.0704                   23048255.6414
 -39890127.68047 -31040258.80244  23082633.9614                   23082635.2234
 -71264237.16848 -55458777.78846  21062166.4304                   21062166.5004
 -53269029.30948 -41465347.34747  20770180.5554                   20770177.7424
 11  8 15  0 16 30.0000000  0  7G12G10G17G05G09G04G02
 -26602897.94947 -20699637.22945  22109186.7274                   22109185.6334
 -42940936.79348 -33447496.45046  21117745.7274                   21117745.5554
 -92213353.42647 -71810547.03045  22756040.1484                   22756040.7074
 -14505737.92247 -11283956.69245  23007379.3204                   23007380.2504
 -39935606.43747 -31075696.87544  23073979.5704                   23073980.9224
 -71310502.81248 -55494828.95946  21053362.5164                   21053362.1724
 -53398896.65248 -41566542.67447  20745467.4694                   20745464.6804
 11  8 15  0 17  0.0000000  0  7G12G10G17G05G09G04G02
 -26792616.67248 -20847470.01046  22073084.9454                   22073083.6214
 -43085593.26248 -33560215.76446  21090218.8914                   21090218.1024
 -92279308.33647 -71861940.52045  22743489.4924                   22743490.0234
 -14720329.11347 -11451170.53645  22966544.0474                   22966545.3674
 -39980697.89847 -31110833.18944  23065399.1334                   23065400.2274
 -71356457.25848 -55530637.63646  21044617.5394                   21044617.6914
 -53528365.69948 -41667427.62847  20720830.3284                   20720827.3484
 11  8 15  0 17 30.0000000  0  7G12G10G17G05G09G04G02
 -26981962.70748 -20995012.36446  22037053.2894                   22037052.1454
 -43229610.91048 -33672437.29446  21062812.8674                   21062812.4964
 -92345076.22347 -71913188.26645  22730974.2034                   22730974.6604
 -14934708.98847 -11618219.72345  22925749.0004                   22925749.7274
 -40025405.24247 -31145670.12644  23056891.4384                   23056892.1024
 -71402102.74648 -55566205.57146  21035931.8444                   21035931.3984
 -53657437.05148 -41768002.69947  20696268.8754                   20696265.9844
 11  8 15  0 18  0.0000000  0  7G12G10G17G05G09G04G02
 -27170935.96948 -21142264.24746  22001092.7664                   22001091.9264
 -43372990.06648 -33784161.29846  21035528.8204                   21035528.1644
 -92410658.52347 -71964291.40245  22718494.5634                   22718494.5274
 -15148876.66847 -11785103.54045  22884994.3204                   22884994.8284
 -40069733.74646 -31180211.91144  23048456.9064                   23048457.6604
 -71447443.62547 -55601536.13946  21027303.5784                   21027303.3054
 -53786113.44148 -41868270.00346  20671782.5394                   20671779.6094
 11  8 15  0 18 30.0000000  0  7G12G10G17G05G09G04G02
 -27359532.49247 -21289222.56646  21965204.0864                   21965203.5514
 -43515728.04748 -33895385.68046  21008366.9144                   21008365.9264
 -92476053.52747 -72015248.58245  22706050.4304                   22706049.3834
 -15362827.71947 -11951818.55345  22844280.3284                   22844281.4384
 -40113686.12147 -31214460.55844  23040093.2344                   23040094.2974
 -71492481.09448 -55636630.27846  21018732.9774                   21018732.6724
 -53914394.82048 -41968229.50146  20647371.6644                   20647368.4304
 11  8 15  0 19  0.0000000  0  7G12G10G17G05G09G04G02
 -27547754.98848 -21435889.43346  21929386.3914                   21929385.9064
 -43657828.36748 -34006113.18846  20981325.7894                   20981325.3834
 -92541265.78947 -72066063.32745  22693641.1334                   22693640.1804
 -15576564.73847 -12118366.79645  22803607.5474                   22803608.5124
 -40157270.50847 -31248422.48344  23031799.1484                   23031799.7384
 -71537222.38748 -55671493.63646  21010219.3674                   21010219.1684
 -54042286.79348 -42067885.55646  20623034.4694                   20623031.3484
 11  8 15  0 19 30.0000000  0  7G12G10G17G05G09G04G02
 -27735600.28547 -21582262.37746  21893640.7584                   21893640.3524
 -43799289.10247 -34116342.31446  20954406.6484                   20954406.3134
 -92606294.35247 -72116734.97345  22681266.3914                   22681266.1524
 -15790084.14847 -12284745.48045  22762976.0704                   22762977.0434
 -40200490.06247 -31282100.11944  23023574.2034                   23023575.4774
 -71581669.93448 -55706128.10346  21001761.1334                   21001760.7504
 -54169789.76248 -42167238.51146  20598771.6094                   20598768.4844
 11  8 15  0 20  0.0000000  0  7G12G10G17G05G09G04G02
 -27923065.83648 -21728339.41346  21857967.5634                   21857966.6844
 -43940108.60948 -34226071.78946  20927609.6484                   20927609.1254
 -92671138.43047 -72167262.86245  22668927.4304                   22668926.2704
 -16003382.71147 -12450952.06745  22722386.2664                   22722386.6724
 -40243347.91847 -31315495.91344  23015418.7664                   23015419.7464
 -71625825.46548 -55740535.01846  20993358.6884                   20993358.8554
 -54296905.22348 -42266289.51146  20574582.0554                   20574578.8164
 11  8 15  0 20 30.0000000  0  7G12G10G17G05G09G04G02
 -28110151.69947 -21874120.60246  21822366.0394                   21822365.3634
 -44080287.76248 -34335302.28146  20900934.3674                   20900933.7664
 -92735800.02347 -72217648.54645  22656622.2734                   22656622.0634
 -16216460.16847 -12616986.36945  22681839.1954                   22681839.4614
 -40285849.94147 -31348614.43444  23007330.7894                   23007332.4774
 -71669694.02048 -55774718.32146  20985010.7734                   20985010.5984
 -54423635.56648 -42365040.40546  20550465.9614                   20550462.9694
 11  8 15  0 21  0.0000000  0  7G12G10G17G05G09G04G02
 -28296853.30148 -22019602.36046  21786837.8284                   21786836.8404
 -44219823.18448 -34444031.16646  20874381.6564                   20874381.3164
 -92800276.78947 -72267890.23245  22644353.2504                   22644352.8754
 -16429311.55147 -12782844.49645  22641335.1334                   22641334.9804
 -40327997.51247 -31381456.75844  22999310.2814                   22999312.6454
 -71713275.85248 -55808678.19546  20976717.1954                   20976717.3714
 -54549979.82448 -42463490.47046  20526423.6024                   20526420.7664
 11  8 15  0 21 30.0000000  0  7G12G10G17G05G09G04G02
 -28483167.93747 -22164782.57646  21751383.5234                   21751382.4534
 -44358713.21148 -34552257.12946  20847951.7664                   20847951.6994
 -92864568.23047 -72317987.49545  22632119.2974                   22632119.0704
 -16641934.21947 -12948524.43745  22600874.2274                   22600874.2854
 -40369794.12547 -31414025.59044  22991357.2344                   22991358.8984
 -71756573.38348 -55842416.54846  20968478.2424                   20968477.9774
 -54675938.83648 -42561640.33946  20502454.6334                   20502451.3054
 11  8 15  0 22  0.0000000  0  7G12G10G17G05G09G04G02
 -27093668.70747 -21082055.88646  22015795.9694                   22015795.2734
 -42921533.66448 -33432376.94346  21121438.0784                   21121436.9694
 -91353252.78547 -71140339.10845  22919712.8284                   22919712.6954
 -15278899.40647 -11886419.30645  22860250.6254                   22860251.0744
 -38835822.85247 -30218723.35044  23283261.8524                   23283263.1844
 -70224168.91848 -54648335.16846  21260085.1414                   21260084.5394
 -53226091.25848 -41431888.96647  20778351.4614                   20778348.3834
 11  8 15  0 22 30.0000000  0  7G12G10G17G05G09G04G02
 -27279205.54748 -21226630.02546  21980490.0004                   21980489.0354
 -43059132.00048 -33539596.42446  21095254.0784                   21095253.2304
 -91417174.37147 -71190148.15545  22907548.7814                   22907547.7344
 -15491058.37147 -12051737.89045  22819878.2974                   22819879.1054
 -38876930.27746 -30250755.21044  23275439.7344                   23275441.2894
 -70266907.83648 -54681638.22046  21251952.2734                   21251951.9654
 -53351286.08648 -41529443.37546  20754527.2894                   20754524.5434
 11  8 15  0 23  0.0000000  0  7G12G10G17G05G09G04G02
 -27464350.76247 -21370899.00546  21945258.0634                   21945257.2464
 -43196083.57448 -33646311.91246  21069192.8364                   21069192.2584
 -91480911.86747 -71239813.77345  22895419.6484                   22895419.5634
 -15702982.27747 -12216873.30945  22779550.1334                   22779551.1174
 -38917699.90647 -30282523.78544  23267681.4534                   23267682.8524
 -70309372.32048 -54714727.44246  21243871.5314                   21243871.0704
 -53476101.53948 -41626702.16147  20730775.7424                   20730772.8914
 11  8 15  0 23 30.0000000  0  7G12G10G17G05G09G04G02
 -27649100.79347 -21514860.05446  21910101.0554                   21910100.3954
 -43332386.19948 -33752521.73046  21043255.2664                   21043254.4964
 -91544463.18747 -71289334.34145  22883326.4774                   22883325.4304
 -15914667.37547 -12381822.65945  22739267.8054                   22739268.5554
 -38958134.16846 -30314031.05844  23259987.0004                   23259988.7034
 -70351563.42248 -54747603.63346  21235842.7894                   21235842.5594
 -53600537.40648 -41723665.17247  20707096.4144                   20707093.6804
 11  8 15  0 24  0.0000000  0  7G12G10G17G05G09G04G02
 -27833456.72348 -21658514.00046  21875019.1884                   21875018.5234
 -43468041.75848 -33858227.35246  21017440.8594                   21017440.4574
 -91607831.52746 -71338712.29445  22871267.7894                   22871267.0234
 -16126113.53947 -12546585.83045  22699031.3444                   22699031.8324
 -38998239.50047 -30345282.05044  23252355.9064                   23252356.5664
 -70393486.79748 -54780271.20846  21227865.0234                   21227864.7464
 -53724597.64548 -41820335.48647  20683488.5084                   20683485.3954
 11  8 15  0 24 30.0000000  0  7G12G10G17G05G09G04G02
 -28017414.64847 -21801857.82946  21840013.3284                   21840012.2974
 -43603047.98448 -33963426.99346  20991750.2034                   20991749.7974
 -91671015.03147 -71387946.24245  22859244.9534                   22859243.7074
 -16337317.08247 -12711159.96745  22658840.2274                   22658840.7814
 -39038018.21147 -30376278.53644  23244786.1414                   23244787.5704
 -70435143.66048 -54812731.10546  21219938.1174                   21219937.6254
 -53848282.29748 -41916713.13047  20659952.4144                   20659949.3404
 11  8 15  0 25  0.0000000  0  7G12G10G17G05G09G04G02
 -28200973.84448 -21944890.95846  21805083.2584                   21805081.9734
 -43737404.51648 -34068120.36646  20966182.9534                   20966182.6804
 -91734014.55147 -71437036.81345  22847256.1564                   22847255.3554
 -16548276.66847 -12875543.99345  22618696.3674                   22618697.0314
 -39077475.18747 -30407024.28844  23237277.6954                   23237278.7934
 -70476537.55148 -54844986.09946  21212061.0474                   21212060.6254
 -53971593.55148 -42012799.82947  20636486.7894                   20636484.0004
 11  8 15  0 25 30.0000000  0  7G12G10G17G05G09G04G02
 -28384130.46148 -22087610.38446  21770229.6024                   21770228.4494
 -43871109.53148 -34172306.09346  20940739.5474                   20940739.1024
 -91796828.41047 -71485982.71245  22835303.4614                   22835303.1174
 -16758988.12147 -13039734.66245  22578599.0704                   22578599.9064
 -39116613.00847 -30437521.35244  23229829.8134                   23229831.9344
 -70517669.88348 -54877037.26946  21204233.8054                   21204233.6804
 -54094531.52048 -42108595.65047  20613092.4304                   20613089.7154
 11  8 15  0 26  0.0000000  0  7G12G10G17G05G09G04G02
 -28566886.73448 -22230017.83746  21735452.1254                   21735451.6804
 -44004166.37148 -34275986.74146  20915419.9694                   20915418.9184
 -91859460.88347 -71534787.28645  22823383.7894                   22823384.3634
 -16969452.97747 -13203733.18345  22538548.5784                   22538549.5044
 -39155439.91447 -30467776.13944  23222441.6884                   23222443.6844
 -70558547.71948 -54908890.15046  21196455.2344                   21196454.7894
 -54217101.85248 -42204104.99147  20589768.1024                   20589765.5864
 11  8 15  0 26 30.0000000  0  8G12G25G10G17G05G09G04G02
 -28749241.05947 -22372112.10246  21700751.0704                   21700750.3484
   5988853.12156   4685594.48653  24593161.4614                   24593163.8054
 -44136574.80548 -34379162.13346  20890223.4384                   20890222.7424
 -91921912.30947 -71583450.78745  22811500.2194                   22811501.0664
 -17179669.48847 -13367538.20745  22498546.2424                   22498546.4774
 -39193959.94947 -30497791.81444  23215111.0394                   23215112.3554
 -70599174.04348 -54940547.04646  21188724.0704                   21188724.0434
 -54339306.02748 -42299329.01747  20566513.1564                   20566510.5594
 11  8 15  0 27  0.0000000  0  8G12G25G10G17G05G09G04G02
 -28931199.25848 -22513897.68946  21666125.7034                   21666124.7664
   5773824.85246   4518040.10343  24552242.5084                   24552244.6564
 -44268342.15248 -34481837.97346  20865149.1174                   20865148.2624
 -91984190.42247 -71631979.22245  22799648.4924                   22799649.9264
 -17389642.83647 -13531153.75845  22458589.1174                   22458589.6054
 -39232185.02046 -30527577.63444  23207836.8594                   23207838.2854
 -70639559.40248 -54972016.17346  21181038.9924                   21181038.8244
 -54461153.43048 -42394275.04447  20543326.8284                   20543323.8794
 11  8 15  0 27 30.0000000  0  8G12G25G10G17G05G09G04G02
 -29112764.11748 -22655376.79646  21631574.9924                   21631574.3134
   5558929.93446   4350589.55743  24511350.4224                   24511351.7584
 -44399472.23048 -34584017.24246  20840195.5164                   20840194.7664
 -92046299.79747 -71680376.19445  22787830.0634                   22787830.6054
 -17599375.27747 -13694581.54745  22418678.2584                   22418679.2704
 -39270123.18747 -30557139.89644  23200617.5634                   23200619.7074
 -70679711.16848 -55003303.26946  21173398.5084                   21173398.0474
 -54582650.16848 -42488947.82247  20520206.6724                   20520203.8364
 11  8 15  0 28  0.0000000  0  8G12G25G10G17G05G09G04G02
 -29293933.28148 -22796547.55846  21597099.9844                   21597098.3484
   5344170.73446   4183244.80243  24470482.4844                   24470484.4774
 -44529963.80948 -34685698.97446  20815363.8594                   20815363.0044
 -92108240.02347 -71728641.32945  22776043.2504                   22776042.9654
 -17808863.82447 -13857819.32045  22378813.9534                   22378814.4184
 -39307778.48047 -30586481.73044  23193452.2894                   23193454.6994
 -70719631.73048 -55034410.21346  21165801.5554                   21165801.3444
 -54703797.30548 -42583348.18846  20497152.8054                   20497150.0234
 11  8 15  0 28 30.0000000  0  8G12G25G10G17G05G09G04G02
 -29474699.82448 -22937404.57346  21562701.1334                   21562700.5354
   5129554.12546   4016011.11543  24429642.8984                   24429644.4024
 -44659811.49648 -34786878.98546  20790654.7734                   20790653.7464
 -92170006.04747 -71776770.74045  22764289.8834                   22764289.0744
 -18018101.24247 -14020861.40445  22338997.3284                   22338998.2074
 -39345149.74647 -30615602.26144  23186340.6254                   23186343.0864
 -70759319.10948 -55065335.46146  21158249.4534                   21158249.2234
 -54824591.55148 -42677473.56947  20474166.5394                   20474163.8484
 11  8 15  0 29  0.0000000  0  8G12G25G10G17G05G09G04G02
 -28079629.55948 -21850336.82746  21828174.0084                   21828172.9734
   6490515.09447   5076500.17143  24688625.2584                   24688626.4654
 -43213584.50048 -33659948.85246  21065862.3834                   21065861.6214
 -90656169.69547 -70597158.04145  23052363.4454                   23052363.1884
 -16651652.09847 -12956095.76645  22599024.0634                   22599025.1804
 -37806813.92247 -29416899.06844  23479076.9844                   23479078.6764
 -69223348.44948 -53868475.22546  21450534.8914                   21450534.8524
 -53369604.32048 -41543717.28047  20751041.5704                   20751038.9614
 11  8 15  0 29 30.0000000  0  8G12G25G10G17G05G09G04G02
 -28259569.32047 -21990549.62746  21793932.7344                   21793931.3444
   6276204.77047   4909505.20744  24647843.0784                   24647845.2304
 -43342127.55548 -33760112.25546  21041401.4844                   21041401.0824
 -90717571.65647 -70645003.74445  23040678.6724                   23040679.1804
 -16860364.41047 -13118728.67346  22559307.8834                   22559308.0474
 -37843613.96947 -29445574.50844  23472074.0394                   23472075.8754
 -69262561.79347 -53899031.09646  21443073.0634                   21443072.8874
 -53489681.62148 -41637283.99246  20728191.5554                   20728188.3714
 11  8 15  0 30  0.0000000  0  8G12G25G10G17G05G09G04G02
 -28439090.30547 -22130436.10246  21759771.3444                   21759769.7234
   6062053.00847   4742633.75644  24607091.5234                   24607093.4494
 -43470015.13748 -33859764.90546  21017065.2974                   21017064.8484
 -90778789.35247 -70692705.90245  23029029.1724                   23029030.1764
 -17068808.16447 -13281152.33946  22519642.1174                   22519642.7344
 -37880131.73847 -29474030.01644  23465125.4224                   23465126.1054
 -69301539.69948 -53929403.50746  21435655.5164                   21435655.8094
 -53609400.32448 -41730571.28947  20705409.7664                   20705406.4184
 11  8 15  0 30 30.0000000  0  8G12G25G10G17G05G09G04G02
 -28618187.11347 -22269992.05746  21725689.8444                   21725688.8754
   5848065.27347   4575890.10144  24566371.0554                   24566372.8914
 -43597242.95348 -33958903.45846  20992854.8524                   20992853.9024
 -90839818.98847 -70740261.49844  23017416.1804                   23017416.6334
 -17276977.35247 -13443362.03446  22480028.6724                   22480028.9144
 -37916367.59447 -29502265.82844  23458229.7504                   23458230.8794
 -69340281.50848 -53959591.95146  21428283.2034                   21428283.1334
 -53728758.36748 -41823577.54847  20682696.7894                   20682694.0044
 11  8 15  0 31  0.0000000  0  8G12G25G10G17G05G09G04G02
 -28796857.80548 -22409215.96046  21691690.2344                   21691689.2894
   5634243.45747   4409275.75344  24525681.6644                   24525683.5944
 -43723810.80948 -34057527.75146  20968769.8914                   20968769.0634
 -90900660.70347 -70787670.66545  23005838.2664                   23005838.2584
 -17484869.57047 -13605355.91345  22440467.9144                   22440468.3754
 -37952325.81646 -29530285.23244  23451387.3674                   23451388.0234
 -69378789.96148 -53989598.57046  21420955.3444                   21420955.4734
 -53847757.18048 -41916303.87947  20660052.0554                   20660049.2344
 11  8 15  0 31 30.0000000  0  8G12G25G10G17G05G09G04G02
 -28975097.52748 -22548104.04046  21657772.3364                   21657771.1214
   5420592.55947   4242794.57844  24485025.6254                   24485027.0594
 -43849715.57448 -34155635.34546  20944811.2274                   20944810.0594
 -90961311.45347 -70834931.03244  22994297.0784                   22994296.6414
 -17692479.43447 -13767129.76246  22400960.8524                   22400961.0234
 -37988007.40246 -29558089.15644  23444596.2194                   23444597.5124
 -69417064.59448 -54019422.98246  21413671.7894                   21413671.8674
 -53966395.09048 -42008748.99147  20637476.1644                   20637472.8204
 11  8 15  0 32  0.0000000  0  8G12G25G10G17G05G09G04G02
 -29152906.16448 -22686656.21846  21623936.0864                   21623935.1724
   5207112.69147   4076446.72844  24444401.0634                   24444402.9964
 -43974958.53548 -34253227.25946  20920977.8444                   20920977.2234
 -91021772.98047 -70882043.95845  22982791.5784                   22982791.3244
 -17899806.28947 -13928683.10045  22361507.9924                   22361508.1174
 -38023418.00046 -29585681.88844  23437858.5554                   23437859.4104
 -69455110.26248 -54049068.97946  21406432.2194                   21406431.9534
 -54084675.79348 -42100915.75947  20614967.9144                   20614964.6604
 11  8 15  0 32 30.0000000  0  8G12G25G10G17G05G09G04G02
 -29330278.20748 -22824868.20146  21590183.6954                   21590182.4574
   4993809.30946   3910236.30844  24403811.0314                   24403812.6094
 -44099535.80148 -34350300.44946  20897271.9144                   20897271.3094
 -91082041.85247 -70929006.75044  22971322.4774                   22971322.7274
 -18106844.37947 -14090011.44545  22322110.0234                   22322110.2624
 -38058557.76646 -29613063.59844  23431171.3204                   23431172.9964
 -69492925.92648 -54078535.76446  21399236.2194                   21399235.8594
 -54202597.18048 -42192802.54847  20592528.2734                   20592525.3634
 11  8 15  0 33  0.0000000  0  8G12G25G10G17G05G09G04G02
 -29507212.32848 -22962738.94546  21556514.1804                   21556513.5204
   4780684.07847   3744164.77643  24363254.8134                   24363255.7544
 -44223447.46148 -34446854.97646  20873692.0554                   20873691.5514
 -91142118.04347 -70975819.40545  22959890.4534                   22959890.5044
 -18313591.43747 -14251112.99146  22282767.2734                   22282767.4734
 -38093431.08646 -29640237.66143  23424534.9774                   23424537.1994
 -69530514.62148 -54107825.68946  21392083.3834                   21392083.4384
 -54320161.26648 -42284410.92147  20570156.4774                   20570153.4224
 11  8 15  0 33 30.0000000  0  8G12G25G10G17G05G09G04G02
 -29683706.54747 -23100266.89946  21522928.1414                   21522927.5634
   4567738.79746   3578233.40343  24322732.1484                   24322733.8794
 -44346693.28148 -34542890.66746  20850239.1804                   20850238.6954
 -91202001.78547 -71022482.10045  22948495.7274                   22948495.4774
 -18520045.21147 -14411986.01646  22243480.0704                   22243480.4734
 -38128042.03546 -29667207.32743  23417948.9774                   23417951.5044
 -69567878.99648 -54136940.82146  21384973.3594                   21384973.0944
 -54437369.93048 -42375742.35347  20547852.6174                   20547849.4734
 11  8 15  0 34  0.0000000  0  8G12G25G10G17G05G09G04G02
 -29859758.00447 -23237449.83646  21489426.8284                   21489425.7464
   4354976.16446   3412444.38943  24282244.7664                   24282246.3484
 -44469272.30948 -34638406.78146  20826913.0394                   20826912.5634
 -91261692.68047 -71068994.52144  22937136.9774                   22937136.5314
 -18726202.60947 -14572628.07346  22204249.5474                   22204250.5274
 -38162394.43446 -29693975.48044  23411412.0944                   23411413.9104
 -69605021.35248 -54165882.95346  21377905.2424                   21377905.0704
 -54554223.57048 -42466797.12247  20525615.7274                   20525613.0664
 11  8 15  0 34 30.0000000  0  8G12G25G10G17G05G09G04G02
 -30035365.08647 -23374286.51846  21456009.6484                   21456008.8634
   4142398.16446   3246799.22743  24241792.7114                   24241794.4884
 -44591184.07448 -34733402.94746  20803714.1724                   20803713.5864
 -91321190.58647 -71115356.58845  22925814.3204                   22925813.8204
 -18932061.37947 -14733037.43646  22165076.0314                   22165076.7274
 -38196491.78547 -29720544.87744  23404923.6414                   23404926.2274
 -69641944.30948 -54194654.11946  21370879.4924                   21370879.3284
 -54670723.85548 -42557576.56147  20503446.5864                   20503443.8164
 11  8 15  0 35  0.0000000  0  8G12G25G10G17G05G09G04G02
 -30210522.37147 -23510772.70846  21422678.5004                   21422677.2934
   3930010.89546   3081302.67943  24201377.1334                   24201378.2894
 -44712424.73048 -34827876.17846  20780642.1954                   20780641.9614
 -91380491.42247 -71161565.07745  22914529.7114                   22914529.4654
 -19137614.86747 -14893208.90745  22125960.5864                   22125961.1644
 -38230334.15247 -29746915.60044  23398483.5474                   23398486.0864
 -69678646.54348 -54223253.29545  21363894.8914                   21363894.7974
 -54786868.45348 -42648078.84447  20481344.9844                   20481342.3054
 11  8 15  0 35 30.0000000  0  8G12G25G10G17G05G09G04G02
 -30385229.11748 -23646907.82646  21389433.1094                   21389431.9734
   3717814.68446   2915955.06343  24160996.0704                   24160998.4184
 -44832995.55548 -34921827.46746  20757698.7504                   20757697.9184
 -91439596.62147 -71207621.13545  22903283.1414                   22903283.1294
 -19342862.44147 -15053142.01745  22086903.2194                   22086903.4734
 -38263927.07847 -29773091.97944  23392091.6254                   23392093.8444
 -69715131.98048 -54251683.55146  21356952.1334                   21356951.7934
 -54902660.26648 -42738306.22647  20459310.5234                   20459308.0984
 11  8 15  0 36  0.0000000  0  8G12G25G10G17G05G09G04G02
 -28984053.84447 -22555082.91946  21656067.6644                   21656066.5634
   5081242.46146   3978366.33943  24420448.2584                   24420450.4574
 -43377468.44148 -33787650.48846  21034676.2274                   21034675.5784
 -89923080.52047 -70025920.31945  23191865.9924                   23191866.6294
 -17972370.95347 -13985226.50745  22347699.1094                   22347699.0944
 -36721849.61347 -28571473.26344  23685539.2974                   23685541.7894
 -68175978.48448 -53052343.21346  21649843.3914                   21649842.9224
 -53442673.63347 -41600654.31247  20737136.8754                   20737133.7704
 11  8 15  0 36 30.0000000  0  8G12G25G10G17G05G09G04G02
 -29157848.22347 -22690507.09646  21622995.7424                   21622994.3484
   4869440.21146   3813325.65443  24380143.5944                   24380145.8094
 -43496693.44148 -33880553.07246  21011988.5474                   21011988.0084
 -89981788.89547 -70071667.17145  23180694.0634                   23180694.6764
 -18176993.48847 -14144672.59946  22308760.5634                   22308761.1524
 -36754949.78947 -28597265.64844  23679240.8364                   23679242.7854
 -68212033.19148 -53080437.82246  21642982.2814                   21642981.8954
 -53557759.50048 -41690331.61347  20715236.9454                   20715233.7384
 11  8 15  0 37  0.0000000  0  8G12G25G10G17G05G09G04G02
 -29331185.52747 -22825575.10646  21590011.0234                   21590009.5514
   4657836.10547   3648439.38544  24339877.0704                   24339878.9804
 -43615247.38348 -33972932.75746  20989428.5634                   20989427.8014
 -90040300.87947 -70117260.99245  23169559.8834                   23169559.8674
 -18381302.13347 -14303874.06145  22269881.8364                   22269882.4384
 -36787811.38347 -28622872.13344  23672988.2194                   23672989.2234
 -68247877.98048 -53108368.86946  21636161.2034                   21636161.4804
 -53672496.43747 -41779737.02046  20693403.4064                   20693400.1174
 11  8 15  0 37 30.0000000  0  8G12G25G10G17G05G09G04G02
 -29504065.76247 -22960286.96546  21557112.5554                   21557111.3364
   4446430.33647   3483707.61744  24299647.9454                   24299649.9534
 -43733132.04748 -34064790.93246  20966995.7584                   20966995.2234
 -90098618.13746 -70162703.06044  23158462.0474                   23158462.2154
 -18585295.97347 -14462830.26546  22231062.9694                   22231063.1644
 -36820440.45347 -28648297.46544  23666778.5944                   23666779.6564
 -68283517.64848 -53136140.07546  21629379.5084                   21629378.7854
 -53786887.90248 -41868873.24347  20671635.1094                   20671632.1524
 11  8 15  0 38  0.0000000  0  8G12G25G10G17G05G09G04G02
 -29676482.30947 -23094637.48246  21524302.8134                   21524301.8444
   4235229.81647   3319135.78644  24259457.8834                   24259460.1094
 -43850342.44148 -34156123.68846  20944691.4534                   20944690.5784
 -90156735.65646 -70207989.49344  23147402.5554                   23147402.2814
 -18788967.88747 -14621535.59946  22192305.5084                   22192305.5744
 -36852835.76647 -28673540.62244  23660613.5554                   23660615.9534
 -68318949.89848 -53163749.66646  21622636.6174                   21622636.6254
 -53900930.80948 -41957737.84047  20649933.4844                   20649930.6134
 11  8 15  0 38 30.0000000  0  8G12G25G10G17G05G09G04G02
 -29848431.79347 -23228624.07946  21491581.7194                   21491580.5944
   4024238.10247   3154726.66544  24219307.2194                   24219309.9344
 -43966876.89848 -34246929.74746  20922515.3444                   20922514.5314
 -90214652.25846 -70253119.39444  23136381.8054                   23136381.8794
 -18992314.00047 -14779987.05746  22153609.8364                   22153610.3634
 -36884999.68047 -28698603.49244  23654492.9614                   23654495.1644
 -68354175.62548 -53191198.32346  21615933.6884                   21615933.5474
 -54014625.03148 -42046330.73947  20628298.1024                   20628295.4414
 11  8 15  0 39  0.0000000  0  8G12G25G10G17G05G09G04G02
 -30019917.41447 -23362249.22346  21458949.2504                   21458948.2814
   3813452.25047   2990477.94344  24179196.3674                   24179198.7034
 -44082740.52348 -34337213.08746  20900467.4924                   20900466.6604
 -90272372.55547 -70298096.29444  23125398.2974                   23125399.0704
 -19195336.85947 -14938186.63145  22114975.7974                   22114976.1214
 -36916941.32047 -28723493.19444  23648414.6334                   23648416.9654
 -68389202.48048 -53218492.02146  21609268.4774                   21609268.1024
 -54127977.11348 -42134657.03847  20606727.8444                   20606725.3134
 11  8 15  0 39 30.0000000  0  8G12G25G10G17G05G09G04G02
 -30190930.52047 -23495506.16946  21426406.8134                   21426405.3834
   3602881.00447   2826396.48344  24139125.9304                   24139129.0394
 -44197927.00848 -34426968.77646  20878548.2664                   20878547.5274
 -90329890.04747 -70342915.21445  23114452.9384                   23114453.3954
 -19398027.31647 -15096127.16946  22076405.0314                   22076405.5004
 -36948658.05147 -28748207.56644  23642379.2274                   23642381.0704
 -68424026.51648 -53245627.67746  21602641.8444                   21602641.4304
 -54240981.99648 -42222712.78547  20585223.7114                   20585220.8484
 11  8 15  0 40  0.0000000  0  8G12G25G10G17G05G09G04G02
 -30361469.13748 -23628393.38046  21393954.0084                   21393952.8834
   3392526.63747   2662484.03444  24099096.7584                   24099099.7584
 -44312435.91848 -34516196.49446  20856757.9384                   20856756.9924
 -90387204.50047 -70387575.85544  23103546.7814                   23103546.3594
 -19600382.82047 -15253806.73646  22037898.4064                   22037898.2774
 -36980153.57446 -28772749.60943  23636385.2424                   23636385.9064
 -68458649.98448 -53272607.03846  21596052.8134                   21596052.1804
 -54353641.32048 -42310499.27547  20563785.3284                   20563782.3444
 11  8 15  0 40 30.0000000  0  8G12G25G10G17G05G09G04G02
 -30531528.17647 -23760906.89546  21361593.1414                   21361591.8204
   3182394.47747   2498744.71944  24059110.0554                   24059112.7504
 -44426264.42648 -34604894.02946  20835096.9614                   20835096.1374
 -90444312.76247 -70432075.84744  23092679.7424                   23092678.9574
 -19802398.06247 -15411221.15946  21999456.1644                   21999456.2774
 -37011428.62947 -28797119.83944  23630434.5704                   23630435.2504
 -68493072.28148 -53299429.65145  21589502.6334                   21589502.5594
 -54465953.27748 -42398015.08447  20542413.2894                   20542410.1214
 11  8 15  0 41  0.0000000  0  8G12G25G10G17G05G09G04G02
 -30701105.34447 -23893044.92546  21329323.6954                   21329322.3204
   2972487.53547   2335180.91444  24019166.1334                   24019168.0984
 -44539411.32448 -34693060.44346  20813565.6954                   20813565.1524
 -90501213.67247 -70476414.26444  23081851.4924                   23081851.4384
 -20004069.43447 -15568367.65146  21961079.3594                   21961079.0554
 -37042486.00847 -28821320.48744  23624524.5314                   23624527.0314
 -68527294.87548 -53326096.65545  21582990.2344                   21582990.5554
 -54577918.47347 -42485260.69747  20521107.2814                   20521104.1764
 11  8 15  0 41 30.0000000  0  8G12G25G10G17G05G09G04G02
 -30870200.00048 -24024806.97546  21297145.8914                   21297144.4734
   2762806.17247   2171792.88944  23979264.8134                   23979267.0044
 -44651878.76647 -34780697.39946  20792163.9534                   20792162.9734
 -90557909.16447 -70520592.59744  23071062.7894                   23071062.1024
 -20205396.24647 -15725245.63746  21922767.9224                   21922767.9654
 -37073331.45347 -28845356.00844  23618655.1334                   23618657.6994
 -68561322.24648 -53352611.51245  21576514.9614                   21576514.9104
 -54689540.34848 -42572238.76947  20499865.8754                   20499863.3714
 11  8 15  0 42  0.0000000  0  8G12G25G10G17G05G09G04G02
 -31038807.51648 -24156189.43446  21265060.9774                   21265059.9224
   2553355.74247   2008584.84343  23939407.9694                   23939409.8594
 -44763663.71148 -34867802.54346  20770892.2194                   20770891.2114
 -90614395.97347 -70564608.33444  23060313.4774                   23060312.6844
 -20406373.11747 -15881850.94846  21884523.2814                   21884523.2274
 -37103965.47347 -28869226.74344  23612825.9924                   23612828.0594
 -68595153.32448 -53378973.42645  21570077.0634                   21570077.3954
 -54800817.07848 -42658947.91147  20478691.0234                   20478687.7154
 11  8 15  0 42 30.0000000  0  8G12G25G10G17G05G09G04G02
 -31206930.27748 -24287194.17646  21233068.1254                   21233067.1214
   2344134.01647   1845554.97744  23899594.8364                   23899596.3634
 -44874770.59048 -34954379.35046  20749748.7814                   20749748.0044
 -90670678.45747 -70608464.85744  23049603.4924                   23049602.8014
 -20607001.83247 -16038184.95746  21846344.7894                   21846344.8484
 -37134396.43047 -28892939.23444  23607034.8674                   23607037.1294
 -68628795.08648 -53405187.83145  21563675.3444                   21563675.7424
 -54911754.56247 -42745392.69947  20457579.8834                   20457576.8834
 11  8 15  0 43  0.0000000  0  8G12G25G10G17G05G09G04G02
 -29799136.20748 -23190211.76346  21500962.6724                   21500961.5274
   3710574.82847   2910314.09244  24159619.2504                   24159620.8524
 -43409771.04348 -33812821.24246  21028529.0234                   21028528.5434
 -89151329.28947 -69424556.44644  23338725.8834                   23338725.3674
 -19231848.75847 -14966637.05546  22108027.5864                   22108027.8914
 -35589202.47747 -27688892.12944  23901075.3284                   23901078.2624
 -67086824.29348 -52203652.18045  21857102.7114                   21857103.1294
 -53446926.04347 -41603967.87747  20736327.5864                   20736324.1294
 11  8 15  0 43 30.0000000  0  8G12G25G10G17G05G09G04G02
 -29966277.65248 -23320451.83946  21469156.7424                   21469155.0664
   3501823.48047   2747650.78344  24119895.2734                   24119896.8164
 -43519515.74248 -33898336.59046  21007645.5314                   21007644.5824
 -89207195.92647 -69468088.92544  23328095.3444                   23328095.3594
 -19431767.68447 -15122417.98446  22069984.2424                   22069984.2194
 -35619232.41847 -27712292.17644  23895361.4774                   23895363.6644
 -67120088.32848 -52229572.23345  21850772.8984                   21850772.7304
 -53557183.59848 -41689882.85547  20715346.2894                   20715343.2384
 11  8 15  0 44  0.0000000  0  8G12G25G10G17G05G09G04G02
 -30132927.39548 -23450308.77246  21437443.9384                   21437442.7854
   3293308.83647   2585171.87344  24080215.8284                   24080217.2934
 -43628581.43748 -33983322.84746  20986890.9534                   20986889.9884
 -89262856.64547 -69511460.96444  23317503.6024                   23317504.2704
 -19631329.69147 -15277920.79646  22032008.7584                   22032009.2424
 -35649069.16047 -27735541.69544  23889683.3284                   23889685.5234
 -67153169.02048 -52255349.42845  21844478.2584                   21844477.7274
 -53667105.17247 -41775536.02446  20694429.0004                   20694425.9844
 11  8 15  0 44 30.0000000  0  8G12G25G10G17G05G09G04G02
 -30299083.41448 -23579780.98946  21405825.8134                   21405824.6294
   3085033.32047   2422879.30844  24040582.4844                   24040584.3444
 -43736968.18447 -34067780.04046  20966265.7344                   20966265.0664
 -89318310.79347 -69554672.01944  23306950.6174                   23306950.9104
 -19830532.21147 -15433143.49946  21994102.2664                   21994102.3204
 -35678716.64847 -27758643.72344  23884042.4224                   23884045.0984
 -67186068.50848 -52280985.41445  21838217.4144                   21838216.8794
 -53776692.06248 -41860928.40947  20673575.1024                   20673572.2664
 11  8 15  0 45  0.0000000  0  8G12G25G10G17G05G09G04G02
 -30464738.51648 -23708862.87646  21374302.6484                   21374301.5634
   2877004.35247   2260778.85044  24000995.8834                   24000997.2504
 -43844671.42247 -34151704.63946  20945770.5634                   20945770.0354
 -89373553.25047 -69597718.13144  23296438.1884                   23296437.7734
 -20029367.39147 -15588079.93846  21956265.1094                   21956264.7344
 -35708173.46546 -27781597.15444  23878436.0234                   23878439.5554
 -67218783.57048 -52306477.69845  21831991.7734                   21831991.8134
 -53885940.68748 -41946057.19947  20652786.0944                   20652783.2034
 11  8 15  0 45 30.0000000  0  8G12G25G10G17G05G09G04G02
 -30629893.91048 -23837555.39446  21342874.5314                   21342873.5784
   2669221.51647   2098870.18644  23961456.5234                   23961457.7304
 -43951693.72348 -34235098.62246  20925404.9924                   20925404.1214
 -89428586.60547 -69640601.30245  23285965.5084                   23285965.5704
 -20227835.51247 -15742730.37846  21918497.5234                   21918498.2074
 -35737445.91846 -27804406.99243  23872865.6254                   23872868.6174
 -67251319.57048 -52331830.46545  21825800.3754                   21825800.5944
 -53994854.87548 -42030925.39446  20632060.3134                   20632057.3204
 11  8 15  0 46  0.0000000  0  8G12G25G10G17G05G09G04G02
 -30794546.75448 -23965856.31746  21311542.2584                   21311541.1804
   2461687.96947   1937155.76544  23921963.7344                   23921965.5554
 -44058034.67248 -34317961.69446  20905168.8984                   20905167.8134
 -89483409.48847 -69683320.46145  23275533.9144                   23275533.5274
 -20425933.58647 -15897092.45946  21880800.9534                   21880800.9064
 -35766536.63746 -27827075.12043  23867330.7664                   23867331.9344
 -67283677.89848 -52357044.77145  21819643.1334                   21819642.9144
 -54103435.65647 -42115533.79347  20611397.9224                   20611395.1374
 11  8 15  0 46 30.0000000  0  8G12G25G10G17G05G09G04G02
 -30958695.79348 -24093764.67146  21280305.8134                   21280304.3594
   2254405.25447   1775636.83244  23882518.9384                   23882520.9264
 -44163695.34447 -34400294.68546  20885062.4454                   20885061.4024
 -89538022.70747 -69725876.26045  23265141.2194                   23265141.6844
 -20623659.57447 -16051164.61546  21843174.9384                   21843174.5864
 -35795450.55947 -27849605.47443  23861828.4224                   23861830.1954
 -67315861.61348 -52382123.02445  21813518.4064                   21813518.6094
 -54211685.20748 -42199884.09547  20590798.6724                   20590795.9884
 11  8 15  0 47  0.0000000  0  8G12G25G10G17G05G09G04G02
 -31122337.70348 -24221277.84546  21249165.8674                   21249164.1484
   2047376.85547   1614316.03344  23843122.5864                   23843124.7194
 -44268674.56648 -34482096.67346  20865085.1644                   20865084.5594
 -89592425.02747 -69768267.71345  23254788.3524                   23254789.4654
 -20821009.93047 -16204944.05646  21805620.6024                   21805620.3484
 -35824189.99647 -27871999.85843  23856359.3444                   23856361.8364
 -67347871.60948 -52407065.90745  21807427.4614                   21807427.4694
 -54319603.75848 -42283976.47947  20570262.8134                   20570260.0084
 11  8 15  0 47 30.0000000  0  8G12G25G10G17G05G09G04G02
 -31285467.69948 -24348392.12946  21218123.0474                   21218121.9734
   1840608.70347   1453198.05144  23803776.0004                   23803778.1334
 -44372969.15248 -34563365.17546  20845238.7274                   20845238.0274
 -89646612.51247 -69810491.76044  23244476.9534                   23244477.7734
 -21017978.42647 -16358425.94446  21768138.2344                   21768138.5394
 -35852754.98047 -27894258.35644  23850923.2894                   23850926.0944
 -67379706.66848 -52431872.47345  21801369.2894                   21801369.4654
 -54427188.96948 -42367809.10346  20549789.8594                   20549786.9144
 11  8 15  0 48  0.0000000  0  8G12G25G10G17G05G09G04G02
 -31448083.82848 -24475106.00946  21187178.4384                   21187177.6024
   1634103.41047   1292284.88144  23764479.3364                   23764481.5084
 -44476579.25447 -34644100.32646  20825522.0554                   20825521.5394
 -89700585.09447 -69852548.37545  23234206.6094                   23234206.8874
 -21214562.43447 -16511608.24046  21730729.8674                   21730729.3554
 -35881149.00447 -27916383.65844  23845520.9614                   23845522.1884
 -67411368.74648 -52456544.24945  21795344.3834                   21795344.9224
 -54534442.18448 -42451383.04246  20529380.4534                   20529377.5394
 11  8 15  0 48 30.0000000  0  8G12G25G10G17G05G09G04G02
 -31610184.54348 -24601418.27046  21156331.5944                   21156330.4614
   1427862.34447   1131577.58244  23725233.0234                   23725235.3554
 -44579506.10248 -34724303.06846  20805935.9924                   20805935.4224
 -89754343.36747 -69894437.98145  23223976.5634                   23223976.9534
 -21410760.52047 -16664489.80746  21693394.0634                   21693394.0664
 -35909376.66047 -27938379.28644  23840149.2734                   23840151.2194
 -67442860.77048 -52481083.54145  21789351.5704                   21789351.6884
 -54641365.71948 -42534700.07347  20509033.2814                   20509030.2234
 11  8 15  0 49  0.0000000  0  8G12G25G10G17G05G09G04G02
 -31771768.07848 -24727327.53046  21125583.1804                   21125581.9384
   1221888.00447    971078.16144  23686037.0164                   23686039.5704
 -44681750.22748 -34803973.80946  20786479.7274                   20786479.0004
 -89807887.11747 -69936160.45144  23213787.0634                   23213788.7344
 -21606569.74247 -16817068.37746  21656133.0394                   21656132.6994
 -35937441.52747 -27960248.03344  23834808.8754                   23834810.5864
 -67474185.09048 -52505492.12345  21783391.0164                   21783391.3324
 -54747960.91048 -42617761.25646  20488749.1024                   20488746.1914
 11  8 15  0 49 30.0000000  0  8G12G25G10G17G05G09G04G02
 -31932833.31648 -24852832.92646  21094933.5314                   21094932.2114
   1016182.12147    810787.89344  23646892.8054                   23646895.4804
 -44783312.39848 -34883113.17546  20767152.9924                   20767152.3754
 -89861216.13347 -69977715.56844  23203639.8364                   23203640.2934
 -21801988.68747 -16969342.83246  21618945.9694                   21618945.6024
 -35965347.99247 -27981993.37444  23829498.5234                   23829500.2234
 -67505344.33648 -52529772.08045  21777461.4454                   21777461.6294
 -54854229.71948 -42700568.12447  20468526.7814                   20468523.5474
 11  8 15  0 50  0.0000000  0  8G12G25G10G17G05G09G04G02
 -30517952.18048 -23750328.15246  21364176.5314                   21364175.5084
   2386174.77047   1878314.69144  23907593.2974                   23907596.2664
 -43308769.12948 -33734118.40946  21047749.1644                   21047748.5204
 -88338908.58647 -68791501.94344  23493325.0084                   23493324.8164
 -20421586.99647 -15893705.11146  21881627.6024                   21881627.7464
 -34417677.63747 -26776016.54144  24124009.9454                   24124012.4144
 -65960918.86348 -51326323.70045  22071355.8054                   22071355.7664
 -53384749.46548 -41555518.57347  20748159.5314                   20748156.2234
 11  8 15  0 50 30.0000000  0  8G12G25G10G17G05G09G04G02
 -30677971.85548 -23875018.81046  21333725.5084                   21333724.7034
   2181016.52747   1718451.18544  23868553.5234                   23868556.3364
 -43408965.66848 -33812193.64246  21028682.6094                   21028682.0164
 -88391805.75447 -68832720.54945  23483259.1254                   23483259.0864
 -20616213.29747 -16045361.91346  21844591.0704                   21844591.1844
 -34445274.06247 -26797520.29544  24118758.7504                   24118761.3324
 -65991750.87548 -51350348.67645  22065488.7034                   22065488.6994
 -53490366.52348 -41637817.58747  20728061.2814                   20728057.8284
 11  8 15  0 51  0.0000000  0  8G12G25G10G17G05G09G04G02
 -30837466.45748 -23999300.32546  21303374.9694                   21303374.1764
   1976135.16047   1558803.38344  23829565.7194                   23829568.3324
 -43508480.59448 -33889737.75146  21009744.9774                   21009744.5084
 -88444486.82047 -68873770.77144  23473234.3204                   23473234.4064
 -20810440.56247 -16196707.79546  21807631.1564                   21807630.7544
 -34472721.54347 -26818908.05544  24113535.8754                   24113538.1764
 -66022423.13348 -51374249.16745  22059651.9454                   22059652.1564
 -53595660.46948 -41719864.82847  20708024.5004                   20708021.1294
 11  8 15  0 51 30.0000000  0  8G12G25G10G17G05G09G04G02
 -30996433.76648 -24123170.95846  21273124.2034                   21273123.0204
   1771533.52347   1399373.56844  23790631.5394                   23790633.5004
 -43607313.45748 -33966750.37246  20990938.0784                   20990937.7154
 -88496950.94547 -68914651.98044  23463250.2344                   23463251.0634
 -21004265.67647 -16347740.32146  21770747.4614                   21770747.2664
 -34500023.26246 -26840182.18244  24108340.5234                   24108342.7114
 -66052937.07048 -51398026.29645  22053845.4774                   22053845.3134
 -53700631.91848 -41801660.76647  20688049.1174                   20688045.8364
 11  8 15  0 52  0.0000000  0  8G12G25G10G17G05G09G04G02
 -31154875.80148 -24246632.28446  21242973.9844                   21242972.4264
   1567210.06347   1240160.52744  23751749.8204                   23751752.2814
 -43705469.01648 -34043235.23546  20972259.8594                   20972259.3874
 -88549202.15647 -68955367.26444  23453307.8834                   23453308.4734
 -21197689.94547 -16498460.47446  21733939.8284                   21733939.8014
 -34527186.56246 -26861348.49244  24103170.9384                   24103174.3754
 -66083298.82848 -51421684.82945  22048067.8204                   22048067.8594
 -53805286.43748 -41883209.74246  20668133.8834                   20668131.1484
 11  8 15  0 52 30.0000000  0  8G12G25G10G17G05G09G04G02
 -31312788.20748 -24369680.91446  21212923.9534                   21212923.1884
   1363170.07047   1081168.34844  23712922.1644                   23712924.0594
 -43802945.05548 -34119190.58446  20953710.6024                   20953709.9614
 -88601237.71147 -68995914.51744  23443405.9614                   23443406.2704
 -21390708.16847 -16648864.23146  21697209.5784                   21697209.7814
 -34554212.19946 -26882407.49543  24098027.8204                   24098031.3094
 -66113507.49648 -51445224.05745  22042319.7344                   22042319.1644
 -53909622.61348 -41964510.66047  20648279.4774                   20648276.1414
 11  8 15  0 53  0.0000000  0  8G12G25G10G17G05G09G04G02
 -31470164.85547 -24492312.06846  21182976.4144                   21182975.4064
   1159420.07047    922402.16744  23674149.1724                   23674152.0824
 -43899737.91447 -34194613.58946  20935291.7114                   20935291.0274
 -88653052.89847 -69036290.04944  23433545.7584                   23433545.9304
 -21583313.93447 -16798946.59746  21660557.9304                   21660557.9654
 -34581099.82046 -26903359.02544  24092911.9144                   24092914.9614
 -66143561.09848 -51468642.49845  22036600.0554                   22036600.7424
 -54013637.78548 -42045561.44147  20628485.8914                   20628482.9104
 11  8 15  0 53 30.0000000  0  8G12G25G10G17G05G09G04G02
 -31627007.71948 -24614527.27746  21153130.2344                   21153129.4264
    955958.94947    763861.04644  23635432.6564                   23635434.7774
 -43995851.92248 -34269507.62546  20917001.4144                   20917001.0904
 -88704651.26247 -69076496.63044  23423726.3594                   23423726.3554
 -21775507.89147 -16948708.08446  21623984.8834                   21623984.5944
 -34607856.71546 -26924208.64644  24087820.2274                   24087824.1644
 -66173465.23048 -51491944.47145  22030910.0084                   22030909.7584
 -54117336.97748 -42126366.00947  20608752.8834                   20608749.8014
 11  8 15  0 54  0.0000000  0  8G12G25G10G17G05G09G04G02
 -31783312.06248 -24736322.86446  21123386.5164                   21123385.5004
    752792.11747    605549.24644  23596770.8444                   23596773.5394
 -44091284.78548 -34343870.90146  20898840.8984                   20898840.5864
 -88756029.59046 -69116531.72244  23413949.7344                   23413950.3444
 -21967284.83647 -17098144.61946  21587491.0004                   21587490.6294
 -34634483.26247 -26944956.69344  24082753.7814                   24082757.3634
 -66203218.96548 -51515129.21345  22025247.7894                   22025248.3754
 -54220718.39148 -42206922.94847  20589080.1334                   20589076.8834
 11  8 15  0 54 30.0000000  0  8G12G25G10G17G05G09G04G02
 -31939078.05547 -24857698.97046  21093745.0164                   21093744.0984
    549920.00847    447467.11444  23558165.5864                   23558168.3874
 -44186039.03147 -34417705.36746  20880810.4304                   20880810.5394
 -88807189.33646 -69156396.53844  23404214.3524                   23404215.3444
 -22158644.25047 -17247255.79846  21551076.1954                   21551076.2114
 -34660985.01247 -26965607.46544  24077710.5164                   24077714.1254
 -66232826.31248 -51538199.92345  22019614.0394                   22019614.1334
 -54323785.45348 -42287234.94847  20569466.7114                   20569463.8794
 11  8 15  0 55  0.0000000  0  8G12G25G10G17G05G09G04G02
 -32094303.09847 -24978653.53046  21064206.7974                   21064205.9344
    347345.90647    289617.16344  23519617.0864                   23519619.6524
 -44280114.30947 -34491010.78846  20862908.1484                   20862907.8674
 -88858129.72746 -69196090.44144  23394521.0314                   23394521.5864
 -22349582.89848 -17396039.11746  21514741.6174                   21514741.8874
 -34687364.34447 -26986162.89944  24072690.9774                   24072694.1294
 -66262288.44147 -51561157.45245  22014007.6024                   22014007.3794
 -54426538.59848 -42367302.33447  20549913.6954                   20549910.8054
 11  8 15  0 55 30.0000000  0  8G12G25G10G17G05G09G04G02
 -32248986.83648 -25099186.30046  21034771.5474                   21034770.9024
    145071.02047    132000.41244  23481125.3754                   23481128.0044
 -44373512.68448 -34563788.74146  20845135.2274                   20845134.6374
 -88908852.13747 -69235614.44145  23384868.8984                   23384869.9844
 -22540099.56648 -17544493.60546  21478487.8284                   21478487.7664
 -34713626.24647 -27006626.78043  24067693.2734                   24067696.7114
 -66291608.39547 -51584004.21845  22008428.1334                   22008428.1024
 -54528980.74648 -42447127.38247  20530419.6724                   20530416.3794
 11  8 15  0 56  0.0000000  0  8G12G25G10G17G05G09G04G02
 -32403129.70748 -25219297.62646  21005439.1254                   21005437.9224
    -56904.64147    -25383.20644  23442690.3834                   23442692.6884
 -44466237.46148 -34636041.80646  20827490.0634                   20827489.6564
 -88959358.73446 -69274970.25944  23375258.0164                   23375258.6214
 -22730194.08248 -17692619.17446  21442313.7114                   21442313.4344
 -34739776.82847 -27027003.94443  24062717.5164                   24062719.8284
 -66320791.00447 -51606743.93745  22002874.8914                   22002874.3714
 -54631115.52748 -42526712.92547  20510984.1484                   20510981.0274
 11  8 15  0 56 30.0000000  0  8G12G25G10G17G05G09G04G02
 -32556723.32848 -25338980.95846  20976211.4064                   20976210.3244
   -258571.45347   -182526.14344  23404314.8834                   23404316.8244
 -44558282.00448 -34707764.81446  20809974.9454                   20809974.4924
 -89009641.72746 -69314151.85944  23365689.0864                   23365689.5984
 -22919856.82048 -17840408.27046  21406222.1484                   21406221.8014
 -34765812.17647 -27047291.27043  24057763.6564                   24057765.3244
 -66349830.55547 -51629372.20045  21997348.7734                   21997348.7034
 -54732937.27348 -42606054.55347  20491607.8674                   20491604.7624
 11  8 15  0 57  0.0000000  0  8G12G25G10G17G05G09G04G02
 -32709770.64148 -25458238.59946  20947087.3364                   20947086.1054
   -459931.64147   -339430.17444  23365997.5554                   23365999.4804
 -44649652.01648 -34778962.22446  20792587.5004                   20792587.4654
 -89059705.86347 -69353162.92144  23356162.5394                   23356162.5124
 -23109090.56248 -17987863.09346  21370212.3054                   21370211.8984
 -34791740.77047 -27067495.44643  24052829.1484                   24052830.8634
 -66378734.11347 -51651894.46745  21991848.3524                   21991848.1214
 -54834452.06248 -42685156.98247  20472290.2274                   20472287.1134
 11  8 15  0 57 30.0000000  0  8G12G25G10G17G05G09G04G02
 -31286841.10948 -24349462.34546  21217861.7734                   21217860.3054
    914447.68047    731514.76644  23627532.9064                   23627535.0314
 -43164921.52048 -33622029.37546  21075122.5314                   21075122.2344
 -87534125.71147 -68164399.21244  23646471.1174                   23646471.0904
 -21722462.44548 -16907373.60646  21634078.6564                   21634078.6604
 -33242141.23047 -25860015.34343  24347708.7114                   24347710.4064
 -64832078.87947 -50446708.60045  22286167.4614                   22286167.3014
 -53360234.11748 -41536415.73447  20752824.5944                   20752821.7034
 11  8 15  0 58  0.0000000  0  8G12G25G10G17G05G09G04G02
 -31438781.01248 -24467857.07346  21188948.5234                   21188947.3244
    713717.65647    575101.79245  23589335.2274                   23589337.5634
 -43254935.49248 -33692170.13546  21057993.1954                   21057992.9064
 -87583742.13346 -68203061.36044  23637029.4454                   23637028.9694
 -21910820.64548 -17054146.17546  21598235.2894                   21598235.0634
 -33267856.75046 -25880053.49343  24342815.2664                   24342817.8054
 -64860706.72747 -50469016.03045  22280719.2424                   22280719.7504
 -53461129.47348 -41615035.49747  20733624.8364                   20733621.7504
 11  8 15  0 58 30.0000000  0  8G12G25G10G17G05G09G04G02
 -31590164.78548 -24585818.45346  21160140.8134                   21160139.9734
    513306.18447    418937.02245  23551198.2034                   23551201.2034
 -43344272.98848 -33761783.76146  21040993.0084                   21040992.4384
 -87633134.67646 -68241549.07044  23627630.0004                   23627630.6024
 -22098737.75848 -17200575.05946  21562475.7894                   21562475.5514
 -33293471.26646 -25900013.00743  24337940.3444                   24337942.6804
 -64889199.50847 -50491218.22645  22275297.2664                   22275297.5434
 -53561717.45748 -41693415.74647  20714483.6414                   20714480.5594
 11  8 15  0 59  0.0000000  0  8G12G25G10G17G05G09G04G02
 -31740991.27748 -24703345.59546  21131439.6644                   21131438.9184
    313215.24647    263022.02844  23513122.0864                   23513125.0634
 -43432935.18048 -33830871.18546  21024121.2734                   21024120.9384
 -87682303.73046 -68279862.70644  23618273.3984                   23618274.1954
 -22286212.31248 -17346659.08146  21526800.4454                   21526800.3954
 -33318988.68046 -25919896.73343  24333084.7114                   24333085.9654
 -64917559.77747 -50513317.18045  22269900.9224                   22269900.9694
 -53661999.94148 -41771557.94747  20695400.5784                   20695397.4654
 11  8 15  0 59 30.0000000  0  8G12G25G10G17G05G09G04G02
 -31891258.76648 -24820437.14846  21102845.0234                   21102843.6374
    113447.85247    107359.14444  23475107.7584                   23475110.5554
 -43520922.32048 -33899432.60546  21007377.5004                   21007377.1334
 -87731248.46146 -68318001.49044  23608959.4534                   23608960.6254
 -22473240.62148 -17492395.38846  21491210.2584                   21491209.8404
 -33344411.76246 -25939707.08043  24328246.8054                   24328249.1254
 -64945788.91447 -50535313.93645  22264529.1484                   22264529.2464
 -53761977.95748 -41849462.89346  20676375.3134                   20676372.6254
 11  8 15  1  0  0.0000000  0  8G12G25G10G17G05G09G04G02
 -32040969.05148 -24937094.52346  21074356.1884                   21074354.8794
    -85997.41447    -48052.73244  23437154.4614                   23437157.1374
 -43608239.18748 -33967471.72346  20990761.7814                   20990761.6334
 -87779972.57846 -68355968.37244  23599687.7194                   23599687.0784
 -22659824.27048 -17637785.21746  21455704.4064                   21455704.3754
 -33369748.15646 -25959449.87443  24323425.5394                   24323428.2114
 -64973892.60947 -50557212.94845  22259181.1174                   22259181.2074
 -53861656.62548 -41927134.59747  20657407.0394                   20657404.2234
 11  8 15  1  0 30.0000000  0  8G12G25G10G17G05G09G04G02
 -32190119.39548 -25053315.58046  21045973.8754                   21045972.7074
   -285116.30547   -203210.28744  23399263.5554                   23399265.8284
 -43694885.21148 -34034988.10546  20974273.7894                   20974273.2424
 -87828473.89546 -68393761.60243  23590457.9224                   23590456.8204
 -22845959.40248 -17782825.52846  21420284.1724                   21420284.2274
 -33394999.33646 -25979126.22443  24318620.8134                   24318624.0434
 -65001870.89547 -50579014.23545  22253857.0004                   22253857.1884
 -53961035.57448 -42004572.74647  20638495.9304                   20638493.1954
 11  8 15  1  1  0.0000000  0  8G12G25G10G17G05G09G04G02
 -32338708.02348 -25169098.92946  21017698.2734                   21017696.9654
   -483906.53147   -358111.69744  23361434.9304                   23361436.7384
 -43780861.42248 -34101982.55646  20957913.1024                   20957912.6804
 -87876752.91846 -68431381.68743  23581270.9384                   23581270.6174
 -23031644.00048 -17927514.78146  21384949.6094                   21384949.1454
 -33420168.90646 -25998738.99943  24313831.3364                   24313833.2664
 -65029726.03147 -50600719.57245  22248556.2424                   22248556.8874
 -54060116.18748 -42081778.42147  20619641.2504                   20619638.7664
 11  8 15  1  1 30.0000000  0  8G12G25G10G17G05G09G04G02
 -32486732.27748 -25284442.52646  20989530.1484                   20989528.6844
   -682364.48047   -512754.23044  23323669.4454                   23323670.7194
 -43866168.00048 -34168455.21246  20941679.7504                   20941678.9574
 -87924808.15646 -68468827.32644  23572126.3524                   23572126.7234
 -23216873.78548 -18071849.63146  21349701.2734                   21349701.1914
 -33445259.31446 -26018290.05643  24309056.1024                   24309059.1414
 -65057458.61347 -50622329.41445  22243279.2664                   22243279.3134
 -54158898.91448 -42158751.99247  20600843.7344                   20600840.7464
 11  8 15  1  2  0.0000000  0  8G12G25G10G17G05G09G04G02
 -32634190.60948 -25399345.13646  20961469.6334                   20961468.7344
   -880487.57047   -667135.83244  23285967.8444                   23285969.2154
 -43950805.66048 -34234406.64246  20925573.6334                   20925573.3324
 -87972639.24247 -68506098.34444  23563024.8754                   23563024.4614
 -23401647.48048 -18215829.10346  21314540.3284                   21314539.7504
 -33470273.52346 -26037781.72443  24304296.3914                   24304298.5084
 -65085070.23847 -50643845.00445  22238024.7114                   22238024.9454
 -54257384.83648 -42235494.27347  20582102.4924                   20582099.4614
 11  8 15  1  2 30.0000000  0  8G12G25G10G17G05G09G04G02
 -32781084.63748 -25513808.02046  20933516.6564                   20933515.7774
  -1078276.60247   -821257.11344  23248329.8134                   23248331.0944
 -44034778.78948 -34299840.26346  20909594.1484                   20909593.4734
 -88020249.45746 -68543197.22944  23553964.8754                   23553965.0784
 -23585965.59448 -18359453.58446  21279465.4454                   21279465.3754
 -33495218.54346 -26057219.51343  24299549.6174                   24299552.1454
 -65112566.19147 -50665270.44844  22232792.3754                   22232792.3594
 -54355578.80948 -42312009.07047  20563416.6724                   20563414.0314
 11  8 15  1  3  0.0000000  0  8G12G25G10G17G05G09G04G02
 -32927409.77348 -25627827.61546  20905671.7034                   20905670.7304
  -1275725.98447   -975113.74244  23210756.6024                   23210758.0664
 -44118085.35248 -34364754.45446  20893741.4924                   20893741.0394
 -88067635.38747 -68580121.38244  23544947.7034                   23544948.2854
 -23769822.35248 -18502718.54746  21244478.9144                   21244478.1564
 -33520094.45746 -26076603.43743  24294815.8674                   24294818.5084
 -65139945.14547 -50686604.73945  22227582.5234                   22227582.1174
 -54453479.07048 -42388295.00346  20544787.1954                   20544784.2504
 11  8 15  1  3 30.0000000  0  8G12G25G10G17G05G09G04G02
 -33073165.70348 -25741403.67746  20877935.4924                   20877934.3444
  -1472834.33647  -1128704.66345  23173248.2114                   23173249.7234
 -44200727.64148 -34429151.06246  20878015.2664                   20878014.5234
 -88114798.30947 -68616871.72844  23535973.1884                   23535973.7304
 -23953216.82848 -18645623.29246  21209580.0634                   21209579.8244
 -33544905.53546 -26095936.91143  24290094.5704                   24290097.9734
 -65167209.85947 -50707849.99144  22222393.9774                   22222393.5744
 -54551088.00448 -42464353.92247  20526212.8204                   20526209.5634
 11  8 15  1  4  0.0000000  0  8G12G25G10G17G05G09G04G02
 -33218351.35248 -25854535.36546  20850307.7894                   20850306.2664
  -1669599.51247  -1282028.15145  23135804.3984                   23135806.5314
 -44282706.89148 -34493031.00046  20862415.0084                   20862414.2934
 -88161738.07847 -68653448.21644  23527040.7344                   23527040.5234
 -24136147.09448 -18788166.32846  21174769.5554                   21174769.3984
 -33569656.03946 -26115223.06143  24285384.4774                   24285388.0594
 -65194362.59447 -50729008.01345  22217227.3984                   22217227.0514
 -54648407.39548 -42540187.23047  20507693.2894                   20507690.1564
 11  8 15  1  4 30.0000000  0  8G12G25G10G17G05G09G04G02
 -31787539.57848 -24739617.10746  21122581.9774                   21122580.9454
   -290591.82447   -207476.66345  23398221.1564                   23398223.5124
 -42788600.86348 -33328792.54446  21146734.2274                   21146733.1564
 -86633032.21146 -67462248.86144  23817943.5474                   23817943.1844
 -22743183.93748 -17702740.44446  21439841.3054                   21439841.2234
 -32018927.19146 -24906862.96543  24580479.5864                   24580482.0394
 -63645983.39547 -49522478.78745  22511874.2894                   22511873.8914
 -53170014.57848 -41388192.84246  20789022.3594                   20789019.0784
 11  8 15  1  5  0.0000000  0  8G12G25G10G17G05G09G04G02
 -31931580.46948 -24851856.76246  21095172.3594                   21095171.1094
   -486663.50847   -360259.77145  23360909.8834                   23360913.1414
 -42869258.05148 -33391642.31046  21131385.8054                   21131385.1764
 -86679526.04746 -67498477.85244  23809095.9534                   23809096.5744
 -22925179.07848 -17844554.80346  21405208.8284                   21405208.3134
 -32043566.07246 -24926062.14743  24575790.9844                   24575792.7974
 -63672917.60547 -49543466.50945  22506748.6094                   22506748.7034
 -53266759.15648 -41463578.24946  20770612.2504                   20770609.2704
 11  8 15  1  5 30.0000000  0  8G12G25G10G17G05G09G04G02
 -32075047.62148 -24963649.36346  21067871.1174                   21067869.9804
   -682385.41447   -512770.32645  23323665.8364                   23323668.2274
 -42949256.63348 -33453978.86946  21116162.2504                   21116161.6214
 -86725797.00447 -67534533.19744  23800291.1414                   23800292.4384
 -23106703.86348 -17986002.65246  21370666.0634                   21370665.5044
 -32068154.93046 -24945222.34143  24571111.4924                   24571113.6374
 -63699745.78147 -49564371.62145  22501643.8284                   22501643.6524
 -53363218.94148 -41538741.73346  20752256.7974                   20752253.6604
 11  8 15  1  6  0.0000000  0  8G12G25G10G17G05G09G04G02
 -32217936.40248 -25074991.27446  21040680.5164                   21040679.4494
   -877751.86747   -665003.91645  23286488.3914                   23286491.0474
 -43028595.00048 -33515800.97946  21101064.7974                   21101064.2464
 -86771842.04746 -67570412.46544  23791529.0234                   23791530.0744
 -23287752.93448 -18127079.82346  21336213.4844                   21336212.8014
 -32092693.87546 -24964343.73143  24566441.9224                   24566444.2344
 -63726466.73447 -49585193.19245  22496558.7114                   22496558.8054
 -53459392.27048 -41613682.00446  20733955.4064                   20733952.6684
 11  8 15  1  6 30.0000000  0  8G12G25G10G17G05G09G04G02
 -32360244.37148 -25185880.60646  21013599.8674                   21013598.6724
  -1072759.96947   -816958.27545  23249379.5554                   23249381.4064
 -43107273.85548 -33577109.19146  21086092.6094                   21086091.9844
 -86817660.46946 -67606115.14544  23782810.1884                   23782810.8204
 -23468323.59448 -18267784.19746  21301851.6804                   21301851.4144
 -32117185.85546 -24983428.49843  24561782.5474                   24561784.3554
 -63753081.53147 -49605932.02445  22491493.7814                   22491494.6214
 -53555279.94148 -41688399.67646  20715708.7814                   20715706.1524
 11  8 15  1  7  0.0000000  0  8G12G25G10G17G05G09G04G02
 -32501972.51248 -25296318.12446  20986629.7274                   20986629.0084
  -1267408.51647   -968632.46945  23212339.3134                   23212341.0434
 -43185295.69148 -33637905.44246  21071245.5314                   21071244.5164
 -86863253.57446 -67641642.27644  23774133.7504                   23774134.0784
 -23648414.75048 -18408114.92946  21267581.5394                   21267581.2274
 -32141635.60246 -25002480.28843  24557128.9144                   24557131.2664
 -63779593.08647 -49626590.39045  22486449.2194                   22486448.9964
 -53650884.94548 -41762897.09547  20697515.7344                   20697512.5904
 11  8 15  1  7 30.0000000  0  8G12G25G10G17G05G09G04G02
 -32643119.57848 -25406302.85246  20959770.4224                   20959769.7304
  -1461695.30147  -1120024.79245  23175367.4774                   23175369.7934
 -43262662.09848 -33698190.94946  21056523.2814                   21056522.5234
 -86908621.48846 -67676993.84444  23765500.5864                   23765500.2814
 -23828024.69148 -18548070.68746  21233402.8754                   21233402.2934
 -32166046.56646 -25021501.95543  24552484.3364                   24552487.1524
 -63806003.68747 -49647170.09445  22481423.7034                   22481423.4024
 -53746208.62148 -41837175.29346  20679376.1024                   20679373.2504
 11  8 15  1  8  0.0000000  0  8G12G25G10G17G05G09G04G02
 -32783683.80948 -25515833.41546  20933021.9384                   20933021.5274
  -1655617.84447  -1271133.22245  23138465.5784                   23138467.6844
 -43339374.34448 -33757966.73446  21041925.3594                   21041924.7544
 -86953764.28146 -67712170.05744  23756909.8524                   23756909.8984
 -24007151.56248 -18687650.03546  21199316.3914                   21199315.9454
 -32190421.94546 -25040495.87343  24547845.9534                   24547848.2114
 -63832314.69147 -49667672.20045  22476416.6564                   22476416.6174
 -53841252.33248 -41911235.33846  20661289.9924                   20661287.2584
 11  8 15  1  8 30.0000000  0  8G12G25G10G17G05G09G04G02
 -32923663.65648 -25624908.63146  20906384.6884                   20906383.5394
  -1849173.46947  -1421955.77145  23101632.6564                   23101634.8404
 -43415433.75848 -33817233.81546  21027451.8984                   21027451.1564
 -86998681.33646 -67747170.39044  23748362.6414                   23748363.8164
 -24185792.45748 -18826850.68846  21165321.8524                   21165321.8284
 -32214764.93046 -25059464.47543  24543212.7344                   24543215.9964
 -63858527.64847 -49688097.89445  22471428.2504                   22471429.1214
 -53936017.06648 -41985077.99046  20643256.8594                   20643254.1214
 11  8 15  1  9  0.0000000  0  8G12G25G10G17G05G09G04G02
 -33063056.87548 -25733526.72646  20879859.5784                   20879858.4344
  -2042358.67647  -1572489.70045  23064871.1094                   23064872.4414
 -43490840.61748 -33875992.42146  21013102.3204                   21013101.4454
 -87043371.88646 -67781994.26244  23739858.5474                   23739859.7734
 -24363944.03948 -18965670.06746  21131420.8204                   21131420.4144
 -32239077.84046 -25078409.73243  24538586.7344                   24538589.6994
 -63884643.21147 -49708447.73745  22466458.6024                   22466459.2154
 -54030503.43748 -42058703.74447  20625277.0164                   20625274.0274
 11  8 15  1  9 30.0000000  0  8G12G25G10G17G05G09G04G02
 -33201863.76648 -25841687.94546  20853445.0784                   20853444.0984
  -2235172.42247  -1722734.15944  23028179.2114                   23028181.2464
 -43565597.79748 -33934244.77446  20998876.5084                   20998875.5164
 -87087837.10546 -67816642.43744  23731397.5084                   23731397.2584
 -24541606.13748 -19104108.04046  21097612.8674                   21097612.2894
 -32263365.26247 -25097335.04644  24533964.8284                   24533967.2194
 -63910664.46547 -49728724.08145  22461507.0864                   22461507.4654
 -54124713.98448 -42132114.56547  20607349.1564                   20607346.1764
 11  8 15  1 10  0.0000000  0  8G12G25G10G17G05G09G04G02
 -33340080.62948 -25949389.40546  20827143.4924                   20827142.3674
  -2427609.99647  -1872685.47545  22991559.9304                   22991561.6524
 -43639704.54748 -33991990.30346  20984774.2194                   20984774.0234
 -87132074.65646 -67851113.20244  23722979.5704                   23722978.6844
 -24718774.21948 -19242161.04746  21063898.7584                   21063898.5664
 -32287628.34847 -25116241.45843  24529348.2424                   24529351.0664
 -63936590.75447 -49748926.39344  22456573.5634                   22456573.5274
 -54218647.90248 -42205309.82546  20589474.1804                   20589471.2894
 11  8 15  1 10 30.0000000  0  8G12G25G10G17G05G09G04G02
 -33477707.02048 -26056630.73446  20800954.0084                   20800953.1294
  -2619669.44147  -2022342.17045  22955011.9924                   22955014.5474
 -43713162.66848 -34049230.39546  20970796.0004                   20970795.3054
 -87176084.92646 -67885406.94144  23714604.0704                   23714604.0084
 -24895446.34848 -19379827.60346  21030279.1724                   21030278.9384
 -32311870.80946 -25135131.79043  24524734.6414                   24524738.0084
 -63962424.33647 -49769056.47645  22451657.2194                   22451657.6844
 -54312307.13748 -42278291.04446  20571651.4144                   20571648.5394
 11  8 15  1 11  0.0000000  0  8G12G25G10G17G05G09G04G02
 -33614741.07848 -26163410.52546  20774877.0164                   20774875.9614
  -2811347.53547  -2171701.70245  22918537.6564                   22918539.7464
 -43785972.83648 -34105965.60446  20956940.4694                   20956939.8094
 -87219866.77046 -67919522.63444  23706273.0234                   23706273.4924
 -25071619.89848 -19517105.65246  20996754.4844                   20996754.0864
 -32336094.93746 -25154007.83343  24520124.8284                   24520127.6414
 -63988166.06247 -49789115.01845  22446758.6804                   22446759.5234
 -54405692.21148 -42351058.63346  20553880.7974                   20553878.2034
 11  8 15  1 11 30.0000000  0  8G12G25G10G17G05G09G04G02
 -33751185.11748 -26269730.54046  20748912.9924                   20748911.7274
  -3002645.66447  -2320765.15045  22882134.3204                   22882136.7544
 -43858140.50448 -34162200.16146  20943207.5314                   20943207.1024
 -87263424.47746 -67953463.73244  23697983.7664                   23697984.9574
 -25247296.29348 -19653996.31746  20963324.5084                   20963324.0904
 -32360307.93746 -25172875.26143  24515516.9384                   24515520.2624
 -64013821.23847 -49809106.10645  22441877.5234                   22441877.2034
 -54498808.21948 -42423616.56046  20536161.2194                   20536158.7344
 11  8 15  1 12  0.0000000  0  8G12G25G10G17G05G09G04G02
 -32311613.05548 -25147986.07446  21022853.9924                   21022853.1724
  -1618134.48847  -1241925.26845  23145598.1484                   23145600.2664
 -42354244.46948 -32990333.13646  21229389.7274                   21229388.7734
 -85731335.89147 -66759628.47444  23989531.0864                   23989531.7074
 -23847047.28548 -18562893.15746  21229782.9224                   21229782.1024
 -30809091.70346 -23964135.42243  24810704.5784                   24810706.7274
 -62463970.30947 -48601430.06245  22736804.2894                   22736803.9454
 -53016233.00048 -41268363.13946  20818286.2114                   20818283.2504
 11  8 15  1 12 30.0000000  0  8G12G25G10G17G05G09G04G02
 -32446870.21548 -25253381.25646  20997115.7504                   20997114.8054
  -1808661.70747  -1390388.01045  23109342.0554                   23109344.4574
 -42425128.20748 -33045567.22046  21215900.5474                   21215900.1054
 -85774441.08647 -66793216.96444  23981328.1644                   23981329.4614
 -24021720.15648 -18699001.84846  21196544.0394                   21196543.2464
 -30833288.40646 -23982990.13743  24806099.8674                   24806103.4654
 -62489453.79747 -48621287.35445  22731954.7584                   22731955.3874
 -53108811.52048 -41340502.25446  20800668.8674                   20800665.7774
 11  8 15  1 13  0.0000000  0  8G12G25G10G17G05G09G04G02
 -32581529.78948 -25358310.77447  20971490.8284                   20971489.9614
  -1998797.44947  -1538545.70845  23073160.8364                   23073161.9844
 -42495369.98848 -33100301.07946  21202534.2504                   21202533.4534
 -85817317.62947 -66826627.27144  23973169.0554                   23973169.3634
 -24195885.75048 -18834715.24846  21163400.9384                   21163400.4614
 -30857479.30945 -24001840.26543  24801496.4304                   24801500.3244
 -62514851.26647 -48641077.60645  22727121.9534                   22727122.2424
 -53201120.87548 -41412431.61646  20783102.8204                   20783100.2664
 11  8 15  1 13 30.0000000  0  8G12G25G10G17G05G09G04G02
 -32715590.93748 -25462773.99646  20945979.9694                   20945978.7894
  -2188539.31247  -1686396.49245  23037053.6334                   23037055.2704
 -42564971.60548 -33154536.11546  21189289.5004                   21189288.4694
 -85859965.59846 -66859859.45344  23965053.5784                   23965052.8984
 -24369541.91848 -18970031.71246  21130355.3834                   21130355.0314
 -30881667.77745 -24020688.55543  24796892.8754                   24796897.1914
 -62540164.64147 -48660802.32945  22722305.1024                   22722305.6764
 -53293162.48048 -41484152.35146  20765588.0704                   20765585.2194
 11  8 15  1 14  0.0000000  0  8G12G25G10G17G05G09G04G02
 -32849047.87148 -25566766.40246  20920583.4384                   20920582.7734
  -2377880.33647  -1833934.94445  23001023.4924                   23001024.9264
 -42633929.95748 -33208269.90346  21176166.9064                   21176166.1054
 -85902380.17646 -66892909.81044  23956982.4144                   23956982.5514
 -24542682.33648 -19104946.28646  21097407.9534                   21097407.3094
 -30905852.39845 -24039533.78743  24792290.4454                   24792294.8204
 -62565390.61347 -48680458.96445  22717504.5784                   22717504.8524
 -53384932.89148 -41555661.75146  20748124.5004                   20748121.9884
 11  8 15  1 14 30.0000000  0  8G12G25G10G17G05G09G04G02
 -32981902.38748 -25670289.39347  20895302.2194                   20895301.2704
  -2566821.00447  -1981161.41645  22965068.4774                   22965070.6454
 -42702249.76648 -33261506.12746  21163165.9614                   21163165.6684
 -85944564.61346 -66925780.80244  23948954.5394                   23948955.3524
 -24715307.90248 -19239459.68046  21064558.0084                   21064557.4104
 -30930039.19946 -24058380.72643  24787688.4614                   24787691.9064
 -62590533.80947 -48700051.07644  22712720.0634                   22712720.2154
 -53476436.90648 -41626963.56546  20730712.0004                   20730709.2304
 11  8 15  1 15  0.0000000  0  8G12G25G10G17G05G09G04G02
 -33114153.52748 -25773342.21746  20870135.5944                   20870134.9654
  -2755358.98447  -2128074.10545  22929191.4064                   22929193.3284
 -42769932.82048 -33314246.17746  21150286.2894                   21150285.4804
 -85986518.62546 -66958472.29544  23940970.5474                   23940971.7234
 -24887416.52348 -19373570.24946  21031807.1094                   21031806.3714
 -30954231.61746 -24077232.06943  24783084.5084                   24783089.2424
 -62615595.90647 -48719580.01644  22707950.5084                   22707950.7894
 -53567675.45348 -41698058.53646  20713349.9454                   20713347.0314
 11  8 15  1 15 30.0000000  0  8G12G25G10G17G05G09G04G02
 -33245799.72748 -25875923.64846  20845084.6024                   20845083.2624
  -2943491.59847  -2274670.94845  22893390.7504                   22893392.7624
 -42836980.40648 -33366491.06346  21137527.6644                   21137527.0664
 -86028242.02046 -66990984.08544  23933031.1484                   23933032.5164
 -25059005.98448 -19507276.29146  20999154.4144                   20999153.9454
 -30978432.64146 -24096090.11743  24778479.7194                   24778483.5784
 -62640578.14147 -48739046.69844  22703196.7504                   22703197.0164
 -53658649.60548 -41768947.48146  20696038.1644                   20696035.2234
 11  8 15  1 16  0.0000000  0  8G12G25G10G17G05G09G04G02
 -33376841.11748 -25978033.80646  20820147.9224                   20820146.8874
  -3131216.84847  -2420950.33545  22857668.0474                   22857670.0314
 -42903394.75848 -33418242.51146  21124889.7344                   21124888.8284
 -86069735.38346 -67023316.62444  23925135.7344                   23925136.5314
 -25230074.96548 -19640576.76246  20966601.0474                   20966600.5904
 -31002645.63746 -24114957.41943  24773872.9064                   24773876.3444
 -62665482.34447 -48758452.58744  22698457.6094                   22698458.1804
 -53749361.30548 -41839631.92046  20678776.4924                   20678773.4184
 11  8 15  1 16 30.0000000  0  8G12G25G10G17G05G09G04G02
 -33507276.55548 -26079671.82346  20795327.0704                   20795326.2934
  -3318532.39147  -2566910.48045  22822022.9924                   22822025.3914
 -42969177.50048 -33469501.80546  21112371.6484                   21112370.9104
 -86110998.66846 -67055469.82444  23917283.3674                   23917284.2424
 -25400621.54348 -19773470.17046  20934147.0394                   20934146.2154
 -31026873.82046 -24133836.70043  24769261.7504                   24769266.0634
 -62690309.98847 -48777798.83044  22693733.1334                   22693733.8094
 -53839812.01248 -41910112.97446  20661564.0164                   20661560.9694
 11  8 15  1 17  0.0000000  0  8G12G25G10G17G05G09G04G02
 -33637106.59848 -26180838.07347  20770621.0634                   20770620.1454
  -3505437.43447  -2712550.77145  22786456.2194                   22786458.1484
 -43034332.24648 -33520271.75645  21099972.7504                   21099972.2704
 -86152033.36346 -67087444.92344  23909474.5944                   23909475.1134
 -25570645.30548 -19905956.18746  20901792.7584                   20901792.3324
 -31051122.07446 -24152731.47643  24764648.4534                   24764651.8874
 -62715064.25847 -48797087.87244  22689022.7034                   22689023.7074
 -53930004.47348 -41980392.80746  20644400.8204                   20644397.8554
 11  8 15  1 17 30.0000000  0  8G12G25G10G17G05G09G04G02
 -33766328.72348 -26281530.62046  20746031.2114                   20746030.1454
  -3691927.89847  -2857868.00145  22750968.1334                   22750970.3554
 -43098859.21548 -33570552.51046  21087694.1094                   21087693.4694
 -86192838.00846 -67119240.80244  23901709.9064                   23901710.2704
 -25740142.59048 -20038031.96246  20869538.4144                   20869537.6564
 -31075391.60947 -24171642.86543  24760030.4144                   24760033.1374
 -62739745.08247 -48816319.73845  22684326.5004                   22684326.8484
 -54019938.35248 -42050471.15246  20627287.5234                   20627284.1054
 11  8 15  1 18  0.0000000  0  7G12G25G10G17G05G04G02
 -33894943.10548 -26381749.61946  20721556.4924                   20721554.8444
  -3878002.85947  -3002861.45745  22715559.1414                   22715561.4104
 -43162761.75048 -33620346.70346  21075533.8834                   21075532.9024
 -86233413.84447 -67150858.33644  23893988.7424                   23893989.7774
 -25909113.21548 -20169697.34746  20837384.4844                   20837384.0274
 -62764355.32047 -48835496.57144  22679642.8524                   22679643.8634
 -54109616.53548 -42120350.25546  20610222.1024                   20610219.0864
 11  8 15  1 18 30.0000000  0  7G12G25G10G17G05G04G02
 -34022944.57048 -26481491.01546  20697198.8364                   20697197.4574
  -4063655.13347  -3147525.55645  22680230.6334                   22680232.9734
 -43226036.53948 -33669651.73046  21063492.9384                   21063492.4224
 -86273756.10247 -67182293.89344  23886312.2424                   23886312.2234
 -26077550.35548 -20300947.02746  20805331.5634                   20805331.4844
 -62788891.56647 -48854615.74644  22674974.0704                   22674974.3054
 -54199035.46548 -42190027.33646  20593206.0164                   20593203.1294
 11  8 15  1 19  0.0000000  0  7G12G25G10G17G05G04G02
 -34150326.45348 -26580749.62646  20672958.7344                   20672957.4804
  -4248876.68747  -3291854.04245  22644984.7114                   22644986.2544
 -43288680.10948 -33718464.90846  21051572.3754                   21051571.5234
 -86313859.33647 -67213543.13443  23878680.7814                   23878679.6954
 -26245446.52347 -20431775.17346  20773382.3364                   20773381.7854
 -62813349.66447 -48873674.02944  22670319.6254                   22670319.6954
 -54288190.51248 -42259498.79046  20576240.4454                   20576237.4924
 11  8 15  1 19 30.0000000  0  7G12G25G10G17G05G04G02
 -32701658.18448 -25451917.21746  20948630.8984                   20948630.0234
  -2858233.98847  -2208236.34745  22909614.8524                   22909616.4454
 -41775266.87548 -32539181.86746  21339564.9924                   21339564.6844
 -84778297.04347 -66017001.08743  24170888.6094                   24170887.7734
 -24837369.25448 -19334572.07046  21041330.4384                   21041330.0864
 -61262305.25047 -47665068.03044  22965474.2034                   22965473.8484
 -52801655.30548 -41101159.66846  20859118.9454                   20859115.7424
 11  8 15  1 20  0.0000000  0  7G12G25G10G17G05G04G02
 -32827790.08648 -25550201.81246  20924628.8984                   20924627.9104
  -3042578.84047  -2351881.68045  22874535.2974                   22874536.9494
 -41836645.21948 -32587009.17446  21327885.1334                   21327885.0204
 -84817914.02347 -66047871.50344  24163349.3674                   24163349.6454
 -25004169.77748 -19464546.45946  21009589.0944                   21009588.6294
 -61286603.22747 -47684001.50744  22960850.2274                   22960850.6054
 -52890279.24248 -41170217.28546  20842254.1724                   20842251.1604
 11  8 15  1 20 30.0000000  0  7G12G25G10G17G05G04G02
 -32953296.23048 -25647998.82546  20900745.9774                   20900744.4964
  -3226482.00847  -2495182.86945  22839539.7274                   22839541.7854
 -41897394.43748 -32634346.22246  21316324.7274                   21316324.6174
 -84857288.38347 -66078552.84543  24155857.1954                   24155856.9384
 -25170420.04747 -19594092.08646  20977952.7894                   20977952.2814
 -61310823.40647 -47702874.38144  22956240.7814                   22956241.1484
 -52978639.32048 -41239069.29346  20825439.8054                   20825436.9574
 11  8 15  1 21  0.0000000  0  7G12G25G10G17G05G04G02
 -33078182.05948 -25745312.47446  20876980.8524                   20876979.6054
  -3409947.60947  -2638143.04345  22804627.0234                   22804629.8364
 -41957522.45747 -32681199.22846  21304882.8524                   21304882.3524
 -84896426.30547 -66109049.89944  24148409.0164                   24148409.8244
 -25336124.72747 -19723212.58346  20946419.8364                   20946419.6724
 -61334973.75447 -47721692.84644  22951645.4614                   22951645.7544
 -53066743.65648 -41307722.02246  20808674.0634                   20808671.1644
 11  8 15  1 21 30.0000000  0  7G12G25G10G17G05G04G02
 -33202446.74648 -25842142.10547  20853333.9774                   20853333.0984
  -3592973.29347  -2780760.44045  22769799.0944                   22769800.7734
 -42017031.21947 -32727569.70146  21293558.8364                   21293558.3484
 -84935328.04347 -66139362.91343  24141007.4534                   24141006.5314
 -25501282.05547 -19851906.56346  20914991.9144                   20914991.3244
 -61359055.65647 -47740458.00244  22947062.8594                   22947063.2814
 -53154593.59848 -41376176.50546  20791956.8524                   20791953.7154
 11  8 15  1 22  0.0000000  0  7G12G25G10G17G05G04G02
 -33326091.50448 -25938488.67846  20829805.5474                   20829804.3794
  -3775558.46147  -2923034.57545  22735054.0474                   22735055.9144
 -42075924.87547 -32773460.87346  21282351.5784                   21282351.5664
 -84973995.14546 -66169493.15043  24133648.8754                   24133648.1844
 -25665892.07448 -19980174.08046  20883667.5004                   20883667.0124
 -61383072.24247 -47759172.26444  22942492.6414                   22942493.1884
 -53242192.03148 -41444435.03046  20775287.1804                   20775284.3244
 11  8 15  1 22 30.0000000  0  7G12G25G10G17G05G04G02
 -33449117.04348 -26034352.75946  20806394.4774                   20806393.3874
  -3957702.25447  -3064964.78845  22700393.0784                   22700395.2424
 -42134206.86747 -32818875.40846  21271261.2344                   21271260.7464
 -85012429.46546 -66199442.02943  24126332.9614                   24126335.2504
 -25829954.55148 -20108014.93246  20852447.1954                   20852446.5784
 -61407026.19147 -47777837.71444  22937934.4144                   22937934.9064
 -53329541.66448 -41512499.67646  20758665.3984                   20758662.3984
 11  8 15  1 23  0.0000000  0  7G12G25G10G17G05G04G02
 -33571522.44548 -26129733.60546  20783101.3754                   20783100.3594
  -4139401.97347  -3206548.98445  22665816.5864                   22665818.5274
 -42191878.48447 -32863814.33646  21260286.6954                   21260286.4964
 -85050630.49245 -66229209.11943  24119063.8674                   24119065.4414
 -25993467.33648 -20235427.45746  20821331.6884                   20821331.3674
 -61430918.57447 -47796455.17944  22933387.8674                   22933388.5744
 -53416643.56648 -41580371.30646  20742090.2274                   20742087.5474
 11  8 15  1 23 30.0000000  0  7G12G25G10G17G05G04G02
 -33693307.58248 -26224631.13146  20759926.2734                   20759925.2504
  -4320656.06247  -3347785.92145  22631325.3284                   22631327.1024
 -42248942.75848 -32908280.02346  21249427.7974                   21249427.3364
 -85088599.17646 -66258795.22443  24111839.0394                   24111840.6994
 -26156429.51248 -20362410.93846  20790320.9614                   20790320.9924
 -61454751.53547 -47815026.36544  22928852.4144                   22928853.1414
 -53503499.68748 -41648051.38946  20725562.2584                   20725559.1254
 11  8 15  1 24  0.0000000  0  7G12G25G10G17G05G04G02
 -33814472.83248 -26319045.62446  20736869.4844                   20736868.3874
  -4501463.78947  -3488675.04345  22596918.7734                   22596921.3444
 -42305403.32847 -32952275.27346  21238683.8364                   21238682.9964
 -85126336.94946 -66288201.32144  24104659.0084                   24104659.5044
 -26318840.95348 -20488965.26846  20759415.3594                   20759414.8284
 -61478527.96947 -47833553.49744  22924327.2814                   22924327.7974
 -53590112.77348 -41715542.10746  20709080.5944                   20709077.5824
 11  8 15  1 24 30.0000000  0  7G12G25G10G17G05G04G02
 -33935017.06248 -26412976.21146  20713930.6414                   20713929.7974
  -4681821.03147  -3629213.13445  22562597.6564                   22562600.1334
 -42361260.44947 -32995800.32346  21228054.4844                   21228053.4884
 -85163842.62146 -66317426.54344  24097521.4224                   24097522.6914
 -26480698.29748 -20615087.84346  20728614.9844                   20728614.4694
 -61502247.49647 -47852036.26044  22919814.0084                   22919814.6954
 -53676482.36348 -41782843.09346  20692644.6724                   20692641.8874
 11  8 15  1 25  0.0000000  0  7G12G25G10G17G05G04G02
 -34054940.22348 -26506422.83046  20691110.1174                   20691109.1524
  -4861726.63747  -3769399.28245  22528362.8594                   22528365.5554
 -42416517.30147 -33038857.60946  21217539.2814                   21217538.7464
 -85201117.20347 -66346471.74244  24090427.9384                   24090428.8794
 -26642000.73048 -20740778.01946  20697920.3204                   20697919.8094
 -61525912.25047 -47870476.38744  22915310.9534                   22915311.8794
 -53762610.75848 -41849956.12946  20676254.8914                   20676252.4144
 11  8 15  1 25 30.0000000  0  7G12G25G10G17G05G04G02
 -34174240.81248 -26599384.34546  20668407.7274                   20668407.1214
  -5041177.42247  -3909231.05445  22494214.7664                   22494216.8164
 -42471175.32447 -33081448.29446  21207138.3204                   21207138.0554
 -85238159.79746 -66375336.09244  24083379.3594                   24083380.5704
 -26802746.00448 -20866034.02946  20667331.1884                   20667330.6524
 -61549522.84847 -47888874.29744  22910818.3914                   22910818.8914
 -53848498.57048 -41916881.68946  20659911.1024                   20659908.3714
 11  8 15  1 26  0.0000000  0  7G12G25G10G17G05G04G02
 -34292919.77748 -26691861.45646  20645824.0784                   20645823.1684
  -5220172.85547  -4048708.00945  22460153.0944                   22460154.5084
 -42525238.44947 -33123575.40546  21196850.4304                   21196850.0944
 -85274972.32447 -66404021.23544  24076374.5554                   24076375.3834
 -26962934.49248 -20990856.20146  20636848.3524                   20636847.8014
 -61573082.43047 -47907232.41444  22906335.6804                   22906335.8364
 -53934148.64848 -41983622.01946  20643612.3054                   20643610.0044
 11  8 15  1 26 30.0000000  0  7G12G25G10G17G05G04G02
 -32835552.52048 -25556250.60846  20923151.8054                   20923150.6764
  -3823284.35547  -2960223.43845  22725971.8594                   22725973.4144
 -41003286.35247 -31937638.71746  21486468.0784                   21486467.6254
 -83736133.37147 -65204925.96944  24369205.6414                   24369206.5394
 -25547138.69548 -19887638.66446  20906265.3674                   20906264.7584
 -60021170.95347 -46697950.76744  23201654.1884                   23201654.3834
 -52444139.13748 -40822575.65246  20927151.9384                   20927149.4224
 11  8 15  1 27  0.0000000  0  7G12G25G10G17G05G04G02
 -32952987.08648 -25647758.07546  20900805.0474                   20900803.8984
  -4001361.79347  -3098985.07345  22692084.7424                   22692086.6644
 -41056165.19947 -31978843.02846  21476406.1174                   21476405.0164
 -83772485.69547 -65233252.47144  24362288.0704                   24362288.8634
 -25706207.66448 -20011588.47946  20875995.4924                   20875994.9734
 -60044631.30947 -46716231.59744  23197190.4304                   23197189.4024
 -52529317.25848 -40888948.21846  20910943.2274                   20910940.1994
 11  8 15  1 27 30.0000000  0  7G12G25G10G17G05G04G02
 -33069800.72348 -25738781.68346  20878575.6254                   20878574.8634
  -4178979.18047  -3237388.22145  22658285.2664                   22658287.5554
 -41108457.75448 -32019590.49145  21466455.0394                   21466454.3634
 -83808610.44547 -65261401.65144  24355414.0314                   24355414.5704
 -25864717.07447 -20135102.27446  20845832.3364                   20845831.2424
 -60068046.55546 -46734477.27244  23192733.8284                   23192733.4694
 -52614263.16848 -40955139.84446  20894777.9454                   20894775.5944
 11  8 15  1 28  0.0000000  0  7G12G25G10G17G05G04G02
 -33185991.69948 -25829320.10646  20856465.5554                   20856464.4454
  -4356132.91447  -3375430.06445  22624574.1024                   22624576.7034
 -41160164.80148 -32059881.69946  21456615.3754                   21456614.9884
 -83844506.23447 -65289372.42544  24348583.4774                   24348584.0554
 -26022663.71548 -20258177.55146  20815776.0164                   20815775.3244
 -60091416.32447 -46752687.52044  23188286.8364                   23188287.2344
 -52698977.15248 -41021150.73946  20878657.9534                   20878655.0664
 11  8 15  1 28 30.0000000  0  8G12G25G10G17G05G29G04G02
 -33301561.07047 -25919374.16446  20834473.3984                   20834472.3014
  -4532822.46947  -3513110.25145  22590951.1564                   22590953.6724
 -41211290.36348 -32099719.81246  21446886.5004                   21446885.9614
 -83880175.24647 -65317166.46844  24341795.5864                   24341796.8404
 -26180048.14148 -20380814.73146  20785826.7034                   20785826.0554
  20210286.66856  15764553.29053  24714436.4454                   24714436.6684
 -60114743.76646 -46770864.77844  23183847.0394                   23183847.9414
 -52783461.96948 -41086983.06846  20862580.9454                   20862578.1174
 11  8 15  1 29  0.0000000  0  8G12G25G10G17G05G29G04G02
 -33416514.89848 -26008948.58047  20812598.2114                   20812597.5314
  -4709051.35247  -3650431.46745  22557416.2424                   22557418.0204
 -41261842.28948 -32139110.93646  21437266.7974                   21437266.3284
 -83915623.19946 -65344788.32043  24335049.8054                   24335051.0044
 -26336874.57047 -20503017.12246  20755983.6414                   20755982.9844
  20024452.14846  15619747.11043  24679073.5314                   24679072.8714
 -60138035.63746 -46789014.34443  23179414.5554                   23179415.2934
 -52867724.73848 -41152642.37046  20846546.2034                   20846543.2734
 11  8 15  1 29 30.0000000  0  8G12G25G10G17G05G29G04G02
 -33530859.78148 -26098048.49746  20790839.2814                   20790838.5864
  -4884824.57847  -3787397.63545  22523967.3444                   22523969.3164
 -41311830.21148 -32178062.58146  21427754.5864                   21427753.9654
 -83950857.34446 -65372243.51943  24328346.0554                   24328345.4414
 -26493148.92648 -20624789.31547  20726245.6884                   20726244.9614
  19838572.83646  15474906.12543  24643701.0704                   24643700.5044
 -60161300.59046 -46807142.92244  23174988.3914                   23174988.9024
 -52951773.70348 -41218135.06746  20830552.2584                   20830549.5274
 11  8 15  1 30  0.0000000  0  8G12G25G10G17G05G29G04G02
 -33644593.57848 -26186672.24447  20769196.6884                   20769195.4184
  -5060138.45347  -3924005.84945  22490606.3594                   22490608.7344
 -41361254.67648 -32216575.16246  21418349.1174                   21418348.7704
 -83985876.55146 -65399531.18443  24321681.2734                   24321680.6094
 -26648868.02048 -20746128.84046  20696613.0234                   20696612.5354
  19652650.34846  15330031.35542  24608320.5864                   24608320.9574
 -60184538.10946 -46825250.16844  23170567.2194                   23170566.5594
 -53035608.65248 -41283461.00946  20814598.9144                   20814595.9924
 11  8 15  1 30 30.0000000  0  8G12G25G10G17G05G29G04G02
 -33757715.88747 -26274819.49846  20747670.0704                   20747668.9264
  -5234990.59847  -4060254.27745  22457332.9454                   22457335.2114
 -41410117.79748 -32254650.33846  21409050.9694                   21409050.6604
 -84020680.75846 -65426651.32042  24315058.4694                   24315056.8284
 -26804030.18048 -20867034.38146  20667086.7424                   20667086.0664
  19466685.64146  15185123.69743  24572932.8984                   24572932.9574
 -60207749.23446 -46843336.75144  23166150.1564                   23166150.1564
 -53119230.89547 -41348621.21446  20798686.0704                   20798683.2664
 11  8 15  1 31  0.0000000  0  8G12G25G10G17G05G29G04G02
 -33870221.40247 -26362486.14047  20726261.0394                   20726260.3134
  -5409373.70747  -4196137.23145  22424149.2814                   22424150.8284
 -41458416.88348 -32292286.01246  21399860.2424                   21399859.8754
                                  24308475.2584                   24308475.7814
 -26958629.01648 -20987500.97647  20637667.1954                   20637666.7424
  19280684.45746  15040187.77743  24537537.7504                   24537538.9304
 -60230929.91446 -46861399.66844  23161738.6644                   23161738.9924
 -53202636.32847 -41413612.47146  20782814.6724                   20782811.5944
 11  8 15  1 31 30.0000000  0  8G12G25G10G17G05G29G04G02
 -33982108.38347 -26449670.81446  20704969.6254                   20704968.4494
  -5583284.17247  -4331651.89945  22391055.2114                   22391056.2854
 -41506153.34847 -32329483.25445  21390775.9144                   21390775.6804
 -84089628.36755 -65480376.92652  24301937.6724                   24301937.8284
 -27112661.82848 -21107526.51047  20608355.9614                   20608355.2234
  19094648.06346  14895224.36443  24502136.0394                   24502138.2154
 -60254080.26246 -46879438.97144  23157333.0784                   23157333.3914
 -53285824.59847 -41478434.50546  20766984.4774                   20766981.5394
 11  8 15  1 32  0.0000000  0  8G12G25G10G17G05G29G04G02
 -34093376.86748 -26536373.54646  20683795.7734                   20683794.9384
  -5756720.04747  -4466796.75245  22358051.1334                   22358052.8404
 -41553329.39847 -32366243.84046  21381798.8444                   21381798.1954
 -84123770.87545 -65506981.50442  24295440.1724                   24295441.6724
 -27266127.41448 -21227110.05547  20579152.3754                   20579152.0864
  18908577.10246  14750233.97843  24466728.6564                   24466730.2384
 -60277201.44947 -46897455.51544  23152933.3984                   23152933.5864
 -53368797.22348 -41543088.49946  20751195.2894                   20751192.9144
 11  8 15  1 32 30.0000000  0  8G12G25G10G17G05G29G04G02
 -34204027.20748 -26622594.60046  20662739.9384                   20662738.9454
  -5929680.00047  -4601570.75445  22325138.6254                   22325140.4614
 -41599948.16447 -32402570.15946  21372927.2274                   21372927.0634
 -84157693.60546 -65533414.78043  24288985.9844                   24288985.8754
 -27419025.16048 -21346251.12247  20550056.8524                   20550056.3404
  18722471.11746  14605216.26543  24431314.3524                   24431315.4734
 -60300295.30146 -46915450.72744  23148538.2424                   23148538.7974
 -53451556.37548 -41607576.16446  20735446.5864                   20735443.9924
 11  8 15  1 33  0.0000000  0  8G12G25G10G17G05G29G04G02
 -34314058.71548 -26708333.46646  20641801.4304                   20641800.4344
  -6102160.91847  -4735971.48245  22292316.2504                   22292318.6484
 -41646011.07048 -32438463.35146  21364161.8524                   21364161.3674
 -84191396.10546 -65559676.57443  24282572.5554                   24282572.7624
 -27571352.99648 -21464948.10947  20521070.0704                   20521069.2814
  18536331.28146  14460172.28043  24395893.0164                   24395893.9104
 -60323362.15246 -46933424.92944  23144148.9304                   23144149.1564
 -53534101.92648 -41671897.37546  20719738.6334                   20719735.8914
 11  8 15  1 33 30.0000000  0  8G12G25G10G17G05G29G04G02
 -34423471.33648 -26793590.08146  20620981.1414                   20620980.2424
  -6274161.15247  -4869997.64145  22259585.3444                   22259587.3754
 -41691521.02747 -32473925.66146  21355502.1024                   21355501.0824
 -84224878.74246 -65585766.96544  24276200.6254                   24276201.2074
 -27723109.91848 -21583200.23647  20492191.1334                   20492190.6844
  18350157.79346  14315101.98444  24360464.8834                   24360465.7664
 -60346403.56246 -46951379.27644  23139764.1804                   23139765.2384
 -53616435.79348 -41736053.63946  20704071.4924                   20704068.3284
 11  8 15  1 34  0.0000000  0  8G12G25G10G17G05G29G04G02
 -32956835.89548 -25650757.28246  20900072.3524                   20900071.4454
  -4870247.66447  -3776039.07245  22526741.5314                   22526742.8484
 -40161053.82047 -31281353.82245  21646740.0004                   21646739.2664
 -82682715.70746 -64384081.50444  24569665.8914                   24569665.7034
 -26298864.15648 -20473398.31647  20763216.3754   20763216.1954   19739382.33646
  15397614.62443                  24624826.0634                   24624826.4414
 -58793994.55146 -45741709.94044  23435178.1174                   23435178.8284
 -52123131.07848 -40572439.58546  20988237.5634                   20988234.9884
 11  8 15  1 34 30.0000000  0  8G12G25G10G17G05G29G04G02
 -33065000.59448 -25735041.48946  20879489.3204                   20879488.5744
  -5041270.60547  -3909303.70345  22494197.0394                   22494198.1684
 -40205455.87947 -31315952.84945  21638290.4224                   21638290.1094
 -82715749.80147 -64409822.40344  24563378.7344                   24563379.4454
 -26449466.02348 -20590750.38547  20734557.7274   20734557.2814   19553152.19946
  15252500.25343                  24589387.4454                   24589388.4024
 -58816978.77046 -45759619.73744  23430804.7114                   23430804.7854
 -52205035.35248 -40636261.10146  20972651.7344                   20972648.8054
 11  8 15  1 35  0.0000000  0  8G12G25G10G17G05G29G04G02
 -33172546.80948 -25818843.76246  20859024.0314                   20859023.3594
  -5211807.24247  -4042189.38645  22461744.7424                   22461746.5124
 -40249312.83247 -31350127.11745  21629944.8754                   21629944.1214
 -82748565.78947 -64435393.36144  24557134.4614                   24557135.3954
 -26599493.68448 -20707655.03847  20706008.7344   20706007.5204   19366889.06646
  15107360.15644                  24553942.1414                   24553943.9224
 -58839941.31647 -45777512.63644  23426434.8134                   23426435.0314
 -52286731.92248 -40699920.77946  20957105.4304                   20957102.7114
 11  8 15  1 35 30.0000000  0  8G12G25G10G17G05G29G04G02
 -33279472.89148 -25902162.79446  20838676.8524                   20838675.6334
  -5381853.86347  -4174693.23045  22429385.8754                   22429387.9534
 -40292625.87947 -31383877.54845  21621702.8134                   21621702.0664
 -82781162.12147 -64460793.12744  24550931.5944                   24550932.8754
 -26748944.68748 -20824110.33547  20677568.9224   20677568.1334   19180595.19946
  14962196.09144                  24518491.5234                   24518493.6804
 -58862881.96546 -45795388.49544  23422068.8914                   23422069.8324
 -52368220.50048 -40763418.37146  20941598.5634                   20941595.5554
 11  8 15  1 36  0.0000000  0  8G12G25G10G17G05G29G04G02
 -33385775.66448 -25984996.15446  20818448.1334                   20818447.0864
  -5551405.53147  -4306811.39245  22397121.2664                   22397123.1094
 -40335394.46147 -31417203.72945  21613564.2114                   21613563.3444
 -82813536.12547 -64486019.66644  24544770.5704                   24544772.2274
 -26897814.83648 -20940113.02347  20649240.0004   20649239.3444   18994273.66847
  14817010.52144                  24483036.8134                   24483037.6604
 -58885798.66447 -45813245.67044  23417708.4534                   23417708.8014
 -52449499.66048 -40826752.78446  20926131.7114                   20926128.6454
 11  8 15  1 36 30.0000000  0  8G12G25G10G17G05G29G04G02
 -33491456.90648 -26067345.18246  20798337.5864                   20798336.5204
  -5720461.53947  -4438543.30845  22364951.1484                   22364953.3524
 -40377622.43448 -31450108.65745  21605528.2504                   21605527.9144
 -82845689.63347 -64511074.37444  24538653.0784                   24538652.9414
 -27046104.52048 -21055663.39847  20621021.1644   20621020.3984   18807923.61347
  14671802.67144                  24447574.4924                   24447575.3014
 -58908694.13747 -45831086.31044  23413352.2344                   23413352.4774
 -52530571.65248 -40889925.76546  20910704.0474                   20910701.4844
 11  8 15  1 37  0.0000000  0  8G12G25G10G17G05G29G04G02
 -33596515.06248 -26149208.69246  20778346.0164                   20778344.9264
  -5889018.79348  -4569886.59145  22332875.3754                   22332877.6524
 -40419311.40647 -31482593.57245  21597595.2734                   21597594.9924
 -82877621.46947 -64535956.32144  24532575.7814                   24532576.7734
 -27193811.41448 -21170759.64747  20592913.3834   20592912.7504   18621546.93847
  14526574.17044                  24412108.7194                   24412108.4964
 -58931568.08247 -45848910.14344  23408999.1954                   23408999.6414
 -52611436.35248 -40952937.22346  20895316.3284                   20895313.5664
 11  8 15  1 37 30.0000000  0  7G12G25G10G05G29G04G02
 -33700951.00048 -26230587.35846  20758472.1724                   20758471.1134
  -6057075.93447  -4700840.16145  22300895.1334                   22300897.1334
 -40460464.41048 -31514660.86745  21589763.8834                   21589763.4224
 -27340935.00047 -21285401.37547  20564916.9534   20564916.0554   18435143.29347
  14381324.62143                  24376637.2584                   24376637.4064
 -58954422.37547 -45866718.72144  23404649.6644                   23404650.5234
 -52692095.75448 -41015788.71346  20879967.4614                   20879964.3324
 11  8 15  1 38  0.0000000  0  7G12G25G10G05G29G04G02
 -33804767.32847 -26311483.20346  20738716.6884                   20738715.5704
  -6224633.70748  -4831404.63445  22269010.1254                   22269011.5704
 -40501086.90248 -31546314.75945  21582033.8594                   21582033.6254
 -27487477.10248 -21399590.00147  20537030.7424   20537029.9414   18248710.57446
  14236052.42643                  24341159.0314                   24341160.2974
 -58977260.88347 -45884514.92344  23400304.3134                   23400304.2274
 -52772553.78148 -41078483.28046  20864656.7194                   20864653.7774
 11  8 15  1 38 30.0000000  0  7G12G25G10G05G29G04G02
 -33907956.64547 -26391890.47646  20719080.5314                   20719079.3634
  -6391682.19547  -4961572.26045  22237222.0554                   22237223.3674
 -40541173.41448 -31577551.03545  21574405.5704                   21574405.3014
 -27633428.34848 -21513318.21147  20509257.2194   20509256.4694   18062257.10946
  14090764.01343                  24305678.5394                   24305679.3524
 -59000076.42647 -45902293.31344  23395962.3754                   23395962.6994
 -52852803.59048 -41141015.59946  20849385.4694                   20849382.5204
 11  8 15  1 39  0.0000000  0  7G12G25G10G05G29G04G02
 -34010513.02348 -26471804.53646  20699564.6884                   20699563.8164
  -6558213.23847  -5091336.65545  22205531.8914                   22205533.7304
 -40580720.31248 -31608366.79945  21566880.5314                   21566879.9884
 -27778781.98847 -21626580.76647  20481597.1954   20481596.4024   17875789.58246
  13945464.59743                  24270195.8204                   24270196.4924
 -59022864.05547 -45920049.86644  23391625.6094                   23391626.6684
 -52932840.16048 -41203381.76546  20834155.2504                   20834152.2734
 11  8 15  1 39 30.0000000  0  7G12G25G10G05G29G04G02
 -34112432.38748 -26551222.22746  20680169.8594                   20680169.2114
  -6724220.91047  -5220693.26146  22173941.7584                   22173944.3014
 -40619726.34048 -31638761.11345  21559457.8204                   21559457.2464
 -27923532.93048 -21739373.67647  20454052.0864   20454051.2114   17689312.58646
  13800157.90943                  24234709.2274                   24234711.6914
 -59045620.60546 -45937782.27244  23387295.1484                   23387296.1884
 -53012660.51248 -41265579.44946  20818965.8204                   20818962.9734
 11  8 15  1 40  0.0000000  0  7G12G25G10G05G29G04G02
 -34213721.16048 -26630148.54747  20660895.2034                   20660894.0984
  -6889709.77048  -5349645.58345  22142450.3284                   22142452.6254
 -40658200.57048 -31668741.04545  21552136.1414                   21552135.9144
 -28067686.65648 -21851701.23047  20426620.4614   20426619.7974   17502820.13746
  13654839.08543                  24199222.2814                   24199223.8984
 -59068353.79346 -45955496.44743  23382969.1174                   23382969.2154
 -53092272.49648 -41327614.76846  20803816.1414                   20803813.5084
 11  8 15  1 40 30.0000000  0  7G12G25G10G05G29G04G02
 -34314381.91848 -26708585.48946  20641740.2274                   20641738.9414
  -7054680.09847  -5478193.84645  22111057.5554                   22111059.2704
 -40696147.74248 -31698310.28145  21544915.3754                   21544914.6644
 -28211244.51648 -21963564.46647  20399302.2194   20399300.8524   17316310.62546
  13509507.03943                  24163730.6484                   24163731.2704
 -59091066.73046 -45973194.89743  23378647.0634                   23378647.3484
 -53171679.53148 -41389490.38046  20788705.5004                   20788702.5434
 11  8 15  1 41  0.0000000  0  7G12G25G10G05G29G04G02
 -34414418.35548 -26786535.97046  20622703.7664                   20622702.8554
  -7219133.71548  -5606339.47846  22079762.9224                   22079764.7664
 -40733574.30948 -31727473.84445  21537793.1724                   21537792.5594
 -28354209.08648 -22074965.40247  20372097.0314   20372096.3094   17129781.17246
  13364159.43143                  24128234.6644                   24128235.0944
 -59113764.19146 -45990881.23943  23374329.0164                   23374327.8914
 -53250886.27048 -41451209.92146  20773633.2424                   20773630.1844
 11  8 15  1 41 30.0000000  0  7G12G25G10G05G29G04G02
 -32938409.94148 -25636399.55046  20903578.9144                   20903578.2074
  -5807645.22348  -4506478.30446  22348360.1804                   22348362.1134
 -39195063.83647 -30528634.52545  21830562.0634                   21830561.5904
 -26921156.73048 -20958301.19747  20644797.8594   20644796.8284   18518656.32446
  14446399.84043                  24392529.0314                   24392528.8444
 -57561028.24246 -44780957.16443  23669803.7584                   23669803.5744
 -51754473.07048 -40285173.66346  21058391.0164                   21058388.2114
 11  8 15  1 42  0.0000000  0  7G12G25G10G05G29G04G02
 -33037201.29748 -25713379.82646  20884779.7034                   20884778.5554
  -5971061.78148  -4633815.85945  22317263.1644                   22317264.8364
 -39231459.46147 -30556994.76445  21823636.3524                   21823635.8404
 -27062934.24248 -21068777.14647  20617818.2734   20617817.7304   18332086.30946
  14301020.58643                  24357025.5554                   24357025.3554
 -57583699.46546 -44798623.07143  23665490.5554                   23665489.5274
 -51833284.61348 -40346585.27546  21043393.7194                   21043390.9224
 11  8 15  1 42 30.0000000  0  7G12G25G10G05G29G04G02
 -33135369.87148 -25789874.81946  20866099.1724                   20866097.6954
  -6133956.22348  -4760746.58946  22286264.9694                   22286266.8714
 -39267342.73847 -30584955.76545  21816807.4844                   21816807.2234
 -27204116.05148 -21178788.91847  20590952.3524   20590951.7424   18145497.52346
  14155626.67143                  24321518.6884                   24321518.7464
 -57606358.55546 -44816279.51043  23661177.8054                   23661178.1804
 -51911899.44548 -40407843.58946  21028433.7034                   21028430.8094
 11  8 15  1 43  0.0000000  0  7G12G25G10G05G29G04G02
 -33232918.37548 -25865886.64146  20847536.2274                   20847534.7624
  -6296329.11348  -4887270.91046  22255366.6804                   22255368.4844
 -39302718.66447 -30612521.43745  21810075.8444                   21810075.6524
 -27344703.96548 -21288337.91447  20564199.4924   20564198.4694   17958888.03146
  14010216.72243                  24286009.1564                   24286009.6524
 -57629008.40246 -44833928.79444  23656867.3674                   23656868.8404
 -51990321.01248 -40468951.31646  21013510.5554                   21013507.7304
 11  8 15  1 43 30.0000000  0  7G12G25G10G05G29G04G02
 -33329844.37148 -25941413.39946  20829091.5314                   20829090.4654
  -6458176.31248  -5013385.62446  22224568.7034                   22224569.8874
 -39337587.81247 -30639692.21145  21803440.3674                   21803440.5864
 -27484694.74648 -21397421.59947  20537560.0084   20537559.2234   17772261.24246
  13864793.20644                  24250494.8444                   24250496.2074
 -57651647.91046 -44851569.96844  23652560.0474                   23652560.6644
 -52068548.39848 -40529907.72646  20998624.5084                   20998621.9104
 11  8 15  1 44  0.0000000  0  7G12G25G10G05G29G04G02
 -33426148.57448 -26016455.63846  20810765.5554                   20810764.4104
  -6619495.79348  -5139089.10746  22193870.4384                   22193872.0434
 -39371952.66447 -30666470.03745  21796901.0864                   21796900.4494
 -27624087.30948 -21506039.15447  20511034.5704   20511033.7114   17585618.16846
  13719357.07344                  24214978.4144                   24214979.5594
 -57674277.64147 -44869203.56044  23648253.2114                   23648253.8714
 -52146582.18047 -40590713.28546  20983775.0164                   20983772.4694
 11  8 15  1 44 30.0000000  0  7G12G25G10G05G29G04G02
 -33521829.08248 -26091011.88046  20792558.0634                   20792556.8244
  -6780283.53148  -5264378.24746  22163273.4534                   22163275.7274
 -39405813.83647 -30692855.37345  21790457.4454                   21790457.2344
 -27762878.76248 -21614188.29847  20484623.3754   20484622.3554   17398961.27347
  13573910.18344                  24179458.3364                   24179459.8674
 -57696896.41847 -44886828.61444  23643949.6644                   23643950.4344
 -52224421.36347 -40651367.20646  20968962.7974                   20968960.1334
 11  8 15  1 45  0.0000000  0  7G12G25G10G05G29G04G02
 -33616886.94948 -26165082.95446  20774469.1024                   20774468.2424
  -6940538.48848  -5389252.21846  22132777.7664                   22132779.4964
 -39439174.69147 -30718850.84145  21784108.7894                   21784108.7624
 -27901069.02048 -21721869.00047  20458326.4454   20458325.8164   17212290.62547
  13428452.50444                  24143935.7734                   24143937.3674
 -57719506.02747 -44904446.51444  23639647.2504                   23639647.4344
 -52302067.99648 -40711871.08546  20954187.1414                   20954184.4454
 11  8 15  1 45 30.0000000  0  7G12G25G10G05G29G04G02
 -33711326.54348 -26238672.26146  20756497.6094                   20756496.4574
  -7100262.85248  -5513712.76346  22102383.7274                   22102385.0124
 -39472041.78547 -30744461.57745  21777854.5164                   21777854.1174
 -28038661.46148 -21829083.86347  20432143.7344   20432142.5164   17025602.68847
  13282981.44144                  24108410.8134                   24108411.4734
 -57742111.15647 -44922060.93944  23635345.7344                   23635346.1054
 -52379526.64548 -40772228.48546  20939447.4224                   20939444.5124
 11  8 15  1 46  0.0000000  0  7G12G25G10G05G29G04G02
 -33805147.87548 -26311779.79646  20738644.5004                   20738643.2974
  -7259454.28548  -5637758.04946  22072090.1024                   22072091.6644
 -39504417.51647 -30769689.42345  21771693.6174                   21771693.8324
 -28175654.94948 -21935832.00347  20406074.6024   20406073.9414   16838898.89847
  13137497.99444                  24072882.0554                   24072882.6604
 -57764711.91847 -44939671.93544  23631044.6644                   23631044.9144
 -52456797.85248 -40832439.83246  20924743.4774                   20924740.5274
 11  8 15  1 46 30.0000000  0  7G12G25G10G05G29G04G02
 -33898353.51648 -26384407.57246  20720907.8594                   20720906.8324
  -7418113.07848  -5761388.29146  22041898.5554                   22041900.4774
 -39536306.61347 -30794538.09145  21765625.5394                   21765625.2304
 -28312050.69948 -22042114.37547  20380119.3444   20380118.5004   16652177.77346
  12992001.05444                  24037349.5634                   24037350.4964
 -57787311.44147 -44957282.00643  23626743.8914                   23626744.6254
 -52533884.95748 -40892507.71146  20910073.9614                   20910071.1844
 11  8 15  1 47  0.0000000  0  7G12G25G10G05G29G04G02
 -33990942.60248 -26456554.90646  20703288.7194                   20703287.8284
  -7576236.12548  -5884601.02946  22011808.4614                   22011809.9694
 -39567710.85547 -30819008.93845  21759649.7814                   21759649.0514
 -28447846.57847 -22147929.32547  20354278.3364   20354277.2154   16465441.53546
  12846492.31544                  24001814.2584                   24001815.5084
 -57809909.22346 -44974890.70643  23622443.5084                   23622444.1134
 -52610787.64848 -40952431.89646  20895440.0704                   20895437.1054
 11  8 15  1 47 30.0000000  0  7G12G25G10G05G29G04G02
 -34082913.19548 -26528220.31646  20685787.2114                   20685786.1644
  -7733819.15248  -6007392.99546  21981821.5704                   21981823.2814
 -39598630.02047 -30843101.80145  21753766.0234                   21753765.1524
 -28583039.34447 -22253274.31447  20328551.8754   20328550.6414   16278693.58646
  12700974.48644                  23966277.2344                   23966279.1804
 -57832503.38346 -44992496.57143  23618144.0864                   23618144.7034
 -52687504.14548 -41012210.98646  20880841.0864                   20880838.2544
 11  8 15  1 48  0.0000000  0  7G12G25G10G05G29G04G02
 -34174270.42248 -26599407.77946  20668402.5394                   20668401.3554
  -7890864.99648  -6129766.38146  21951936.7814                   21951938.8054
 -39629071.44147 -30866822.40445  21747972.8594                   21747972.5164
 -28717633.02048 -22358152.48547  20302939.5704   20302938.7074   16091930.02346
  12555444.50344                  23930737.3834                   23930738.3754
 -57855099.49646 -45010103.98243  23613843.6564                   23613845.0864
 -52764040.15248 -41071849.44446  20866276.6884                   20866274.2274
 11  8 15  1 48 30.0000000  0  7G12G25G10G05G29G04G02
 -34265012.53948 -26670115.92047  20651135.0634                   20651133.9884
  -8047369.71948  -6251718.09546  21922154.8364                   21922156.8244
 -39659035.78948 -30890171.25345  21742271.0944                   21742270.6684
 -28851624.81648 -22462561.64547  20277441.6954   20277440.6954   15905153.88346
  12409904.65343                  23895195.6804                   23895196.7194
 -57877696.13346 -45027711.77043  23609543.9844                   23609545.0004
 -52840394.76648 -41131346.54246  20851747.1024                   20851744.2774
 11  8 15  1 49  0.0000000  0  7G12G25G10G05G29G04G02
 -32779717.01248 -25512742.79246  20933777.3134                   20933776.4884
  -6627906.48448  -5145642.83946  22192269.7034                   22192271.3954
 -38113105.11347 -29685549.95845  22036451.9534                   22036451.2584
 -27409589.72348 -21338897.91547  20551851.6024   20551851.0474   17293791.90646
  13491960.32644                  24159444.8054                   24159446.1564
 -56324873.38746 -43817719.98843  23905036.1484                   23905037.6484
 -51341145.94148 -39963100.71546  21137044.5394                   21137041.6884
 11  8 15  1 49 30.0000000  0  7G12G25G10G05G29G04G02
 -32869230.96548 -25582493.93046  20916743.2584                   20916742.3714
  -6783324.48048  -5266747.76146  22162694.7274                   22162696.4844
 -38142124.19547 -29708162.24945  22030929.7114                   22030929.5234
 -27542376.50847 -21442368.11947  20526583.2344   20526582.1844   17106992.16446
  13346402.12044                  24123898.1094                   24123898.8244
 -56347473.80547 -43835330.76143  23900736.3834                   23900736.9574
 -51417140.50048 -40022317.25346  21122583.1954                   21122580.3094
 11  8 15  1 50  0.0000000  0  7G12G25G10G05G29G04G02
 -32958135.52048 -25651770.20846  20899825.4534                   20899824.3324
  -6938199.78548  -5387429.82946  22133223.0004                   22133224.4924
 -38170678.08248 -29730412.03145  22025496.3984                   22025495.7154
 -27674563.05148 -21545370.60147  20501428.9774   20501427.9304   16920178.71947
  13200833.25744                  24088348.8364                   24088349.1564
 -56370080.48047 -43852946.33944  23896434.7584                   23896435.8094
 -51492959.84048 -40081397.25446  21108155.4304                   21108152.6454
 11  8 15  1 50 30.0000000  0  7G12G25G10G05G29G04G02
 -33046426.47748 -25720568.36746  20883024.0164                   20883023.1484
  -7092525.95748  -5507683.98246  22103855.6724                   22103857.6024
 -38198764.79747 -29752297.78345  22020151.0634                   22020151.0004
 -27806144.20748 -21647901.35947  20476390.0394   20476389.0004   16733357.06347
  13055258.03544                  24052797.3204                   24052797.9104
 -56392689.29747 -43870563.59444  23892131.8054                   23892132.9184
 -51568600.05148 -40140337.67546  21093761.6484                   21093758.7624
 11  8 15  1 51  0.0000000  0  7G12G25G10G05G29G04G02
 -33134104.77048 -25788889.13746  20866339.9454                   20866338.9534
  -7246301.80148  -5627509.32746  22074592.6414                   22074595.3324
 -38226387.46547 -29773821.95545  22014894.6644                   22014894.3634
 -27937119.96148 -21749960.36547  20451465.8834   20451465.1294   16546527.57447
  12909676.64444                  24017245.4924                   24017246.3674
 -56415301.41847 -43888183.43744  23887829.7114                   23887829.9734
 -51644062.36348 -40199139.47246  21079401.3754                   21079398.6254
 11  8 15  1 51 30.0000000  0  7G12G25G10G05G29G04G02
 -33221171.87948 -25856733.63946  20849771.4844                   20849770.2934
  -7399526.89848  -5746905.49846  22045434.8674                   22045437.2774
 -38253550.03947 -29794987.57245  22009726.2034                   22009725.4574
 -28067490.89148 -21851548.08147  20426657.2504   20426656.2814   16359690.28546
  12764089.16044                  23981690.9924                   23981692.2274
 -56437918.82847 -43905807.37543  23883524.7664                   23883525.1844
 -51719349.08248 -40257804.44146  21065074.9304                   21065072.0554
 11  8 15  1 52  0.0000000  0  7G12G25G10G05G29G04G02
 -33307629.82048 -25924103.47746  20833318.9064                   20833318.0124
  -7552201.05948  -5865872.38645  22016382.1174                   22016383.9414
 -38280256.96947 -29815798.17245  22004644.2114                   22004643.6524
 -28197257.79348 -21952665.12447  20401963.7894   20401962.7974   16172844.39546
  12618494.96644                  23946135.4774                   23946136.4964
 -56460543.65646 -43923437.10443  23879218.8754                   23879220.1484
 -51794462.95348 -40316334.73846  21050781.0634                   21050778.1644
 11  8 15  1 52 30.0000000  0  7G12G25G10G05G29G04G02
 -33393479.04348 -25990998.98246  20816982.3914                   20816981.5864
  -7704321.44148  -5984407.75746  21987434.7274                   21987436.2344
 -38306509.73847 -29836254.88745  21999648.2424                   21999648.6134
 -28326419.20748 -22053310.35947  20377384.8364   20377383.9614   15985992.43446
  12472896.05444                  23910578.4924                   23910579.5744
 -56483175.17246 -43941072.02943  23874912.7424                   23874913.2664
 -51869403.10248 -40374729.65746  21036520.5234                   21036517.5554
 11  8 15  1 53  0.0000000  0  7G12G25G10G05G29G04G02
 -33478718.43448 -26057419.29546  20800761.6804                   20800760.9304
  -7855885.12948  -6102509.35846  21958593.0634                   21958595.1374
 -38332309.87947 -29856358.87745  21994738.5474                   21994738.5394
 -28454973.23848 -22153482.31647  20352921.9144   20352920.6414   15799135.98446
  12327293.63144                  23875021.4304                   23875022.2934
 -56505813.09046 -43958711.95743  23870604.9384                   23870606.0314
 -51944168.61748 -40432988.48346  21022293.1024                   21022290.2074
 11  8 15  1 53 30.0000000  0  7G12G25G10G05G29G04G02
 -33563347.99248 -26123364.40546  20784657.4304                   20784656.5984
  -8006889.57848  -6220175.15046  21929858.0314                   21929860.0594
 -38357658.87547 -29876111.36145  21989914.9774                   21989914.5864
 -28582918.69948 -22253180.05847  20328574.4064   20328573.4184   15612276.88746
  12181689.14244                  23839463.5314                   23839463.7464
 -56528456.67646 -43976356.30343  23866296.6414                   23866296.7344
 -52018760.27048 -40491111.85746  21008099.0164                   21008096.0554
 11  8 15  1 54  0.0000000  0  7G12G25G10G05G29G04G02
 -33647368.91448 -26188835.26146  20768668.5004                   20768667.7344
  -8157333.84848  -6337404.46046  21901229.2894                   21901231.3634
 -38382560.52747 -29895515.24645  21985176.3984                   21985175.7304
 -28710255.60947 -22352403.60147  20304343.2344   20304342.2894   15425416.04346
  12036083.31444                  23803905.0784                   23803904.8014
 -56551107.41046 -43994006.24444  23861986.4614                   23861986.2734
 -52093179.40648 -40549100.78146  20993937.3984                   20993934.5204
 11  8 15  1 54 30.0000000  0  7G12G25G10G05G29G04G02
 -33730783.97348 -26253834.01046  20752795.6334                   20752794.5434
  -8307218.07848  -6454197.36646  21872707.3594                   21872709.1844
 -38407019.07447 -29914573.84445  21980521.9144                   21980521.1564
 -28836985.52748 -22451154.17447  20280227.2424   20280226.3794   15238552.46946
  11890475.37444                  23768345.4614                   23768345.9144
 -56573767.66846 -44011663.55243  23857673.8444                   23857674.9024
 -52167428.41848 -40606957.15346  20979808.1094                   20979805.8054
 11  8 15  1 55  0.0000000  0  7G12G25G10G05G29G04G02
 -33813593.50448 -26318360.93846  20737037.1644                   20737036.4064
  -8456540.20748  -6570552.26446  21844292.4224                   21844294.4614
 -38431037.00047 -29933289.13145  21975951.6094                   21975951.0164
 -28963107.44948 -22549430.97247  20256226.9844   20256225.9924   15051687.69146
  11744866.51144                  23732786.9774                   23732786.4734
 -56596437.38746 -44029328.27443  23853359.8134                   23853361.5084
 -52241507.69148 -40664681.27546  20965711.4774                   20965708.9384
 11  8 15  1 55 30.0000000  0  7G12G25G10G05G29G04G02
 -33895799.12948 -26382417.28146  20721393.9694                   20721393.1094
  -8605299.59448  -6686468.66746  21815984.2424                   21815986.3524
 -38454618.30147 -29951664.18245  21971464.5474                   21971463.7074
 -29088621.80948 -22647234.34147  20232342.5784   20232341.4734   14864821.43046
  11599256.49744                  23697226.9614                   23697227.5004
 -56619118.09446 -44047001.54943  23849044.1094                   23849044.7384
 -52315418.94948 -40722274.45846  20951646.7894                   20951644.1334
 11  8 15  1 56  0.0000000  0  7G12G25G10G05G29G04G02
 -33977405.18048 -26446006.42646  20705864.8674                   20705863.6174
  -8753498.22348  -6801948.12446  21787783.1804                   21787784.5274
 -38477768.98047 -29969703.68545  21967058.8054                   21967058.2664
 -29213531.87148 -22744566.83747  20208572.8914   20208571.4414   14677951.54746
  11453643.66844                  23661666.7114                   23661667.3444
 -56641813.72746 -44064686.44643  23844724.9924                   23844725.5084
 -52389166.45748 -40779740.06246  20937612.9924                   20937610.4844
 11  8 15  1 56 30.0000000  0  7G12G25G10G05G29G04G02
 -32482986.27048 -25281524.15246  20990243.5084                   20990242.4734
  -7325706.18048  -5689382.89746  22059482.8984                   22059484.6884
 -36925067.18747 -28759806.18045  22262527.9614                   22262527.5234
 -27762409.63348 -21613822.21347  20484712.5234   20484710.9884   16066508.87547
  12535636.42244                  23925900.6564                   23925900.6844
 -55089100.89546 -42854780.29743  24140196.4384                   24140196.9264
 -50887325.12148 -39609474.09246  21223403.9304                   21223400.9534
 11  8 15  1 57  0.0000000  0  7G12G25G10G05G29G04G02
 -32563390.48848 -25344176.79646  20974943.0864                   20974942.0664
  -7472773.21948  -5803980.60246  22031496.9224                   22031498.6994
 -36947359.05147 -28777176.48445  22258286.4924                   22258285.3164
 -27886104.65648 -21710207.92747  20461173.7664   20461172.7934   15879640.05147
  12390024.38344                  23890340.8594                   23890340.5474
 -55111822.83246 -42872485.60743  24135871.8364                   24135872.7894
 -50960741.85548 -39666681.94446  21209432.9924                   21209430.3674
 11  8 15  1 57 30.0000000  0  7G12G25G10G05G29G04G02
 -32643198.60948 -25406364.95746  20959755.9454                   20959755.2194
  -7619275.81248  -5918138.46146  22003618.6644                   22003620.3404
 -36969229.45747 -28794218.36445  22254124.5864                   22254123.3594
 -28009195.16448 -21806122.58347  20437750.4844   20437749.4384   15692770.30947
  12244411.61244                  23854779.7584                   23854780.3634
 -55134562.29746 -42890204.62243  24131545.6884                   24131545.9804
 -51033998.28548 -39723764.88246  21195492.6334                   21195490.0554
 11  8 15  1 58  0.0000000  0  7G12G25G10G05G29G04G02
 -32722410.57848 -25468088.57946  20944682.7894                   20944681.3914
  -7765211.68048  -6031854.70646  21975847.8134                   21975849.8364
 -36990680.51647 -28810933.48445  22250042.3524                   22250041.4804
 -28131680.19548 -21901565.43047  20414442.0634   20414441.1524   15505901.22347
  12098799.34444                  23819219.7894                   23819220.4654
 -55157318.82446 -42907936.91043  24127215.1644                   24127215.5394
 -51107093.91448 -39780722.53546  21181583.2344                   21181580.4184
 11  8 15  1 58 30.0000000  0  7G12G25G10G05G29G04G02
 -32801027.41048 -25529348.45046  20929722.4064                   20929721.2154
  -7910578.93748  -6145127.89546  21948185.5634                   21948187.2934
 -37011714.52347 -28827323.61445  22246039.2974                   22246039.4414
 -28253559.27348 -21996536.11447  20391249.5634   20391248.2894   15319034.35247
  11953188.81844                  23783660.4844                   23783661.5164
 -55180092.61746 -42925682.64243  24122880.6954                   24122881.2544
 -51180029.25048 -39837555.27346  21167704.1644                   21167701.5234
 11  8 15  1 59  0.0000000  0  7G12G25G10G05G29G04G02
 -32879052.09848 -25590146.91146  20914874.7894                   20914873.4534
  -8055378.23448  -6257958.50846  21920630.9534                   21920633.0634
 -37032336.14847 -28843392.41245  22242115.2274                   22242115.3984
 -28374833.88348 -22091035.79447  20368171.5084   20368170.3984   15132168.81647
  11807579.31244                  23748101.4534                   23748102.0434
 -55202886.14146 -42943443.76243  24118544.0554                   24118544.4224
 -51252806.79348 -39894265.05346  21153855.2114                   21153851.8204
 11  8 15  1 59 30.0000000  0  7G12G25G10G05G29G04G02
 -32956484.22748 -25650483.64546  20900139.3834                   20900138.8324
  -8199607.16848  -6370344.68746  21893184.7814                   21893186.9804
 -37052547.68747 -28859141.67145  22238269.1094                   22238268.8244
 -28495502.98048 -22185063.63447  20345208.9064   20345207.7114   14945306.37547
  11661972.24444                  23712542.7814                   23712543.3204
 -55225698.87146 -42961219.90343  24114202.9224                   24114203.6954
 -51325426.48048 -39950851.83646  21140035.8984                   21140033.1454
 11  8 15  2  0  0.0000000  0  7G12G25G10G05G29G04G02
 -33033327.22748 -25710361.30746  20885517.1024                   20885515.9224
  -8343266.61348  -6482287.11946  21865847.7034                   21865849.3554
 -37072353.75447 -28874575.00445  22234500.6724                   22234500.0704
 -28615568.92248 -22278621.49647  20322361.1954   20322360.0394   14758446.07047
  11516366.83944                  23676984.2584                   23676985.0744
 -55248533.39846 -42979013.02243  24109857.1254                   24109858.2304
 -51397891.38748 -40007318.00946  21126246.5554                   21126243.4184
 11  8 15  2  0 30.0000000  0  7G12G25G10G05G29G04G02
 -33109577.66848 -25769777.24146  20871007.0394                   20871005.6764
  -8486350.31248  -6593780.88646  21838619.5554                   21838621.3914
 -37091752.54347 -28889690.94645  22230808.7274                   22230808.2974
 -28735026.47748 -22371705.28147  20299629.3594   20299628.2774   14571593.98847
  11370767.84044                  23641427.4614                   23641428.6334
 -55271385.30546 -42996819.64343  24105509.1254                   24105509.4184
 -51470197.66448 -40063660.57046  21112486.9304                   21112483.7274
 11  8 15  2  1  0.0000000  0  7G12G25G10G05G29G04G02
 -33185239.53148 -25828734.54046  20856609.0634                   20856607.8984
  -8628860.28948  -6704827.59346  21811500.9454                   21811502.9454
 -37110750.09047 -28904494.23844  22227193.7974                   22227193.2664
 -28853878.71948 -22464317.39047  20277012.1884   20277011.4574   14384747.96147
  11225173.59444                  23605871.7274                   23605872.4264
 -55294258.68746 -43014643.02243  24101155.8754                   24101155.5634
 -51542348.93048 -40119882.34846  21098757.1414                   21098754.1884
 11  8 15  2  1 30.0000000  0  7G12G25G10G05G29G04G02
 -33260312.37948 -25887232.86846  20842322.8754                   20842322.0394
  -8770793.35548  -6815424.77446  21784491.7424                   21784494.0744
 -37129347.19147 -28918985.50144  22223654.6334                   22223654.5744
 -28972123.80948 -22556456.39347  20254511.1094   20254509.9344   14197910.93847
  11079586.34144                  23570317.4304                   23570318.3094
 -55317151.94546 -43032481.90443  24096799.7734                   24096798.8134
 -51614343.97748 -40175982.38546  21085056.9774                   21085054.1414
 11  8 15  2  2  0.0000000  0  7G12G25G10G05G29G04G02
 -33334800.62548 -25945275.66246  20828148.6254                   20828147.6644
  -8912151.34848  -6925573.82846  21757592.4694                   21757594.5314
 -37147550.02047 -28933169.52445  22220191.2194                   22220191.1564
 -29089765.19148 -22648124.98747  20232124.6254   20232123.4614   14011080.91447
  10934004.52644                  23534764.5314                   23534765.9064
 -55340068.71946 -43050339.12443  24092438.0234                   24092438.6914
 -51686186.80948 -40231963.81546  21071385.6094                   21071383.0234
 11  8 15  2  2 30.0000000  0  7G12G25G10G05G29G04G02
 -33408702.15648 -26002861.26146  20814085.6414                   20814084.7584
  -9052930.22748  -7035271.61846  21730802.6174                   21730804.6564
 -37165358.58247 -28947046.34645  22216802.3134                   22216802.1524
 -29206799.70348 -22739320.67847  20209853.6484   20209852.7664   13824261.95747
  10788431.33544                  23499214.3594                   23499215.3954
 -55363006.52346 -43068212.70443  24088072.7734                   24088074.5784
 -51757875.35248 -40287825.01246  21057743.6884                   21057740.9384
 11  8 15  2  3  0.0000000  0  7G12G25G10G05G29G04G02
 -33482020.46147 -26059992.41046  20800133.4384                   20800132.2664
  -9193130.69148  -7144518.71946  21704123.7114                   21704125.2194
 -37182777.84047 -28960619.79745  22213487.6094                   22213486.9924
 -29323229.34848 -22830045.04347  20187697.6724   20187696.6644   13637453.20747
  10642866.13144                  23463665.5164                   23463667.0124
 -55385967.79346 -43086104.55543  24083704.0084                   24083705.1094
 -51829411.99647 -40343567.84746  21044130.7114                   21044127.5824
 11  8 15  2  3 30.0000000  0  7G12G25G10G05G29G04G02
 -33554754.95347 -26116668.62646  20786292.4924                   20786291.6134
  -9332749.92248  -7253312.89446  21677554.8834                   21677557.2154
 -37199809.02347 -28973890.84145  22210246.5314                   22210246.1334
 -29439052.45348 -22920296.78947  20165657.1484   20165656.1764   13450657.59447
  10497311.16844                  23428119.2424                   23428120.6374
 -55408951.39546 -43104013.80644  24079330.1564                   24079331.2114
 -51900795.88347 -40399191.66446  21030546.7194                   21030544.0084
 11  8 15  2  4  0.0000000  0  7G12G25G10G05G29G04G02
 -33626907.18048 -26172891.13446  20772562.4064                   20772561.7814
  -9471786.95748  -7361653.40946  21651096.9534                   21651099.5594
 -37216455.12147 -28986861.84945  22207079.0474                   22207078.4304
 -29554269.60548 -23010076.36547  20143732.3054   20143731.2974   13263876.00447
  10351767.09244                  23392576.6334                   23392577.1484
 -55431957.86746 -43121940.94344  24074952.3984                   24074953.1094
 -51972027.96148 -40454697.18246  21016991.5704                   21016989.0234
 11  8 15  2  4 30.0000000  0  7G12G25G10G05G29G04G02
 -32123056.37548 -25001059.33546  21058735.6954                   21058734.8404
  -8034816.06248  -6241935.80746  21924543.5394                   21924545.4384
 -35657298.67247 -27771934.75745  22503776.3284                   22503776.3134
 -28093457.08648 -21871780.87547  20421715.4844   20421714.4804   14652535.77047
  11433839.66844                  23656829.1254                   23656831.1954
 -53879566.92646 -41912285.66544  24370362.5554                   24370363.4144
 -50467687.00448 -39282483.44046  21303258.3134                   21303255.8674
 11  8 15  2  5  0.0000000  0  7G12G25G10G05G29G04G02
 -32194049.54348 -25056378.69146  21045226.5314                   21045225.5554
  -8172686.45748  -6349367.25446  21898307.6804                   21898308.9574
 -35673184.41047 -27784313.28945  22500753.7504                   22500753.5514
 -28207463.52047 -21960617.02947  20400020.8914   20400019.6254   14465784.73047
  11288319.41445                  23621292.3204                   23621293.4844
 -53902621.66046 -41930250.37544  24365976.0944                   24365975.9614
 -50538619.47748 -39337755.48846  21289760.6174                   21289757.4964
 11  8 15  2  5 30.0000000  0  7G12G25G10G05G29G04G02
 -32264463.90648 -25111247.02446  21031826.9304                   21031825.9964
  -8309970.73048  -6456341.99446  21872182.9844                   21872184.6844
 -35688693.24647 -27796398.08945  22497802.6094                   22497802.4694
 -28320863.68048 -22048980.76047  20378441.3364   20378440.2664   14279051.62547
  11142813.12845                  23585758.1414                   23585759.1094
 -53925699.96546 -41948233.47843  24361584.1954                   24361584.3364
 -50609401.47348 -39392910.27346  21276291.0864                   21276288.3594
 11  8 15  2  6  0.0000000  0  7G12G25G10G05G29G04G02
 -32334302.82048 -25165666.94746  21018537.1334                   21018535.8914
  -8446670.09848  -6562860.95246  21846170.0004                   21846172.5554
 -35703830.34047 -27808193.24645  22494921.4844                   22494921.6564
 -28433659.99648 -22136873.96547  20356977.0474   20356976.1414   14092335.56347
  10997320.10445                  23550227.6804                   23550227.9694
 -53948804.60946 -41966237.03043  24357187.2344                   24357186.8164
 -50680035.97348 -39447950.15046  21262849.8834                   21262847.2304
 11  8 15  2  6 30.0000000  0  7G12G25G10G05G29G04G02
 -32403566.70347 -25219638.80546  21005356.5314                   21005355.4024
  -8582782.54348  -6668922.59046  21820268.9614                   21820270.7504
 -35718597.56646 -27819700.15645  22492111.6484                   22492111.3164
 -28545851.72748 -22224296.06347  20335627.6334   20335626.6094   13905638.71147
  10851842.04445                  23514700.0554                   23514700.9414
 -53971934.82846 -41984260.61943  24352786.4224                   24352784.8444
 -50750523.09847 -39502875.16546  21249436.2664                   21249433.9264
 11  8 15  2  7  0.0000000  0  8G12G25G10G26G05G29G04G02
 -32472261.30148 -25273167.07246  20992284.7034                   20992283.4024
  -8718310.64848  -6774528.88046  21794478.9224                   21794480.6054
 -35733001.49647 -27830924.01844  22489370.7034                   22489370.2664
  28071506.05956  21891101.76453  24843543.8134                   24843544.6414
 -28657442.93048 -22311250.22147  20314392.4224   20314391.4804   13718958.80147
  10706377.21244                  23479175.8594                   23479176.7734
 -53995094.89546 -42002307.45143  24348378.4694                   24348378.1334
 -50820866.95748 -39557688.56446  21236050.2504                   21236047.9304
 11  8 15  2  7 30.0000000  0  8G12G25G10G26G05G29G04G02
 -32540393.30548 -25326256.94846  20979319.4144                   20979318.1724
  -8853259.04748  -6879683.46246  21768798.7664                   21768800.4534
 -35747050.57047 -27841871.37144  22486697.6094                   22486696.9654
  27874690.43046  21737738.98243  24806091.0394                   24806091.3834
 -28768439.09448 -22397740.71847  20293270.5944   20293269.6644   13532291.65246
  10560922.30244                  23443653.6884                   23443655.5314
 -54018290.71947 -42020382.10143  24343964.3204                   24343964.5204
 -50891073.89548 -39612395.25346  21222690.1954                   21222687.9654
 11  8 15  2  8  0.0000000  0  8G12G25G10G26G05G29G04G02
 -32607969.12948 -25378913.45346  20966460.2734                   20966458.7774
  -8987631.57448  -6984389.31346  21743228.7034                   21743230.3404
 -35760752.75047 -27852548.41744  22484089.7034                   22484089.6914
  27677762.80146  21584289.01643  24768616.4614                   24768616.4264
 -28878845.59448 -22483771.72747  20272261.0004   20272260.3284   13345633.18846
  10415474.17444                  23408133.9144                   23408135.2304
 -54041527.46946 -42038488.69343  24339542.2114                   24339543.0354
 -50961149.44548 -39666999.57446  21209355.6174                   21209352.5274
 11  8 15  2  8 30.0000000  0  8G12G25G10G26G05G29G04G02
 -32674987.77348 -25431135.77746  20953707.1334                   20953705.7774
  -9121424.97748  -7088643.89946  21717768.7274                   21717770.5004
 -35774108.46547 -27862955.48444  22481548.1644                   22481548.5274
  27480728.42646  21430755.83843  24731121.8134                   24731122.8324
 -28988660.33248 -22569341.62247  20251363.8054   20251362.7034   13158987.09846
  10270035.70444                  23372616.2504                   23372617.5004
 -54064803.28546 -42056625.62142  24335113.0164                   24335113.2464
 -51031091.65248 -39721499.99146  21196045.8834                   21196042.7304
 11  8 15  2  9  0.0000000  0  8G12G25G10G26G05G29G04G02
 -32741447.71548 -25482922.74946  20941059.8754                   20941058.6214
  -9254635.27048  -7192444.11946  21692419.7424                   21692421.7274
 -35787117.78147 -27873092.62944  22479072.6254                   22479072.8324
  27283592.95746  21277143.90043  24693608.7424                   24693609.7664
 -29097880.69548 -22654448.37347  20230580.0394   20230578.8484   12972357.87946
  10124610.33244                  23337102.0474                   23337103.1374
 -54088115.33646 -42074790.88342  24330676.8364                   24330677.2464
 -51100898.52048 -39775894.94346  21182762.1484                   21182759.3794
 11  8 15  2  9 30.0000000  0  8G12G25G10G26G05G29G04G02
 -32807349.11748 -25534274.49746  20928519.3754                   20928518.3284
  -9387259.90248  -7295787.96246  21667181.8984                   21667184.0824
 -35799781.77347 -27882960.68144  22476662.8914                   22476662.4924
  27086361.05546  21123456.78543  24656076.3054                   24656076.9224
 -29206505.30947 -22739090.90547  20209909.2194   20209908.4614   12785748.31646
   9979200.35044                  23301592.0234                   23301591.8164
 -54111462.26646 -42092983.32842  24326233.8984                   24326234.6484
 -51170568.79748 -39830183.46346  21169504.3674                   21169501.4224
 11  8 15  2 10  0.0000000  0  8G12G25G10G26G05G29G04G02
 -32872690.05548 -25585189.53246  20916085.4454                   20916084.3164
  -9519295.24648  -7398672.64046  21642056.5634                   21642058.2734
 -35812100.68747 -27892559.85145  22474318.8914                   22474318.4104
  26889038.38746  20969698.91843  24618526.9454                   24618528.1524
 -29314531.92648 -22823267.46747  20189352.6644   20189351.6134   12599162.69547
   9833808.94244                  23266085.5394                   23266085.6844
 -54134841.79346 -42111201.13342  24321785.0004                   24321785.6884
 -51240100.48448 -39884363.98546  21156272.9384                   21156270.1914
 11  8 15  2 10 30.0000000  0  8G12G25G10G26G05G29G04G02
 -32937474.29748 -25635670.76146  20903757.2344                   20903756.2664
  -9650742.00848  -7501098.66446  21617043.0084                   21617044.7384
 -35824078.91047 -27901893.55245  22472039.3134                   22472039.3984
  26691626.21946  20815871.32443  24580960.8284                   24580960.0164
 -29421962.67248 -22906979.71447  20168909.2974   20168908.1484   12412600.52346
   9688435.84644                  23230583.9924                   23230584.0234
 -54158255.94146 -42129445.98042  24317330.5944                   24317329.6684
 -51309495.61347 -39938438.10146  21143067.7664                   21143064.7234
 11  8 15  2 11  0.0000000  0  8G12G25G10G26G05G29G04G02
 -33001702.91448 -25685719.05146  20891535.1564                   20891533.7194
  -9781599.10548  -7603065.20846  21592141.5554                   21592143.5824
 -35835719.51246 -27910964.16345  22469824.4144                   22469824.4304
  26494127.64846  20661976.48443  24543377.9304                   24543378.2894
 -29528797.40247 -22990227.53147  20148579.0554   20148578.0124   12226063.26247
   9543082.18344                  23195087.2974                   23195087.6294
 -54181704.30947 -42147717.41943  24312868.7114                   24312866.8404
 -51378754.62547 -39992406.16046  21129887.7194                   21129885.2734
 11  8 15  2 11 30.0000000  0  8G12G25G10G26G05G29G04G02
 -33065375.47348 -25735334.03446  20879418.5084                   20879417.6414
  -9911863.28148  -7704569.74546  21567353.1334                   21567355.3404
 -35847022.54347 -27919771.73944  22467673.2424                   22467673.2034
  26296548.13746  20508018.48043  24505779.8204                   24505780.9344
 -29635034.19547 -23073009.41947  20128362.7424   20128362.0594   12039554.78547
   9397750.98044                  23159595.5314                   23159596.7974
 -54205185.26246 -42166014.35043  24308400.0704                   24308399.7894
 -51447875.66447 -40046266.69246  21116734.7114                   21116732.0594
 11  8 15  2 12  0.0000000  0  8G12G25G10G26G05G29G04G02
 -31553076.49648 -24556919.25946  21167199.5634                   21167198.5784
  -8466114.36348  -6578012.12546  21842469.9454                   21842471.7664
 -34282575.78147 -26700722.31344  22765378.2034                   22765377.4344
  27674312.22346  21581600.87343  24767959.7894                   24767960.9264
 -28165255.17248 -21927727.04047  20408052.5164   20408051.5274   13428498.07447
  10480044.51545                  23423903.2814                   23423903.2704
 -52653283.19547 -40956739.98543  24603716.4774                   24603716.8134
 -49941442.09448 -38872422.34146  21403399.3674                   21403396.3524
 11  8 15  2 12 30.0000000  0  8G12G25G10G26G05G29G04G02
 -31615650.03548 -24605677.87346  21155292.1884                   21155290.9264
  -8595198.87148  -6678597.42746  21817905.9844                   21817907.8484
 -34293221.28947 -26709017.51944  22763351.7344                   22763351.5944
  27476570.94546  21427516.77543  24730330.3284                   24730331.2704
 -28270306.20348 -22009584.95947  20388062.0634   20388060.8834   13242043.03547
  10334754.94045                  23388421.9454                   23388422.1764
 -52676838.35546 -40975094.68543  24599234.5234                   24599235.5784
 -50010297.41848 -38926075.84046  21390296.6564                   21390293.5944
 11  8 15  2 13  0.0000000  0  8G12G25G10G26G05G29G04G02
 -31677677.50448 -24654010.96546  21143488.4304                   21143487.5084
  -8723693.41848  -6778723.03246  21793454.1414                   21793456.1644
 -34303543.28947 -26717060.65844  22761388.0164                   22761387.6484
  27278752.28546  21273372.40843  24692686.5864                   24692687.2814
 -28374766.28948 -22090982.40847  20368183.8674   20368182.6174   13055615.38747
  10189486.72045                  23352945.4694                   23352946.2734
 -52700432.21546 -40993479.59843  24594744.3984                   24594744.5744
 -50079021.96147 -38979627.42546  21377218.9614                   21377215.5514
 11  8 15  2 13 30.0000000  0  8G12G25G10G26G05G29G04G02
 -31739155.70748 -24701916.06546  21131789.7504                   21131789.1914
  -8851592.37148  -6878384.52346  21769115.8834                   21769118.2934
 -34313539.75047 -26724850.10344  22759485.8444                   22759485.1374
  27080864.16046  21119173.91643  24655029.2894                   24655030.2704
 -28478630.94148 -22171915.87347  20348419.3914   20348418.2664   12869221.62147
  10044244.87045                  23317476.1954                   23317476.7154
 -52724059.91846 -41011890.88343  24590247.3754                   24590248.7194
 -50147611.22747 -39033073.59746  21364166.7734                   21364164.1764
 11  8 15  2 14  0.0000000  0  8G12G25G10G26G05G29G04G02
 -31800086.34048 -24749394.48646  21120195.1094                   21120194.1994
  -8978895.17248  -6977581.50246  21744890.9384                   21744893.0004
 -34323213.87547 -26732388.40744  22757644.4534                   22757644.4924
  26882909.44946  20964923.66343  24617360.0474                   24617360.8244
 -28581900.90648 -22252385.95647  20328767.3364   20328766.6994   12682863.04747
   9899030.44445                  23282012.7814                   23282013.1994
 -52747721.91046 -41030328.82043  24585745.3134                   24585746.4534
 -50216065.89848 -39086414.89746  21351139.8524                   21351137.1604
 11  8 15  2 14 30.0000000  0  8G12G25G10G26G05G29G04G02
 -31860470.80948 -24796447.33246  21108704.2974                   21108703.1954
  -9105600.45748  -7076312.87346  21720779.7114                   21720781.2624
 -34332567.92247 -26739677.27244  22755864.6174                   22755864.4024
  26684891.67246  20810624.22043  24579678.3834                   24579678.4774
 -28684576.09848 -22332392.57547  20309228.9144   20309227.9264   12496541.55147
   9753844.92045                  23246557.3834                   23246557.7424
 -52771418.09046 -41048793.49043  24581236.3674                   24581236.7074
 -50284385.93748 -39139651.29246  21338139.6414                   21338136.9964
 11  8 15  2 15  0.0000000  0  8G12G25G10G26G05G29G04G02
 -31920316.40248 -24843080.26046  21097315.9534                   21097315.3364
  -9231713.23448  -7174582.54246  21696781.4224                   21696782.7814
 -34341610.35547 -26746723.35044  22754143.5554                   22754143.5864
  26486808.20346  20656273.62643  24541984.4064                   24541984.5164
 -28786662.69148 -22411940.54947  20289802.5704   20289801.3834   12310253.16447
   9608685.18545                  23211107.7424                   23211108.0274
 -52795153.99246 -41067289.04343  24576720.6094                   24576720.0124
 -50352577.55148 -39192787.60546  21325162.9224                   21325160.5234
 11  8 15  2 15 30.0000000  0  8G12G25G10G26G05G29G04G02
 -31979621.80148 -24889292.26346  21086030.7424                   21086029.6254
  -9357229.84448  -7272387.68446  21672896.6334                   21672898.0554
 -34350341.37547 -26753526.76144  22752482.4384                   22752481.8054
  26288665.11746  20501876.47243  24504278.7664                   24504279.1994
 -28888158.31248 -22491028.02947  20270488.8134   20270487.4064   12124002.14846
   9463554.58545                  23175665.0394                   23175665.7034
 -52818927.05946 -41085813.57343  24572196.4924                   24572197.0314
 -50420638.19948 -39245821.86946  21312211.0784                   21312208.7274
 11  8 15  2 16  0.0000000  0  8G12G25G10G26G05G29G04G02
 -32038387.07048 -24935083.39646  21074848.2114                   21074847.1174
  -9482147.98448  -7369726.48146  21649125.3444                   21649126.7034
 -34358762.03146 -26760088.29844  22750879.9454                   22750879.5274
  26090467.04346  20347436.50043  24466563.2344                   24466563.4384
 -28989062.05148 -22569654.31147  20251287.2344   20251285.8914   11937791.37146
   9318455.32645                  23140229.9534                   23140231.0984
 -52842735.52746 -41104365.68343  24567665.0234                   24567666.6294
 -50488566.29348 -39298752.85746  21299285.3674                   21299282.5044
 11  8 15  2 16 30.0000000  0  8G12G25G10G26G05G29G04G02
 -32096616.65648 -24980457.09746  21063767.5784                   21063766.4064
  -9606469.64148  -7466600.48046  21625467.5164                   21625468.9654
 -34366877.77346 -26766412.30444  22749335.1884                   22749335.1094
  25892214.77046  20192954.26943  24428837.3054                   24428836.8404
 -29089376.96148 -22647821.75747  20232197.6564   20232196.6914   11751620.08646
   9173386.84445                  23104802.9614                   23104803.3834
 -52866582.43046 -41122947.73543  24563127.9614                   24563129.5044
 -50556365.43748 -39351583.37246  21286383.2734                   21286380.7544
 11  8 15  2 17  0.0000000  0  8G12G25G10G26G05G29G04G02
 -32154311.19548 -25025413.88746  21052788.5634                   21052787.4184
  -9730192.89148  -7563008.19246  21601923.7584                   21601925.5514
 -34374689.93046 -26772499.74444  22747849.0164                   22747848.3164
  25693912.35546  20038433.03943  24391101.5634                   24391101.2934
 -29189102.52048 -22725529.96047  20213220.6254   20213219.6254   11565491.24247
   9028351.42244                  23069383.9064                   23069383.9024
 -52890466.52346 -41141558.84543  24558583.2424                   24558584.5864
 -50624034.74248 -39404312.70746  21273506.4224                   21273503.6454
 11  8 15  2 17 30.0000000  0  8G12G25G10G26G05G29G04G02
 -32211473.20348 -25069955.70146  21041910.8834                   21041909.9384
  -9853317.74648  -7658949.61246  21578493.7734                   21578495.5274
 -34382202.07047 -26778353.34944  22746419.8984                   22746418.2034
  25495562.37947  19883874.68443  24353356.4614                   24353356.6764
 -29288240.10248 -22802780.01647  20194355.5554   20194354.2774   11379405.55946
   8883349.64444                  23033972.6724                   23033972.6644
 -52914388.57446 -41160199.41442  24554030.1174                   24554031.2624
 -50691574.91448 -39456941.41646  21260653.8134                   21260651.0234
 11  8 15  2 18  0.0000000  0  8G12G25G10G26G05G29G04G02
 -32268103.08648 -25114082.88546  21031134.7974                   21031133.8754
  -9975842.60548  -7754423.52046  21555178.2974                   21555179.6884
 -34389415.86746 -26783974.50144  22745047.4224                   22745045.9304
  25297169.20747  19729282.67643  24315603.4064                   24315604.0274
 -29386789.11748 -22879571.44247  20175602.3834   20175601.1684   11193365.48847
   8738383.42444                  22998570.7974                   22998570.7814
 -52938347.71546 -41178869.03743  24549470.8914                   24549471.4024
 -50758985.60947 -39509469.23846  21247826.0634                   21247823.2734
 11  8 15  2 18 30.0000000  0  8G12G25G10G26G05G29G04G02
 -32324201.93448 -25157796.28146  21020459.3524                   21020458.4734
 -10097766.01248  -7849428.75546  21531976.8284                   21531978.4694
 -34396333.40247 -26789364.78944  22743730.7114                   22743730.5234
  25098736.76647  19574660.07843  24277843.1564                   24277844.2234
 -29484749.48048 -22955904.17847  20156961.1174   20156959.8134   11007373.68046
   8593454.85144                  22963177.5314                   22963177.8874
 -52962343.17646 -41197566.76443  24544904.9924                   24544905.6254
 -50826266.47747 -39561895.90646  21235022.8984                   21235019.9304
 11  8 15  2 19  0.0000000  0  8G12G25G10G26G05G29G04G02
 -32379772.08648 -25201097.70046  21009884.3914                   21009883.9734
 -10219088.08648  -7943965.40946  21508890.0164                   21508891.5314
 -34402957.88346 -26794526.74944  22742470.1954                   22742469.9804
  24900267.68047  19420008.98243  24240075.0004                   24240076.3834
 -29582122.53147 -23031779.25847  20138431.5864   20138430.4654   10821430.91447
   8448564.44845                  22927793.8914                   22927794.0044
 -52986375.59846 -41216293.39643  24540331.8204                   24540332.8444
 -50893418.30947 -39614222.01546  21222244.2274                   21222241.3594
 11  8 15  2 19 30.0000000  0  7G12G25G10G26G05G29G02
 -30859396.95348 -24016389.79546  21299202.4694                   21299202.0434
  -8764387.38348  -6810432.36646  21785710.5314                   21785711.8244
 -32833875.30546 -25571865.01344  23041056.2894   23041056.8054   26277188.74647
  20492934.62343                  24502094.5314                   24502094.9494
 -28103489.32448 -21879597.52647  20419805.9304   20419804.6134   12210961.82447
   9531315.89144                  23192212.8524                   23192212.6174
 -49385022.29747 -38438848.50446  21509282.6254                   21509279.6724
 11  8 15  2 20  0.0000000  0  7G12G25G10G26G05G29G02
 -30913919.49648 -24058874.90146  21288827.2974                   21288826.2344
  -8884509.02348  -6904033.61146  21762851.8594                   21762853.5904
 -32839926.35546 -25576580.12944  23039904.9224   23039905.3914   26078652.31647
  20338231.03543                  24464314.5394                   24464314.3754
 -28199693.94147 -21954562.14747  20401498.6414   20401497.8634   12025118.27747
   9386502.82045                  23156848.0784                   23156847.6884
 -49451920.93447 -38490977.33646  21496552.2034                   21496549.6134
 11  8 15  2 20 30.0000000  0  7G12G25G10G26G05G29G02
 -30967910.16448 -24100945.55846  21278552.8524                   21278552.0824
  -9004018.96948  -6997158.21546  21740109.9534                   21740111.8444
 -32845684.01646 -25581066.64044  23038809.3134   23038810.0984   25880097.62147
  20183513.19743                  24426530.4614                   24426530.7344
 -28295304.73447 -22029064.05247  20383304.9844   20383303.4344   11839337.43846
   9241738.60145                  23121494.5944                   23121495.4184
 -49518682.85247 -38542999.60746  21483847.6724                   21483844.9224
 11  8 15  2 21  0.0000000  0  7G12G25G10G26G05G29G02
 -31021366.14548 -24142599.55346  21268380.7344                   21268379.7584
  -9122912.24648  -7089802.32146  21717485.3284                   21717486.9454
 -32851146.88746 -25585323.43044  23037770.0084   23037769.9384   25681532.44147
  20028787.19944                  24388745.1334                   24388745.4844
 -28390317.95348 -22103100.30847  20365224.0164   20365222.9454   11653625.69547
   9097028.26045                  23086154.9224                   23086155.2934
 -49585304.03947 -38594912.22946  21471170.2664                   21471167.3404
 11  8 15  2 21 30.0000000  0  7G12G25G10G26G05G29G02
 -31074291.49648 -24183840.09146  21258309.3364                   21258308.4384
  -9241190.36748  -7181967.04646  21694977.7894                   21694979.0044
 -32856319.53146 -25589354.10744  23036784.7584   23036785.5904   25482957.95346
  19874053.89243                  24350957.3204                   24350957.7624
 -28484736.71148 -22176673.35647  20347257.0704   20347256.1844   11467982.51247
   8952371.30545                  23050828.0784                   23050828.5824
 -49651786.42248 -38646716.67546  21458518.9924                   21458516.2424
 11  8 15  2 22  0.0000000  0  7G12G25G10G26G05G29G02
 -31126688.87948 -24224669.21746  21248338.4614                   21248337.1684
  -9358853.43448  -7273652.51846  21672587.0634                   21672588.6764
 -32861205.29746 -25593161.20844  23035856.0784   23035855.4844   25284376.95346
  19719315.53743                  24313167.6804                   24313169.1334
 -28578561.68048 -22249783.70647  20329402.6484   20329401.3244   11282409.01247
   8807768.66445                  23015514.7974                   23015515.1724
 -49718131.00848 -38698413.76246  21445893.9694                   21445891.4574
 11  8 15  2 22 30.0000000  0  7G12G25G10G26G05G29G02
 -31178562.75448 -24265090.41546  21238467.0554                   21238466.0394
  -9475903.73848  -7364860.53946  21650313.0314                   21650314.7624
 -32865809.40246 -25596748.80244  23034979.9774   23034979.0634   25085790.19946
  19564572.74643                  24275378.0864                   24275379.6454
 -28671796.37148 -22322434.08647  20311660.7974   20311659.5664   11096904.29747
   8663219.62545                  22980214.1254                   22980215.1374
 -49784340.70748 -38750005.72746  21433294.8914                   21433292.3324
 11  8 15  2 23  0.0000000  0  7G12G25G10G26G05G29G02
 -31229919.42248 -24305108.60346  21228694.2894                   21228693.0824
  -9592345.18748  -7455594.11746  21628155.1414                   21628156.7974
 -32870138.77047 -25600122.37644  23034155.7974   23034154.9144   24887196.74246
  19409824.70543                  24237587.4924                   24237587.8914
 -28764446.29748 -22394628.81947  20294030.0784   20294029.0474   10911465.83247
   8518722.22345                  22944926.2424                   22944926.7624
 -49850420.36748 -38801496.36546  21420720.1484                   21420717.7664
 11  8 15  2 23 30.0000000  0  7G12G25G10G26G05G29G02
 -31280763.34848 -24344727.24146  21219019.1254                   21219018.0004
  -9708179.89148  -7545854.89746  21606112.5164                   21606113.8364
 -32874198.80146 -25603286.06544  23033382.9774   23033382.1724   24688597.33646
  19255072.02343                  24199795.1254                   24199795.1954
 -28856514.84048 -22466370.52547  20276510.0164   20276508.8364   10726092.80147
   8374275.78745                  22909650.8134                   22909651.5514
 -49916372.55548 -38852887.66846  21408169.7664                   21408167.0944
 11  8 15  2 24  0.0000000  0  7G12G25G10G26G05G29G02
 -31331097.12548 -24383948.37646  21209440.9224                   21209439.7384
  -9823408.31648  -7635643.27146  21584185.2344                   21584186.8914
 -32877993.12146 -25606242.68243  23032661.1804   23032660.7114   24489994.69146
  19100316.76643                  24162002.8444                   24162002.7814
 -28948003.40248 -22537660.29347  20259100.0554   20259098.7034   10540786.03147
   8229880.98845                  22874388.0784                   22874389.0004
 -49982197.90248 -38904180.13446  21395643.9844                   21395640.8714
 11  8 15  2 24 30.0000000  0  7G12G25G10G26G05G29G02
 -31380922.09448 -24422773.02346  21199959.0704                   21199958.3484
  -9938029.52348  -7724958.47846  21562373.5004                   21562375.3244
 -32881523.62146 -25608993.78244  23031989.3204   23031989.0664   24291392.68846
  18945561.96843                  24124209.3134                   24124209.7664
 -29038912.59448 -22608498.61547  20241800.6564   20241799.6564   10355548.21147
   8085539.91845                  22839138.8134                   22839138.9304
 -50047896.63348 -38955373.93946  21383141.7424                   21383138.9494
 11  8 15  2 25  0.0000000  0  7G12G25G10G26G05G29G02
 -31430241.57048 -24461203.79146  21190574.5554                   21190573.4694
 -10052044.27748  -7813801.13546  21540677.3284                   21540678.9454
 -32884794.11747 -25611542.25644  23031367.7274   23031366.9224   24092793.42646
  18790809.36343                  24086417.3754                   24086417.3054
 -29129244.17248 -22678886.83047  20224611.4064   20224610.2034   10170379.76647
   7941252.90945                  22803902.1724                   22803902.4734
 -50113470.01648 -39006470.06546  21370663.5554                   21370660.7424
 11  8 15  2 25 30.0000000  0  7G12G25G10G26G05G29G02
 -31479053.43748 -24499238.99946  21181285.5394                   21181284.9104
 -10165448.26648  -7902167.86246  21519097.3364                   21519098.5944
 -32887803.23447 -25613887.07144  23030794.6174   23030793.7544   23894204.76846
  18636065.00843                  24048626.9614                   24048627.6644
 -29218995.16448 -22748822.65547  20207532.4534   20207531.0944
   9985286.76647   7797024.69245  22768680.2034                   22768680.4144
 -50178913.91048 -39057465.28946  21358209.8284                   21358207.3204
 11  8 15  2 26  0.0000000  0  7G12G25G10G26G05G29G02
 -31527364.82848 -24536884.24946  21172092.1334                   21172091.1804
 -10278246.49248  -7990062.57046  21497632.6484                   21497633.7034
 -32890558.97347 -25616034.40244  23030270.3054   23030269.1804   23695624.46946
  18481327.17943                  24010838.4384                   24010839.1764
 -29308171.98448 -22818311.06447  20190562.4064   20190561.0824
   9800265.43047   7652852.29745  22733472.1644                   22733471.9844
 -50244234.03148 -39108364.06346  21345779.9304                   21345777.5084
 11  8 15  2 26 30.0000000  0  7G12G25G10G26G05G29G02
 -31575174.91848 -24574138.86246  21162994.4384                   21162993.4804
 -10390435.64848  -8077482.68046  21476283.4064                   21476284.8674
 -32893061.11747 -25617984.16444  23029794.2424   23029793.2814   23497059.22346
  18326601.08743                  23973051.9614                   23973052.6024
 -29396771.94948 -22887349.97947  20173702.5164   20173700.8834
   9615320.84047   7508739.69245  22698277.8134                   22698278.3754
 -50309427.30148 -39159164.00346  21333373.7194                   21333371.4614
 11  8 15  2 27  0.0000000  0  7G12G25G10G26G05G29G02
 -31622488.15248 -24611006.31046  21153990.8594                   21153989.8674
 -10502018.31648  -8164430.19846  21455050.0084                   21455051.5434
 -32895315.00047 -25619740.47744  23029365.5554   23029364.3594   23298509.62946
  18171887.16043                  23935269.8134                   23935269.5044
 -29484799.16848 -22955942.60047  20156951.2504   20156949.7344
   9430451.81347   7364685.97945  22663097.7734                   22663099.0554
 -50374496.67248 -39209867.40146  21320991.8594                   21320989.0554
 11  8 15  2 27 30.0000000  0  7G12G25G10G26G05G29G02
 -30093885.12148 -23419887.07146  21444874.1484                   21444873.1994
  -9037570.52048  -7023302.03246  21733724.8364                   21733726.6994
 -31321903.15647 -24393705.28344  23328775.6644   23328775.3524   24675405.81346
  19244793.34844                  24197284.1724                   24197284.7774
 -27996831.55548 -21796487.29647  20440101.8204   20440101.1054
  10821086.50047   8448297.48745  22927727.2814                   22927728.1054
 -48864020.35248 -38032872.85546  21608425.6644                   21608422.8914
 11  8 15  2 28  0.0000000  0  7G12G25G10G26G05G29G02
 -30140211.10248 -23455985.23246  21436058.9614                   21436058.0784
  -9147939.16448  -7109303.55746  21712722.6254                   21712724.1134
 -31323667.98847 -24395080.51944  23328439.5704   23328438.8014   24476898.23846
  19090112.16543                  24159509.6884                   24159509.6724
 -28083715.56248 -21864189.08947  20423568.5704   20423567.2424
  10636375.01247   8304366.52145  22892577.3984                   22892578.2664
 -48928842.51648 -38083383.62846  21596090.8524                   21596087.7774
 11  8 15  2 28 30.0000000  0  7G12G25G10G26G05G29G02
 -30186049.10548 -23491703.15346  21427336.0164                   21427335.7544
  -9257703.27348  -7194834.02246  21691835.1804                   21691836.5474
 -31325194.94147 -24396270.37544  23328149.3984   23328148.2934   24278414.29346
  18935449.35843                  24121739.7114                   24121739.4454
 -28170032.57448 -21931449.07947  20407142.9924   20407141.5594
  10451742.38347   8160496.98845  22857443.2814                   22857443.5314
 -48993543.73848 -38133800.15246  21583778.3984                   21583775.6454
 11  8 15  2 29  0.0000000  0  7G12G25G10G26G05G29G02
 -30231399.80148 -23527041.37246  21418705.9614                   21418705.6294
  -9366861.22348  -7279892.15646  21671062.9844                   21671065.0354
 -31326485.32447 -24397275.91443  23327903.5944   23327903.4964   24079959.10946
  18780809.01544                  24083974.9454                   24083973.9144
 -28255782.24248 -21998266.98647  20390825.2894   20390824.2074
  10267191.99647   8016691.54345  22822324.4064                   22822324.8594
 -49058122.98448 -38184121.64846  21571489.5864                   21571486.3014
 11  8 15  2 29 30.0000000  0  7G12G25G10G26G05G29G02
 -30276265.59448 -23562001.72546  21410168.5864                   21410167.4534
  -9475413.39148  -7364478.24346  21650406.4224                   21650408.2974
 -31327541.93447 -24398099.26943  23327702.0554   23327701.3984   23881535.65646
  18626193.40843                  24046215.9614                   24046215.4264
 -28340965.50448 -22064643.53647  20374615.5474   20374614.5514
  10082725.15647   7872951.19845  22787221.7584                   22787221.7274
 -49122580.67648 -38234348.41546  21559223.2814                   21559220.4774
 11  8 15  2 30  0.0000000  0  7G12G25G10G26G05G29G02
 -30320648.62148 -23596585.89246  21401722.8284                   21401721.3634
  -9583359.44148  -7448592.02946  21629864.5554                   21629866.4734
 -31328367.24247 -24398742.43444  23327545.7664   23327544.9384   23683147.38746
  18471605.29844                  24008463.3524                   24008464.1524
 -28425583.26248 -22130579.42947  20358513.2504   20358511.9804
   9898344.29747   7729277.84945  22752134.9774                   22752134.9494
 -49186916.66448 -38284480.33946  21546980.7424                   21546977.6804
 11  8 15  2 30 30.0000000  0  7G12G25G10G26G05G29G02
 -30364553.03948 -23630797.12246  21393367.8284                   21393367.0274
  -9690701.57448  -7532235.23946  21609438.1954                   21609440.0474
 -31328966.03547 -24399209.07044  23327431.5704   23327431.6684   23484795.79346
  18317045.75943                  23970718.5554                   23970718.6954
 -28509639.09848 -22196077.46547  20342518.0634   20342516.7664
   9714048.91447   7585671.12145  22717065.1334                   22717064.8554
 -49251133.19148 -38334519.19446  21534760.5864                   21534758.0594
 11  8 15  2 31  0.0000000  0  7G12G25G10G26G05G29G02
 -30407981.35548 -23664637.37746  21385103.6954                   21385103.1414
  -9797439.78148  -7615407.84346  21589126.6804                   21589128.3634
 -31329341.09047 -24399501.33544  23327359.9614   23327361.0204   23286484.31346
  18162517.40443                  23932980.8134                   23932980.7194
 -28593133.94948 -22261138.37447  20326629.5234   20326628.2544
   9529840.75047   7442132.35545  22682010.9144                   22682010.9064
 -49315230.37948 -38384465.05246  21522563.6094                   21522560.7544
 11  8 15  2 31 30.0000000  0  7G12G25G10G26G05G29G02
 -30450933.82048 -23698106.84046  21376930.3834                   21376929.4414
  -9903572.25448  -7698108.46546  21568930.5314                   21568932.1914
 -31329493.40247 -24399620.03644  23327331.1334   23327332.2854   23088218.30946
  18008024.53443                  23895252.1024                   23895251.7624
 -28676067.33248 -22325761.78147  20310848.0164   20310846.6724
   9345723.68447   7298664.58445  22646974.2734                   22646974.6914
 -49379206.74248 -38434316.75646  21510389.1334                   21510386.3164
 11  8 15  2 32  0.0000000  0  7G12G25G10G26G05G29G02
 -30493410.73448 -23731205.72046  21368847.3754                   21368846.1684
 -10009097.26648  -7780335.71546  21548849.6724                   21548851.6174
 -31329423.51647 -24399565.62544  23327344.9694   23327345.1484   22890003.03546
  17853571.13043                  23857533.2584                   23857533.0004
 -28758438.52348 -22389947.09947  20295172.9774   20295171.8594
   9161701.38347   7155270.66245  22611956.2894                   22611956.7344
 -49443060.32848 -38484072.79446  21498237.4774                   21498235.0044
 11  8 15  2 32 30.0000000  0  7G12G25G10G26G05G29G02
 -30535414.91048 -23763936.23946  21360854.0944                   21360853.2544
 -10114015.59448  -7862090.25146  21528884.3984                   21528885.6524
 -31329134.87147 -24399340.72644  23327399.9064   23327399.2974   22691841.57046
  17699159.65944                  23819823.9694                   23819823.8094
 -28840249.77748 -22453696.11547  20279604.7424   20279603.4104
   8977775.34847   7011951.76345  22576956.2974                   22576956.8444
 -49506792.24648 -38533734.02046  21486110.4694                   21486107.5944
 11  8 15  2 33  0.0000000  0  7G12G25G10G26G05G29G02
 -30576953.06648 -23796303.63146  21352949.4454                   21352948.9224
 -10218331.29748  -7943375.19946  21509033.8134                   21509035.4734
 -31328633.89147 -24398950.31643  23327495.3524   23327494.0634   22493733.41046
  17544789.77844                  23782125.0634                   23782124.6454
 -28921506.09448 -22517012.70547  20264142.4454   20264140.8524
   8793943.43047   6868706.19445  22541974.5784                   22541974.2894
 -49570406.48048 -38583303.54146  21474005.1174                   21474002.2034
 11  8 15  2 33 30.0000000  0  7G12G25G10G26G05G29G02
 -30618029.15248 -23828310.99146  21345133.2664                   21345131.9344
 -10322046.57848  -8024192.29046  21489297.1804                   21489298.9064
 -31327925.23447 -24398398.12643  23327629.7344   23327629.1644   22295679.83247
  17390462.36944                  23744436.9614                   23744437.0784
 -29002210.65248 -22579899.36447  20248785.0084   20248783.5594
   8610205.32447   6725533.73445  22507010.0704                   22507009.9344
 -49633904.99648 -38632782.89846  21461921.4844                   21461918.5394
 11  8 15  2 34  0.0000000  0  7G12G25G10G26G05G29G02
 -30658641.96948 -23859957.33846  21337404.8914                   21337403.8954
 -10425158.13348  -8104538.94146  21469675.9224                   21469677.4184
 -31327008.40247 -24397683.70343  23327803.9144   23327803.4734   22097688.09446
  17236183.19144                  23706761.4144                   23706761.1374
 -29082361.42648 -22642354.51047  20233532.5474   20233531.3874
   8426566.45348   6582438.59545  22472064.7274                   22472064.5044
 -49697284.53548 -38682169.55346  21449860.8984                   21449858.0744
 11  8 15  2 34 30.0000000  0  7G12G25G10G26G05G29G02
 -30698794.36748 -23891244.91746  21329763.9844                   21329763.0204
 -10527666.73048  -8184415.75546  21450168.8524                   21450170.4534
 -31325886.39847 -24396809.40943  23328017.4774   23328016.7154   21899761.09846
  17081954.43444                  23669095.9064                   23669096.6524
 -29161960.16848 -22704379.47847  20218385.5314   20218384.3244
   8243028.25047   6439421.89545  22437138.6414                   22437137.9774
 -49760545.60548 -38731463.88846  21437822.8914                   21437819.8204
 11  8 15  2 35  0.0000000  0  7G12G25G10G26G05G29G02
 -29163067.98848 -22694575.01146  21622002.9924                   21622001.9384
  -9054149.82848  -7036220.76246  21730569.8594                   21730571.6764
 -29749142.19947 -23168177.56143  23628062.5084   23628061.7304   23277328.33246
  18155383.52043                  23931238.6644                   23931238.8244
 -27665586.22348 -21538373.79547  20503135.9844   20503134.3094
   9635018.19948   7524089.46645  22702025.3834                   22702025.3674
 -48248266.94548 -37553064.93346  21725599.8674                   21725596.7704
 11  8 15  2 35 30.0000000  0  7G12G25G10G26G05G29G02
 -29202309.49248 -22725152.81646  21614535.5784                   21614534.5434
  -9155456.02048  -7115160.63246  21711292.3754                   21711293.3984
 -29747620.10947 -23166991.50644  23628351.8834   23628351.3834   23079538.53147
  18001261.68944                  23893600.0004                   23893599.4574
 -27744087.64548 -21599543.72347  20488197.5234   20488196.1954
   9451684.65647   7381232.24245  22667138.1334                   22667137.9884
 -48311294.51648 -37602177.33646  21713605.9224                   21713603.3094
 11  8 15  2 36  0.0000000  0  7G12G25G10G26G05G29G02
 -29241096.44948 -22755376.42146  21607155.0314                   21607153.5474
  -9256158.81248  -7193630.31146  21692129.0234                   21692130.3594
 -29745899.38347 -23165650.67844  23628679.6564   23628679.1804   22881825.64846
  17847199.77144                  23855976.3984                   23855975.6374
 -27822040.02048 -21660285.82047  20473363.7424   20473362.4184
   9268459.04747   7238459.13945  22632271.1254                   22632270.9104
 -48374202.77748 -37651196.75746  21701634.9224                   21701632.0984
 11  8 15  2 36 30.0000000  0  7G12G25G10G26G05G29G02
 -29279434.28947 -22785250.06246  21599859.3204                   21599858.2664
  -9356261.74648  -7271632.58446  21673079.8674                   21673081.9774
 -29743985.72747 -23164159.48944  23629043.7734   23629043.4064   22684189.69946
  17693197.81644                  23818367.3204                   23818367.0784
 -27899447.67248 -21720603.46147  20458633.4224   20458632.2114
   9085340.10947   7095769.11945  22597424.5554                   22597424.5554
 -48436995.04748 -37700125.80546  21689685.8834                   21689683.4844
 11  8 15  2 37  0.0000000  0  7G12G25G10G26G05G29G02
 -29317325.70747 -22814775.83846  21592648.5704                   21592647.7234
  -9455765.56648  -7349168.01546  21654145.0004                   21654147.0354
 -29741882.36747 -23162520.50044  23629443.5944   23629443.9064   22486633.98046
  17539258.32944                  23780773.9144                   23780773.2974
 -27976312.71548 -21780498.27747  20444006.5704   20444005.0124
   8902329.35247   6953163.39645  22562598.6254                   22562598.3914
 -48499671.73048 -37748964.78246  21677759.3284                   21677756.1884
 11  8 15  2 37 30.0000000  0  7G12G25G10G26G05G29G02
 -29354773.66047 -22843956.06346  21585522.7194                   21585522.2424
  -9554670.57448  -7426236.81546  21635324.1174                   21635325.7234
 -29739591.91047 -23160735.75244  23629879.7584   23629879.5004   22289162.05946
  17385384.19544                  23743196.5474                   23743194.9024
 -28052636.28548 -21839971.18047  20429483.0164   20429481.4064
   8719428.82447   6810643.58445  22527793.9304                   22527793.2704
 -48562232.81648 -37797713.68246  21665854.0164                   21665851.2854
 11  8 15  2 38  0.0000000  0  8G12G25G10G26G05G29G15G02
 -29391781.37147 -22872793.24846  21578480.2344                   21578479.4964
  -9652978.02747  -7502840.01046  21616616.7894                   21616618.6724
 -29737117.58647 -23158807.69743  23630350.1024   23630351.1094   22091776.68846
  17231577.43443                  23705635.0634                   23705634.6374
 -28128420.65648 -21899023.92647  20415061.3594   20415060.0554
   8536639.46147   6668210.36945  22493010.0084                   22493009.9924
  34374537.14515                  24639795.117
 -48624679.27748 -37846373.25246  21653970.8524                   21653967.8324
 11  8 15  2 38 30.0000000  0  8G12G25G10G26G05G29G15G02
 -29428358.45347 -22901294.85846  21571519.9694                   21571518.7194
  -9750695.87548  -7578983.77346  21598021.1954                   21598022.9884
 -29734469.53946 -23156744.25843  23630853.5314   23630855.0474   21894474.02346
  17077835.22043                  23668088.9844                   23668088.7234
 -28203674.92648 -21957663.60447  20400740.8754   20400739.6174
   8353955.91847   6525859.61745  22458247.0004                   22458247.0164
  34178616.984 5                  24602512.313
 -48687018.69948 -37894949.43346  21642108.2034                   21642105.0984
 11  8 15  2 39  0.0000000  0  8G12G25G10G26G05G29G15G02
 -29464514.02747 -22929468.02546  21564639.7424                   21564638.8134
  -9847831.39148  -7654673.76046  21579537.2584                   21579539.2704
 -29731657.19546 -23154552.81243  23631388.6884   23631389.3634   21697250.84846
  16924154.82043                  23630559.0784                   23630557.9024
 -28278407.60948 -22015896.85247  20386519.6334   20386518.5514
   8171373.50447   6383587.68045  22423502.3594                   22423502.2194
  33982580.145 5                  24565208.086
 -48749257.83648 -37943447.45846  21630264.5234                   21630261.7304
 11  8 15  2 39 30.0000000  0  8G12G25G10G26G05G29G15G02
 -29500249.14847 -22957313.57046  21557839.4144                   21557838.7424
  -9944383.52048  -7729909.17846  21561164.0394                   21561165.6374
 -29728681.60246 -23152234.17543  23631955.6414   23631954.9884   21500112.29347
  16770540.42043                  23593044.6724                   23593044.5124
 -28352618.45348 -22073723.47147  20372397.8594   20372396.3914
   7988895.75847   6241397.27645  22388778.0784                   22388777.2344
  33786430.781 5                  24527882.352
 -48811395.28148 -37991866.25046  21618440.2814                   21618436.9534
 11  8 15  2 40  0.0000000  0  8G12G25G10G26G05G29G15G02
 -29535564.14548 -22984831.75546  21551119.1094                   21551118.5434
 -10040350.62548  -7804688.72546  21542902.2114                   21542903.7154
 -29725543.03947 -23149788.51543  23632552.7114   23632551.6954   21303064.14146
  16616996.44443                  23555547.5784                   23555546.6414
 -28426306.80148 -22131142.96047  20358375.3364   20358373.9344
   7806526.99247   6099291.80345  22354074.1334                   22354073.8874
  33590173.85545  26191322.66453  24490535.3134                   24490537.5634
 -48873429.08648 -38040204.26146  21606635.6484                   21606632.5234
 11  8 15  2 40 30.0000000  0  8G12G25G10G26G05G29G15G02
 -29570460.73047 -23012023.90246  21544479.1884                   21544477.8324
 -10135732.44948  -7879012.21646  21524751.4384                   21524753.2234
 -29722243.41047 -23147217.35343  23633180.7194   23633179.6604   21106110.86347
  16463526.45244                  23518069.1954                   23518068.7504
 -28499473.51248 -22188155.97747  20344452.4614   20344451.0274
   7624269.79347   5957273.25945  22319391.5864                   22319391.4884
  33393812.93046  26038314.36243  24453169.7894                   24453169.5554
 -48935358.27348 -38088460.75946  21594850.8134                   21594847.8134
 11  8 15  2 41  0.0000000  0  8G12G25G10G26G05G29G15G02
 -29604938.40648 -23038889.60846  21537918.0084                   21537916.9774
 -10230526.29348  -7952877.54246  21506712.8134                   21506714.4304
 -29718782.06647 -23144520.21343  23633839.4384   23633839.3244   20909259.28547
  16310135.64344                  23480609.0474                   23480608.7114
 -28572116.77048 -22244761.11247  20330628.7814   20330627.5044
   7442129.44947   5815345.77745  22284731.6644                   22284731.2894
  33197353.64846  25885229.30142  24415783.8054                   24415783.0824
 -48997179.59848 -38136633.21746  21583086.5314                   21583083.5704
 11  8 15  2 41 30.0000000  0  8G12G25G10G26G05G29G15G02
 -29638998.25848 -23065429.74246  21531436.6024                   21531435.6174
 -10324731.57848  -8026284.25546  21488786.1644                   21488787.7814
 -29715160.30947 -23141698.02143  23634528.7504   23634528.0474   20712514.33247
  16156827.98744                  23443169.7274                   23443169.4264
 -28644236.84448 -22300958.56147  20316904.6804   20316903.5474
   7260109.40247   5673512.03045  22250094.4384                   22250093.8524
  33000800.00046  25732070.74243  24378380.6024                   24378380.3794
 -49058891.80948 -38184720.65546  21571342.8204                   21571340.1054
 11  8 15  2 42  0.0000000  0  8G12G25G10G26G05G29G15G02
 -29672643.50048 -23091646.82746  21525034.0314                   21525032.9494
 -10418349.70748  -8099233.44546  21470971.2274                   21470972.7544
 -29711381.42647 -23138753.45243  23635248.0004   23635246.8324   20515878.75847
  16003605.50444                  23405751.0004                   23405751.2854
 -28715836.43448 -22356750.44247  20303279.7424   20303278.4884
   7078210.75447   5531772.88245  22215480.2814                   22215479.3674
  32804153.79346  25578840.07443  24340959.9534                   24340959.4104
 -49120495.91047 -38232723.83646  21559620.4694                   21559617.2894
 11  8 15  2 42 30.0000000  0  8G12G25G10G26G05G29G15G02
 -28130453.67647 -21889940.46346  21818503.3364                   21818502.6174
  -8935956.15648  -6944121.59046  21753061.5004                   21753063.3714
 -28132026.12547 -21908086.96743  23935788.8674   23935788.1134   21894784.86347
  17078077.85344                  23668147.4224                   23668148.5234
 -27211492.42248 -21184534.32547  20589546.7814   20589545.5434
   8471863.73847   6617736.30245  22480683.6724                   22480682.9184
  34182846.26246  26653145.91943  24603317.0234                   24603314.8204
 -47606567.52347 -37053039.37346  21847710.9844                   21847708.3244
 11  8 15  2 43  0.0000000  0  8G12G25G10G26G05G29G15G02
 -28163272.78547 -21915513.79646  21812257.9694                   21812257.0124
  -9028397.04347  -7016153.45346  21735470.2194                   21735472.1054
 -28127935.79346 -21904899.68143  23936567.2974   23936567.1954   21698384.03947
  16925038.32344                  23630774.3754                   23630774.0164
 -27282050.60548 -21239514.73647  20576120.1334   20576118.8244
   8290219.17647   6476195.14145  22446117.7034                   22446116.8984
  33986027.85946  26499781.12843  24565863.6954                   24565862.7114
 -47667950.11747 -37100869.94746  21836030.2894                   21836027.6604
 11  8 15  2 43 30.0000000  0  8G12G25G10G26G05G29G15G02
 -28195682.39547 -21940768.04446  21806090.5084                   21806089.5744
  -9120250.11348  -7087727.27946  21717991.0314                   21717992.8484
 -28123693.03546 -21901593.65043  23937374.6724   23937373.9734   21502106.10547
  16772094.52544                  23593423.8204                   23593423.2934
 -27352090.35248 -21294091.15547  20562792.0704   20562790.6054
   8108704.88347   6334755.49145  22411576.8204                   22411575.9064
  33789127.67646  26346352.47143  24528393.6644                   24528393.0904
 -47729222.18747 -37148614.39145  21824370.9844                   21824367.8054
 11  8 15  2 44  0.0000000  0  8G12G25G10G26G05G29G15G02
 -28227686.89847 -21965706.61646  21800000.0944                   21799998.8954
  -9211518.05948  -7158845.16346  21700623.7734                   21700624.9454
 -28119302.21946 -21898172.23543  23938210.0164   23938210.1094   21305952.94147
  16619247.92544                  23556097.1024                   23556096.2624
 -27421615.34048 -21348266.47247  20549561.7664   20549560.2734
   7927321.20347   6193417.63145  22377060.5784                   22377060.0704
  33592146.62945  26192860.88742  24490909.8914                   24490908.4884
 -47790385.22347 -37196273.90446  21812731.7814                   21812728.8954
 11  8 15  2 44 30.0000000  0  8G12G25G10G26G05G29G15G02
 -28259285.53547 -21990328.93846  21793987.0704                   21793986.3444
  -9302198.18748  -7229505.01646  21683367.8524                   21683369.3204
 -28114762.66846 -21894634.93943  23939074.2734   23939073.9344   21109931.60247
  16466504.10944                  23518795.5314                   23518795.3484
 -27490623.60948 -21402039.15047  20536429.9454   20536428.4694
   7746073.66047   6052185.86345  22342570.0944                   22342569.8634
  33395090.84445  26039311.03142  24453411.6334                   24453409.9654
 -47851435.84447 -37243845.79845  21801114.5314                   21801110.8014
 11  8 15  2 45  0.0000000  0  8G12G25G10G26G05G29G15G02
 -28290484.13747 -22014639.53846  21788050.3444                   21788049.1484
  -9392294.12947  -7299709.66146  21666223.1484                   21666224.9184
 -28110080.05146 -21890986.24243  23939965.0634   23939964.9454   20914043.06347
  16313863.73744                  23481518.7814                   23481519.2734
 -27559119.98048 -21455412.94147  20523395.7894   20523394.2544
   7564961.40647   5911059.50445  22308105.3834                   22308104.8284
  33197959.96545  25885702.78142  24415898.1484                   24415898.3204
 -47912376.81647 -37291332.26046  21789517.3054                   21789514.7034
 11  8 15  2 45 30.0000000  0  8G12G25G10G26G05G29G15G02
 -28321287.20748 -22038641.92946  21782188.5314                   21782187.6804
  -9481808.80148  -7369461.35846  21649189.1644                   21649190.7384
 -28105258.71146 -21887229.34943  23940882.7664   23940882.3164   20718288.97347
  16161328.10344                  23444268.1094                   23444268.0274
 -27627108.12148 -21508390.70747  20510457.8834   20510456.6374
   7383984.32047   5770038.47645  22273666.4774                   22273665.9224
  33000754.79345  25732036.52342  24378370.8984                   24378371.5204
 -47973210.32847 -37338734.98046  21777940.8524                   21777938.4104
 11  8 15  2 46  0.0000000  0  8G12G25G10G26G05G29G15G02
 -28351697.46147 -22062338.23446  21776401.7274                   21776401.0634
  -9570743.67248  -7438761.27146  21632265.6564                   21632267.2384
 -28100301.68447 -21883366.83343  23941826.5084   23941825.0594   20522671.94147
  16008899.28544                  23407043.6644                   23407042.8364
 -27694590.53148 -21560974.40746  20497616.3914   20497614.8364
   7203143.94147   5629123.95345  22239253.7034                   22239253.2584
  32803477.28145  25578313.87542  24340830.8594                   24340830.4804
 -48033936.90647 -37386054.37945  21766385.2504                   21766382.5394
 11  8 15  2 46 30.0000000  0  8G12G25G10G26G05G29G15G02
 -28381714.52747 -22085728.17846  21770689.5394                   21770688.4494
  -9659095.82848  -7507607.11646  21615452.6804                   21615454.0554
 -28095207.69947 -21879397.43443  23942795.1334   23942793.4264   20327199.63747
  15856583.22444                  23369846.5864                   23369845.8244
 -27761565.16848 -21613162.44147  20484871.5704   20484870.1374
   7022446.41447   5488320.75145  22204868.0554                   22204867.5434
  32606133.88745  25424539.92242  24303277.6804                   24303275.5354
 -48094552.94148 -37433287.64446  21754850.4614                   21754847.5044
 11  8 15  2 47  0.0000000  0  8G12G25G10G26G05G29G15G02
 -28411339.44947 -22108812.52746  21765052.3284                   21765051.0744
  -9746864.72748  -7575998.46946  21598750.5084                   21598751.9734
 -28089977.75846 -21875322.19643  23943790.3444   23943788.4384   20131877.21547
  15704383.98844                  23332677.8134                   23332677.7934
 -27828032.10248 -21664954.85347  20472223.2504   20472221.8954
   6841895.15647   5347631.53045  22170510.2344                   22170509.8094
  32408729.195 5                  24265712.508
 -48155056.57448 -37480433.32746  21743336.7814                   21743334.1094
 11  8 15  2 47 30.0000000  0  8G12G25G10G26G05G29G15G02
 -28440574.16047 -22131592.82846  21759489.2894                   21759487.6094
  -9834050.94148  -7643935.78746  21582159.7814                   21582161.3794
 -28084613.96146 -21871142.59343  23944810.9614   23944809.0904   19936708.82047
  15552304.78344                  23295538.1094                   23295537.5314
 -27893993.03548 -21716352.97847  20459671.2664   20459670.0634
   6661492.48447   5207058.09146  22136180.9614                   22136180.5744
  32211265.953 5                  24228135.648
 -48215447.64547 -37527491.28446  21731845.2734                   21731842.0044
 11  8 15  2 48  0.0000000  0  8G12G25G10G26G05G29G15G02
 -28469427.36347 -22154075.83646  21753998.2974                   21753997.1724
  -9920660.98448  -7711424.13146  21565678.2584                   21565680.0744
 -28079124.66846 -21866865.31743  23945856.3914   23945854.6454   19741692.61347
  15400344.16044                  23258427.5164                   23258426.9804
 -27959455.40248 -21767362.61946  20447214.4064   20447212.5314
   6481235.15647   5066597.91346  22101878.5164                   22101878.7114
  32013741.44115                  24190548.617
 -48275731.73448 -37574465.88046  21720373.6334                   21720370.4104
 11  8 15  2 48 30.0000000  0  8G12G25G10G26G05G29G15G02
 -28497898.02347 -22176260.77946  21748580.5634                   21748579.1844
 -10006692.29348  -7778461.50946  21549307.1024                   21549308.3324
 -28073508.35946 -21862488.98343  23946924.7114   23946924.1764   19546835.43847
  15248507.39844                  23221347.7274                   23221347.4494
 -28024417.19548 -21817982.19347  20434852.3364   20434850.7344
   6301128.73047   4926255.31246  22067606.1644                   22067605.3204
  31816162.07446  24808977.97553  24152950.4924                   24152947.6334
 -48335905.39548 -37621354.44445  21708922.4534                   21708919.4804
 11  8 15  2 49  0.0000000  0  8G12G25G10G26G05G29G15G02
 -28525990.19948 -22198150.79946  21743234.8594                   21743234.0554
 -10092147.13348  -7845049.68446  21533045.6174                   21533047.2344
 -28067769.05946 -21858016.89243  23948016.4144   23948016.7424   19352140.27747
  15096796.91844                  23184298.5784                   23184298.1804
 -28088881.50048 -21868214.10646  20422585.3594   20422584.0554
   6121174.21547   4786031.07145  22033361.5234                   22033360.7074
  31618529.18446  24654978.40642  24115342.6564                   24115340.3054
 -48395969.40648 -37668157.54445  21697492.4454                   21697490.0984
 11  8 15  2 49 30.0000000  0  8G12G25G10G26G05G29G15G02
 -28553707.90648 -22219749.00346  21737960.2814                   21737959.4534
 -10177027.92648  -7911190.54846  21516893.5004                   21516895.1724
 -28061910.69146 -21853451.97243  23949131.7344   23949131.7344   19157609.10947
  14945214.21344                  23147280.5164                   23147279.8324
 -28152851.79348 -21918061.08547  20410412.1094   20410410.8524
   5941372.16847   4645925.64946  21999146.2974                   21999145.7624
  31420844.52746  24500938.55443  24077723.9774                   24077723.0514
 -48455925.43748 -37714876.49745  21686083.7034                   21686080.6024
 11  8 15  2 50  0.0000000  0  8G12G25G10G26G05G29G15G02
 -28581053.47748 -22241057.24546  21732756.5554                   21732755.6914
 -10261335.32448  -7976884.61646  21500850.2504                   21500851.4264
 -28055934.93746 -21848795.69643  23950268.7504   23950269.4144   18963246.28547
  14793762.68544                  23110294.7734                   23110293.6054
 -28216329.77048 -21967524.44446  20398332.7424   20398331.4884
   5761725.40248   4505941.21546  21964960.2034                   21964959.8094
  31223111.04746  24346860.62143  24040096.3594                   24040096.0084
 -48515772.73848 -37761510.73446  21674694.6644                   21674692.1844
 11  8 15  2 50 30.0000000  0  8G12G25G10G26G05G29G15G02
 -27032604.78948 -21034473.84946  22027416.7664                   22027415.5634
  -8769644.09048  -6814527.79746  21784709.6644                   21784711.0514
 -26474421.15846 -20616447.25743  24251220.8594   24251220.6604   20344485.31647
  15870052.86944                  23373135.6334                   23373134.8794
 -26703891.23048 -20789000.90046  20686139.7114   20686138.8524
   7157665.55547   5593686.85846  22230599.0004   22230598.4734   32600761.59446
  25420354.67843  24302254.8754   24302254.0864
 -47000085.71947 -36580455.89045  21963120.4224                   21963117.4344
 11  8 15  2 51  0.0000000  0  8G12G25G10G26G05G29G15G02
 -27059208.67648 -21055204.15346  22022354.0394                   22022353.2504
  -8852802.34848  -6879326.42246  21768885.2504                   21768886.5354
 -26468212.65646 -20611609.51543  24252402.9534   24252402.8404   20150475.57847
  15718876.48444                  23336216.6954                   23336216.5744
 -26766383.85548 -20837696.44446  20674248.1884   20674246.7034
   6978341.00447   5453953.49446  22196474.7424   22196474.1214   32402944.59046
  25266211.79143  24264611.7664   24264609.9024
 -47059710.06647 -36626916.39645  21951774.2194                   21951771.1954
 11  8 15  2 51 30.0000000  0  8G12G25G10G26G05G29G15G02
 -27085447.56248 -21075650.04346  22017361.2424                   22017360.4144
  -8935389.28948  -6943679.85246  21753169.3834                   21753171.2504
 -26461893.03146 -20606685.18043  24253604.6334   24253604.6564   19956646.43847
  15567840.85644                  23299332.5004                   23299331.5904
 -26828388.07048 -20886011.39747  20662448.9694   20662447.7894
   6799179.65247   5314347.31546  22162381.5554   22162380.6414   32205088.77346
  25112038.58943  24226960.2424   24226959.2584
 -47119224.32447 -36673291.11545  21940449.1954                   21940446.1684
 11  8 15  2 52  0.0000000  0  8G12G25G10G26G05G29G15G02
 -27111323.79348 -21095813.33546  22012437.0944                   22012436.1804
  -9017405.85248  -7007588.85646  21737562.0944                   21737563.7774
 -26455464.38346 -20601675.94743  24254828.5784   24254828.4614   19763001.81647
  15416948.97044                  23262482.9614                   23262482.6094
 -26889905.86748 -20933947.33746  20650742.7584   20650741.2464
   6620183.55147   5174869.88246  22128319.4614   22128318.8484   32007196.37946
  24957836.84943  24189302.2274   24189301.6604
 -47178628.28947 -36719579.89145  21929144.6954                   21929141.8524
 11  8 15  2 52 30.0000000  0  8G12G25G10G26G05G29G15G02
 -27136842.88748 -21115698.35446  22007581.2344                   22007579.7624
  -9098855.74248  -7071056.27446  21722062.9064                   21722064.5554
 -26448931.68746 -20596585.59443  24256071.7734   24256071.0234   19569542.93447
  15266201.80044                  23225669.0164                   23225668.9064
 -26950941.63748 -20981507.66347  20639127.9694   20639126.5124
   6441352.54747   5035521.10446  22094289.1334   22094288.0354   31809268.03546
  24803607.16943  24151638.3444   24151637.2624
 -47237924.20747 -36765784.47145  21917861.2584                   21917858.1294
 11  8 15  2 53  0.0000000  0  8G12G25G10G26G05G29G15G02
 -27162005.06248 -21135305.24546  22002792.9454                   22002791.2154
  -9179737.90648  -7134081.31046  21706671.2504                   21706672.7854
 -26442295.14546 -20591414.32443  24257335.1484   24257334.4384   19376275.84447
  15115604.07544                  23188891.3134                   23188891.3834
 -27011495.34047 -21028692.35646  20627605.1414   20627603.8054
   6262690.93047   4896304.30246  22060290.9304   22060289.8754   31611309.16846
  24649353.52443  24113966.8204   24113966.3524
 -47297109.75847 -36811903.06245  21906598.7344                   21906595.3554
 11  8 15  2 53 30.0000000  0  8G12G25G10G26G05G29G15G02
 -27186812.71147 -21154635.87746  21998072.1954                   21998070.6604
  -9260052.86748  -7196664.38946  21691387.4774                   21691389.0314
 -26435556.34846 -20586163.41442  24258617.7974   24258616.8404   19183204.80547
  14965159.11144                  23152151.2814                   23152150.5704
 -27071567.90248 -21075502.13346  20616173.6724   20616172.1914
   6084201.82847   4757221.92746  22026325.7664   22026324.8834   31413323.07446
  24495078.73343  24076291.4614   24076290.8524
 -47356183.98447 -36857934.89445  21895357.2424                   21895353.6414
 11  8 15  2 54  0.0000000  0  8G12G25G10G26G05G29G15G02
 -27211270.33647 -21173693.77346  21993417.9454                   21993417.0434
  -9339803.80948  -7258807.96546  21676211.7424                   21676212.9574
 -26428719.36746 -20580835.86742  24259918.6414   24259917.7584   18990331.86347
  14814868.54644                  23115448.0554                   23115447.7974
 -27131163.03148 -21121939.87246  20604832.9534   20604831.3164
   5905885.54347   4618274.22046  21992393.2344   21992392.4384   31215310.68846
  24340783.45743  24038611.2734   24038609.5704
 -47415148.99647 -36903881.65246  21884136.4064                   21884133.2624
 11  8 15  2 54 30.0000000  0  8G12G25G10G26G05G29G15G02
 -27235381.04347 -21192481.32546  21988829.6024                   21988828.8674
  -9418992.24248  -7320513.22746  21661142.5634                   21661144.4224
 -26421787.07046 -20575434.16042  24261237.1094   24261237.5984   18797660.46547
  14664734.99144                  23078784.4774                   23078783.9264
 -27190283.39848 -21168007.67947  20593582.4774   20593581.0904
   5727743.77347   4479462.51746  21958493.5864   21958492.6994   31017274.92246
  24186470.02843  24000925.8914   24000925.0474
 -47474004.75447 -36949743.24345  21872936.8674                   21872933.6414
 11  8 15  2 55  0.0000000  0  8G12G25G10G26G05G29G15G02
 -27259147.53948 -21211000.68046  21984307.4454                   21984306.5004
  -9497619.47348  -7381781.19546  21646180.1564                   21646181.7734
 -26414761.94145 -20569960.11342  24262574.8364   24262574.0704   18605194.24647
  14514761.30244                  23042159.6724                   23042158.9734
 -27248930.78948 -21213706.92247  20582422.5554   20582421.0474
   5549778.88747   4340788.63646  21924627.8204   21924627.3554   30819218.14846
  24032140.03443  23963237.2504   23963235.4344
 -47532751.30147 -36995519.77845  21861757.7114                   21861754.5594
 11  8 15  2 55 30.0000000  0  8G12G25G10G26G05G29G15G02
 -27282573.82048 -21229254.92946  21979849.4774                   21979848.1214
  -9575687.91848  -7442613.74146  21631324.6484                   21631325.9184
 -26407647.17645 -20564416.12142  24263928.3984   24263928.3594   18412935.96147
  14364949.63144                  23005573.6414                   23005573.1684
 -27307108.10248 -21259039.88247  20571351.8984   20571350.5314
   5371992.10547   4202253.54046  21890796.1644   21890795.5864   30621142.44546
  23877795.36743  23925545.0234   23925542.7624
 -47591389.58247 -37041211.94245  21850599.3754                   21850596.3054
 11  8 15  2 56  0.0000000  0  8G12G25G10G26G05G29G15G02
 -27305662.28148 -21247245.94846  21975456.0944                   21975454.7074
  -9653198.50448  -7503011.61346  21616574.3594                   21616575.8554
 -26400444.89546 -20558804.02843  24265298.4774   24265298.5394   18220889.66047
  14215303.20744                  22969028.4454                   22969027.9694
 -27364817.10548 -21304007.92447  20560370.0864   20560368.8914
   5194386.06647   4063859.26146  21856998.8594   21856997.8634   30423051.22746
  23723438.60043  23887848.9534   23887847.7194
 -47649918.84447 -37086819.14445  21839461.4304                   21839458.3754
 11  8 15  2 56 30.0000000  0  8G12G25G10G26G05G29G15G02
 -27328418.41447 -21264977.98646  21971125.4064                   21971124.5634
  -9730155.13348  -7562977.80946  21601930.3834                   21601932.0314
 -26393159.85246 -20553127.40643  24266685.2034   24266685.6374   18029056.73047
  14065822.99144                  22932523.7584                   22932523.3324
 -27422062.52047 -21348614.72247  20549476.5234   20549474.9734
   5016960.30147   3925605.45846  21823235.9064   21823235.4414   30224944.84446
  23569070.06343  23850150.5084   23850149.7114
 -47708341.68747 -37132343.42545  21828343.7584                   21828340.6174
 11  8 15  2 57  0.0000000  0  8G12G25G10G26G05G29G15G02
 -27350842.66847 -21282451.43046  21966858.1174                   21966857.0784
  -9806556.60248  -7622511.42146  21587391.3594                   21587392.8404
 -26385791.77346 -20547386.10243  24268087.6644   24268088.1954   17837443.65647
  13916514.11644                  22896061.5634                   22896061.0784
 -27478843.63348 -21392859.73947  20538671.3524   20538670.1914
   4839719.84447   3787496.08146  21789507.8594   21789507.6804   30026828.62546
  23414693.81543  23812450.1564   23812448.5744
 -47766654.95747 -37177782.32145  21817246.9694                   21817243.8244
 11  8 15  2 57 30.0000000  0  8G12G25G10G26G05G29G15G02
 -27372936.12548 -21299667.10646  21962654.0784                   21962652.7504
  -9882402.89848  -7681612.43546  21572958.5234                   21572959.8014
 -26378341.63747 -20541580.87444  24269506.0394   24269505.7934   17646055.30147
  13767380.30145                  22859641.3674                   22859641.2974
 -27535161.00048 -21436743.39247  20527954.6724   20527953.5944
   4662668.29347   3649533.88146  21755816.2194   21755815.9534   29828706.87146
  23260313.27143  23774749.2194   23774747.7274
 -47824857.35947 -37223134.82645  21806171.3364                   21806168.5124
 11  8 15  2 58  0.0000000  0  9G12G25G10G26G05G29G15G21G02
 -25819285.23847 -20089030.04446  22258303.4224                   22258302.5784
  -8382277.25448  -6512683.36246  21858422.6254                   21858424.4494
 -24795396.00846 -19308116.86344  24570730.5944   24570730.2344   19030317.68447
  14846026.31844                  23123057.8674                   23123057.2664
 -26015599.27748 -20252669.31247  20817117.6644   20817116.4384
   6061229.64547   4739322.00246  22021953.3754   22021953.1024   31206005.01246
  24333532.67243  24036840.3284   24036838.8834
  39154346.68456  30523568.06652  25317723.1414                   25317724.4884
 -46307531.16047 -36040802.69945  22094909.1884                   22094906.0904
 11  8 15  2 58 30.0000000  0  9G12G25G10G26G05G29G15G21G02
 -25840739.81247 -20105747.91145  22254220.8674                   22254220.8014
  -8457031.92248  -6570933.75346  21844197.4454                   21844198.5474
 -24787802.50046 -19302199.87443  24572174.7974   24572174.9224   18839376.07447
  14697240.67544                  23086722.1954                   23086721.9774
 -26071009.91048 -20295846.41347  20806573.3914   20806572.1804
   5884548.49247   4601648.41446  21988332.3444   21988331.4494
  31007866.74646  24179139.17743  23999135.1414                   23999134.9024
  38995615.41046  30399881.48442  25287517.0554                   25287517.5594
 -46365525.78147 -36085993.28745  22083873.1724                   22083870.0904
 11  8 15  2 59  0.0000000  0  9G12G25G10G26G05G29G15G21G02
 -25861888.61347 -20122227.51446  22250196.5314                   22250196.0864
  -8531251.78148  -6628767.39746  21830074.0864                   21830075.2424
 -24780149.76246 -19296236.76943  24573630.8204   24573630.9454   18648654.60547
  14548626.52344                  23050429.0784                   23050429.0204
 -26125979.13348 -20338679.55747  20796113.1804   20796111.6254
   5708047.07847   4464114.90046  21954745.1884   21954744.5944
  30809715.93446  24024736.00643  23961428.7114                   23961428.3754
  38836899.29746  30276206.73042  25257315.3754                   25257314.3364
 -46423424.73847 -36131109.33845  22072855.2974                   22072852.4384
 11  8 15  2 59 30.0000000  0  9G12G25G10G26G05G29G15G21G02
 -25882731.81648 -20138468.96146  22246230.4534                   22246229.1724
  -8604936.21548  -6686183.84046  21816052.0474                   21816054.2304
 -24772437.77346 -19290227.34943  24575097.5314   24575097.4804   18458159.28147
  14400188.59144                  23014179.6024                   23014179.1134
 -26180506.84448 -20381168.68347  20785736.7814   20785735.3054
   5531730.12947   4326725.12546  21921193.0234   21921192.4964
  30611557.64146  23870326.93343  23923720.0704                   23923720.2624
  38678200.01246  30152545.00842  25227115.6564                   25227114.4574
 -46481225.91847 -36176149.18445  22061856.5554                   22061853.3284
 11  8 15  3  0  0.0000000  0  9G12G25G10G26G05G29G15G21G02
 -25903272.57847 -20154474.73745  22242321.5084                   22242320.2034
  -8678086.69548  -6743184.21646  21802132.1564                   21802134.1484
 -24764668.66845 -19284173.63342  24576576.6644   24576576.1334   18267893.94147
  14251929.89744                  22977972.9534                   22977972.8134
 -26234595.32448 -20423315.54047  20775444.1804   20775442.6414
   5355599.76648   4189480.73946  21887676.3914   21887675.3754
  30413394.78546  23715914.37643  23886011.1884                   23886011.3954
  38519517.09846  30028896.13342  25196919.3284                   25196919.1914
 -46538929.12547 -36221112.69245  22050875.4924                   22050872.8594
 11  8 15  3  0 30.0000000  0  9G12G25G10G26G05G29G15G21G02
 -25923512.99647 -20170246.48545  22238470.0004                   22238468.6094
  -8750704.12148  -6799769.21546  21788313.4774                   21788315.4844
 -24756844.30946 -19278076.75042  24578065.4384   24578065.1994   18077862.87947
  14103853.75045                  22941811.5944                   22941811.3754
 -26288245.89548 -20465121.17247  20765234.6174   20765233.1094
   5179658.90248   4052384.01946  21854196.2664   21854194.8874
  30215230.83646  23561500.97943  23848301.5164                   23848301.7894
  38360850.77346  29905260.20643  25166725.7814                   25166727.3054
 -46596533.32847 -36265999.06945  22039913.7344                   22039910.8364
 11  8 15  3  1  0.0000000  0  9G12G25G10G26G05G29G15G21G02
 -25943451.15647 -20185782.71245  22234675.7424                   22234674.9384
  -8822785.42648  -6855936.44946  21774597.2194                   21774598.6684
 -24748962.07845 -19271934.83642  24579566.3524   24579565.4774   17888074.68047
  13955966.86944                  22905695.9224                   22905695.5084
 -26341455.55548 -20506583.24747  20755109.1954   20755107.7154
   5003914.73848   3915440.55446  21820752.8444   21820752.3324
  30017073.80146  23407092.98343  23810593.6334                   23810593.4574
  38202205.36346  29781640.50643  25136536.6414                   25136537.9654
 -46654033.94547 -36310804.73445  22028971.9774                   22028968.8204
 11  8 15  3  1 30.0000000  0  9G12G25G10G26G05G29G15G21G02
 -25963090.50047 -20201086.10445  22230938.5394                   22230937.9384
  -8894332.73848  -6911687.59746  21760981.9614                   21760983.6644
 -24741024.80146 -19265749.91842  24581077.1174   24581074.9694   17698532.57047
  13808271.76844                  22869627.4534                   22869626.7934
 -26394227.30948 -20547704.08047  20745067.1724   20745065.7854
   4828368.48448   3778651.30546  21787347.6024   21787347.1764
  29818925.71146  23252691.97443  23772887.8444                   23772886.5864
  38043579.71946  29658036.24242  25106350.6484                   25106350.3554
 -46711431.12547 -36355529.77745  22018049.3204                   22018046.4184
 11  8 15  3  2  0.0000000  0  9G12G25G10G26G05G29G15G21G02
 -25982432.59447 -20216157.86846  22227258.0474                   22227257.3594
  -8965346.25448  -6967022.80446  21747468.6024                   21747469.9804
 -24733033.36346 -19259522.83642  24582598.3834   24582595.6214   17509241.70747
  13660772.42244                  22833606.2974                   22833605.8364
 -26446562.09848 -20588484.44047  20735108.2974   20735106.9534
   4653024.20348   3642019.45646  21753980.4454   21753980.0124
  29620791.26646  23098301.46544  23735184.2734                   23735182.9264
  37884974.78146  29534448.08343  25076170.0314                   25076169.3954
 -46768723.42248 -36400173.09445  22007147.2424                   22007144.0204
 11  8 15  3  2 30.0000000  0  8G12G25G26G05G29G15G21G02
 -26001481.58247 -20231001.25545  22223633.0394                   22223632.0824
  -9035828.81648  -7021944.28346  21734056.1254                   21734057.7934
  17320204.78147  13513470.98444  22797633.8284                   22797632.8404
 -26498463.11348 -20628926.78347  20725231.6644   20725230.7624
   4477883.12148   3505545.93946  21720652.2344   21720651.7664
  29422672.30146  22943923.14643  23697483.1644                   23697482.7344
  37726389.00846  29410874.92543  25045991.2274                   25045992.5044
 -46825911.53548 -36444735.23345  21996264.5944                   21996261.2464
 11  8 15  3  3  0.0000000  0  8G12G25G26G05G29G15G21G02
 -26020237.92647 -20245616.58245  22220063.7194                   22220062.6024
  -9105779.52748  -7076451.31146  21720745.0314                   21720746.6334
  17131427.85947  13366372.17544  22761709.9694                   22761709.9414
 -26549930.05148 -20669030.88847  20715437.8524   20715436.4344
   4302950.19948   3369234.62246  21687363.9774   21687363.1054
  29224573.85946  22789560.73944  23659785.7504                   23659785.7814
  37567824.60546  29287318.30943  25015817.4844                   25015817.7194
 -46882992.85948 -36489214.15745  21985402.4064                   21985399.1134
 11  8 15  3  3 30.0000000  0  8G12G25G26G05G29G15G21G02
 -26038696.65647 -20260000.01345  22216550.8204                   22216550.1054
  -9175192.27748  -7130539.16946  21707536.1024                   21707537.3524
  16942922.69147  13219485.09344  22725839.0944                   22725838.7734
 -26600956.88348 -20708792.06247  20705727.7424   20705726.6374
   4128235.46548   3233093.32446  21654116.6174   21654116.1334
  29026507.03546  22635223.08643  23622095.1174                   23622094.6954
  37409288.55946  29163783.87343  24985648.7344                   24985648.6454
 -46939959.23448 -36533603.50345  21974562.0864                   21974558.5664
 11  8 15  3  4  0.0000000  0  8G12G25G26G05G29G15G21G02
 -26056856.31647 -20274150.39245  22213095.5234                   22213094.4414
  -9244064.60548  -7184205.91746  21694430.0864                   21694431.3244
  16754697.32847  13072816.03745  22690021.4774                   22690021.5594
 -26651541.78148 -20748208.86647  20696101.7894   20696100.2074
   3953745.21148   3097126.94846  21620912.1414   21620911.5554
  28828479.07046  22480915.67544  23584411.7274                   23584410.3524
  37250785.10946  29040274.87043  24955487.4454                   24955487.2424
 -46996806.16848 -36577899.77545  21963744.4534                   21963741.2384
 11  8 15  3  4 30.0000000  0  8G12G25G26G05G29G15G21G02
 -26074720.41448 -20288070.48545  22209696.3284                   22209695.1524
  -9312398.57848  -7237453.15946  21681426.8054                   21681427.7384
  16566755.16047  12926367.67745  22654257.5004                   22654256.5594
 -26701687.37148 -20787283.34847  20686559.5474   20686557.7664
   3779481.64548   2961337.19046  21587751.3284   21587750.1684
  28630492.55546  22326640.55744  23546736.0784                   23546735.1804
  37092312.84446  28916790.10443  24925331.2034                   24925330.7384
 -47053534.22348 -36622103.41545  21952949.2584                   21952946.0084
 11  8 15  3  5  0.0000000  0  8G12G25G26G05G29G15G21G02
 -26092293.87548 -20301764.08846  22206352.2424                   22206351.2234
  -9380198.13748  -7290283.98246  21668525.0474                   21668526.5634
  16379097.85247  12780141.28144  22618546.1644                   22618546.0004
 -26751398.07848 -20826018.96247  20677099.7274   20677098.3874
   3605444.89848   2825724.19646  21554632.9064   21554632.2734
  28432548.44546  22172398.49943  23509067.9614                   23509066.7154
  36933869.62146  28793327.96843  24895179.7344                   24895180.7624
 -47110144.96547 -36666215.65245  21942176.5554                   21942173.1094
 11  8 15  3  5 30.0000000  0  8G12G25G26G05G29G15G21G02
 -26109577.79748 -20315232.08445  22203063.1334                   22203061.4144
  -9447462.93448  -7342698.10146  21655724.6724                   21655726.1334
  16191731.19147  12634141.34744  22582891.9694                   22582891.6564
 -26800673.88348 -20864415.68946  20667722.5084   20667721.5164
   3431639.40248   2690291.39446  21521558.9224   21521558.1414
  28234651.79346  22018193.37344  23471409.7424                   23471408.9924
  36775456.71146  28669889.41843  24865034.6724                   24865035.2734
 -47166636.18748 -36710234.75145  21931426.2584                   21931422.7894
 11  8 15  3  6  0.0000000  0  8G12G25G26G05G29G15G21G02
 -24551158.60547 -19100879.46645  22499620.7734                   22499619.2274
  -7938777.37548  -6167098.95546  21942817.8674                   21942819.4224
  17580080.27047  13715971.85945  22847085.7584                   22847085.5164
 -25274100.18048 -19674877.73446  20958220.4534   20958218.8524
   4833488.70348   3782641.53946  21788321.9304   21788320.9304
  29612227.48846  23091629.01744  23733553.7504                   23733553.0434
  38192494.28546  29774074.65143  25134687.9224                   25134688.2344
 -45647590.45748 -35526562.71745  22220491.3204                   22220488.1684
 11  8 15  3  6 30.0000000  0  8G12G25G26G05G29G15G21G02
 -24567884.30547 -19113912.49345  22496437.7734                   22496436.4384
  -8004990.69148  -6218693.73846  21930217.9534                   21930219.1884
  17393293.60247  13570423.87044  22811541.6884                   22811540.8714
 -25322525.55948 -19712611.79346  20949004.9924   20949003.7274
   4660140.59048   3647565.13946  21755334.4144   21755333.5124
  29414422.03546  22937494.97643  23695911.8984                   23695911.0864
  38034128.40246  29650672.72443  25104551.4694                   25104551.6844
 -45703854.37948 -35570404.70745  22209784.0474                   22209781.3914
 11  8 15  3  7  0.0000000  0  8G12G25G26G05G29G15G21G02
 -24584334.25847 -19126730.64245  22493307.5314                   22493306.3364
  -8070679.67248  -6269879.95846  21917718.0164                   21917719.5274
  17206803.80147  13425107.17644  22776053.8364                   22776053.3364
 -25370527.89548 -19750016.20646  20939870.7114   20939869.4384
   4487025.77048   3512670.51346  21722391.7274   21722390.6884
  29216668.16046  22783401.11943  23658281.1414                   23658279.5394
  37875786.87946  29527289.84743  25074419.6954                   25074420.6254
 -45760002.86748 -35614156.77145  22199099.8204                   22199096.6214
 11  8 15  3  7 30.0000000  0  8G12G25G26G05G29G15G21G02
 -24600511.00447 -19139335.89945  22490229.0474                   22490227.8984
  -8135846.17648  -6320659.03746  21905317.0164                   21905318.2464
  17020614.89547  13280024.92845  22740623.2664                   22740622.8444
 -25418108.94948 -19787092.33846  20930816.5164   20930814.8554
   4314146.61748   3377959.51646  21689494.2974   21689493.3444
  29018968.86346  22629349.73943  23620659.9224                   23620658.7154
  37717469.05547  29403925.43143  25044293.5554                   25044292.6094
 -45816035.79347 -35657818.77545  22188437.3364                   22188434.0904
 11  8 15  3  8  0.0000000  0  8G12G25G26G05G29G15G21G02
 -24616420.50047 -19151732.92345  22487201.3754                   22487200.1684
  -8200494.79348  -6371034.55246  21893014.5314                   21893016.3674
  16834727.84447  13135177.87645  22705249.8674                   22705249.4454
 -25465273.99648 -19823844.31546  20921840.7734   20921839.5204
   4141503.00448   3243432.07346  21656641.4064   21656640.3714
  28821324.17646  22475340.91343  23583049.4844                   23583048.0744
  37559171.93847  29280577.05743  25014170.8284                   25014170.1954
 -45871955.23847 -35701392.33245  22177795.9304                   22177792.9384
 11  8 15  3  8 30.0000000  0  8G12G25G26G05G29G15G21G02
 -24632064.24647 -19163922.86945  22484224.6644                   22484223.2504
  -8264625.87548  -6421006.82346  21880811.1724                   21880812.7344
  16649147.79747  12990570.06845  22669935.2034                   22669935.2854
 -25512023.86348 -19860272.77546  20912944.9064   20912943.1914
   3969098.46148   3109090.91246  21623833.5554   21623832.7234
  28623739.45746  22321378.81343  23545450.5314                   23545448.8914
  37400896.49247  29157245.67043  24984051.7734                   24984051.5314
 -45927759.89848 -35744876.47345  22167176.7034                   22167172.9844
 11  8 15  3  9  0.0000000  0  8G12G25G26G05G29G15G21G02
 -24647449.32047 -19175911.25545  22481296.6954                   22481296.1604
  -8328245.72348  -6470580.71846  21868704.8054                   21868706.1374
  16463874.36347  12846201.17745  22634678.8984                   22634678.7894
 -25558364.77748 -19896382.56746  20904126.6724   20904124.8404
   3796931.35548   2974934.77046  21591071.3364   21591070.3524
  28426213.02346  22167462.20944  23507862.3364                   23507861.2274
  37242637.97346  29033927.47943  24953935.9694                   24953936.0354
 -45983453.50847 -35788274.08145  22156578.6484                   22156575.2624
 11  8 15  3  9 30.0000000  0  8G12G25G26G05G29G15G21G02
 -24662574.78547 -19187697.34845  22478418.4064                   22478417.6804
  -8391352.27048  -6519754.63346  21856696.1884                   21856697.6764
  16278915.21947  12702077.15145  22599482.8054                   22599482.1994
 -25604295.25848 -19932172.53546  20895386.2734   20895384.5744
   3625008.16048   2840968.68346  21558355.4924   21558354.4104
  28228751.54746  22013596.17144  23470286.6334                   23470285.4344
  37084400.21146  28910625.41343  24923824.1024                   24923824.1214
 -46039031.88748 -35831581.89945  22146002.0474                   22145998.3954
 11  8 15  3 10  0.0000000  0  8G12G25G26G05G29G15G21G02
 -24677445.97347 -19199285.28345  22475588.7664                   22475587.3914
  -8453949.82848  -6568531.95246  21844784.1564                   21844785.8404
  16094271.81647  12558199.11745  22564346.3914                   22564345.7584
 -25649820.06648 -19967646.40146  20886723.1094   20886721.7664
   3453328.62148   2707192.45946  21525685.5634   21525684.5704
  28031356.28147  21859781.75844  23432723.9534                   23432722.6454
  36926179.92246  28787336.98143  24893714.4844                   24893715.3954
 -46094497.06648 -35874801.50745  22135448.0084                   22135444.2384
 11  8 15  3 10 30.0000000  0  8G12G25G26G05G29G15G21G02
 -24692068.53547 -19210679.48045  22472805.8134                   22472804.9884
  -8516043.14548  -6616916.34646  21832967.6954                   21832969.8204
  15909945.34447  12414568.07445  22529270.4774                   22529269.4264
 -25694943.70748 -20002807.66946  20878136.2894   20878134.9734
   3281892.49648   2573605.90946  21493062.3914   21493061.6254
  27834027.39547  21706019.04044  23395173.2734                   23395172.4064
  36767974.20346  28664059.77343  24863609.3594                   24863610.3014
 -46149851.53148 -35917934.83045  22124914.1644                   22124910.9304
 11  8 15  3 11  0.0000000  0  8G12G25G26G05G29G15G21G02
 -24706441.87947 -19221879.50145  22470070.7424                   22470069.9024
  -8577630.64148  -6664906.59846  21821248.3914                   21821249.8594
  15725942.87947  12271189.52245  22494255.3364                   22494254.7274
 -25739665.31248 -20037655.66646  20869625.9614   20869624.8794
   3110705.66848   2440213.62246  21460486.4454   21460485.9694
  27636771.48847  21552313.18144  23357636.4534                   23357635.8484
  36609785.84846  28540796.21443  24833507.3284                   24833508.4574
 -46205091.65248 -35960979.06945  22114402.3284                   22114399.1604
 11  8 15  3 11 30.0000000  0  8G12G25G26G05G29G15G21G02
 -24720569.33247 -19232887.92145  22467382.4614                   22467381.6484
  -8638714.87948  -6712504.69346  21809624.3204                   21809625.6214
  15542267.49647  12128065.82545  22459303.0634                   22459302.8874
 -25783987.61748 -20072192.51046  20861191.7814   20861190.3444
   2939770.14848   2307017.16046  21427958.6094   21427957.4534
  27439591.01247  21398666.11044  23320113.9614                   23320113.6564
  36451614.26646  28417545.81243  24803408.9064                   24803408.3364
 -46260217.23848 -36003934.06545  22103912.4454                   22103909.3594
 11  8 15  3 12  0.0000000  0  8G12G25G26G05G29G15G21G02
 -24734458.32447 -19243710.51145  22464739.7584                   22464738.1174
  -8699301.84048  -6759715.31446  21798094.7664                   21798096.2774
  15358919.34847  11985197.09145  22424413.5164                   22424412.6214
 -25827916.89848 -20106423.11446  20852832.1094   20852830.7974
   2769084.15248   2174015.12746  21395478.3134   21395477.0554
  27242485.27347  21245077.26044  23282606.8834                   23282605.3794
  36293455.09846  28294305.02143  24773312.5084                   24773310.7034
 -46315232.01648 -36046802.71545  22093443.4384                   22093440.3794
 11  8 15  3 12 30.0000000  0  8G12G25G26G05G29G15G21G02
 -24748110.68747 -19254348.71645  22462142.0394                   22462140.1294
  -8759392.59048  -6806539.26346  21786659.9774                   21786661.7234
  15175903.06647  11842586.95045  22389586.6334                   22389585.9924
 -25871454.12148 -20140348.22346  20844547.3594   20844545.9734
   2598651.38348   2041210.40946  21363045.9224   21363044.6094
  27045458.33247  21091549.79444  23245112.8054                   23245112.5594
  36135309.00846  28171074.39043  24743217.1094                   24743217.9804
 -46370134.84048 -36089584.11745  22082995.4454                   22082992.6954
 11  8 15  3 13  0.0000000  0  8G12G25G26G05G29G15G21G02
 -24761526.65647 -19264802.73545  22459588.9774                   22459587.4304
  -8818986.55148  -6852976.10846  21775319.6414                   21775321.4024
  14993225.02747  11700240.41545  22354824.0704                   22354823.4144
 -25914599.41448 -20173967.92446  20836336.8984   20836335.9264
   2428476.96548   1908607.02346  21330662.4774   21330661.3954
  26848515.53147  20938087.90644  23207636.3444                   23207635.3714
  35977177.79346  28047855.26743  24713125.9534                   24713126.3204
 -46424922.66047 -36132275.91245  22072569.5634                   22072567.0164
 11  8 15  3 13 30.0000000  0  8G12G25G26G05G29G15G21G02
 -24774709.84847 -19275075.34245  22457080.1564                   22457078.9844
  -8878086.44148  -6899027.99246  21764073.0944                   21764074.5664
  14810888.35947  11558159.86845  22320126.5554                   22320125.9654
 -25957355.57848 -20207284.40646  20828200.8674   20828199.6024
   2258562.36748   1776206.07546  21298329.0704   21298327.6334
  26651660.01247  20784694.03544  23170175.4774                   23170175.7814
  35819060.44546  27924647.13843  24683037.1484                   24683037.1804
 -46479595.65248 -36174878.21545  22062165.9304                   22062163.1024
 11  8 15  3 14  0.0000000  0  8G12G25G26G05G29G15G21G02
 -23212242.45747 -18057568.29245  22754407.1414                   22754406.8874
  -7361272.27048  -5717094.86746  22052713.3284                   22052715.0354
  16204323.00047  12643953.08745  22585288.2974                   22585287.9104
 -24424303.27748 -19012698.19246  21119931.1564   21119929.8094
   3664335.85548   2871614.03946  21565838.8524   21565837.7344
  28030320.90247  21858975.26644  23432526.0234                   23432524.9774
  37236382.13746  29029053.70043  24952744.3134                   24952745.0044
 -44958731.61748 -34989789.34545  22351576.5314                   22351573.8164
 11  8 15  3 14 30.0000000  0  8G12G25G26G05G29G15G21G02
 -23224969.10947 -18067485.19645  22751986.0864                   22751985.3324
  -7419390.72748  -5762381.98646  22041654.0554                   22041655.8164
  16022680.15647  12502413.21145  22550723.3284                   22550722.2074
 -24466288.14548 -19045413.66146  21111941.7734   21111940.0634
   3494947.78948   2739623.37946  21533605.3054   21533604.3594
  27833648.14846  21705723.82444  23395100.6884                   23395099.6414
  37078291.12946  28905865.98043  24922660.4144                   24922660.2934
 -45013174.63748 -35032212.45145  22341216.5864                   22341213.1334
 11  8 15  3 15  0.0000000  0  8G12G25G26G05G29G15G21G02
 -23237474.33247 -18077229.54745  22749606.3914                   22749605.2664
  -7477023.91048  -5807290.96146  22030686.7504                   22030688.3524
  15841387.29747  12361146.06745  22516224.1174                   22516223.7424
 -24507893.13748 -19077833.13546  21104024.6414   21104023.1294
   3325824.58248   2607839.12446  21501422.4534   21501421.4264
  27637069.37147  21552545.63544  23357692.8054                   23357691.6524
  36920210.56646  28782686.44643  24892578.7274                   24892578.6294
 -45067504.41048 -35074547.35345  22330877.8984                   22330874.6024
 11  8 15  3 15 30.0000000  0  8G12G25G26G05G29G15G21G02
 -23249757.41047 -18086800.82045  22747268.7274                   22747268.0944
  -7534170.24648  -5851820.58046  22019812.1484                   22019813.7974
  15660452.33247  12220157.82645  22481793.1884                   22481792.9694
 -24549116.92248 -19109955.55046  21096179.9304   21096178.2624
   3156972.43448   2476266.06946  21469290.3754   21469289.7464
  27440591.44947  21399445.95344  23320304.2034                   23320303.6454
  36762143.81346  28659517.62043  24862500.0554                   24862499.7584
 -45121717.06647 -35116790.96845  22320561.3594                   22320557.5944
 11  8 15  3 16  0.0000000  0  8G12G25G26G05G29G15G21G02
 -23261824.94547 -18096204.10445  22744972.5704                   22744971.1374
  -7590835.51648  -5895975.34146  22009029.0944                   22009031.0664
  15479875.10547  12079448.36145  22447430.5704                   22447430.0704
 -24589965.56648 -19141785.66146  21088406.6334   21088404.9924
   2988389.77748   2344903.00946  21437210.3134   21437209.1454
  27244213.87546  21246424.53144  23282934.7734                   23282933.5784
  36604086.30946  28536356.01043  24832421.7814                   24832422.4024
 -45175815.44547 -35158945.53145  22310266.8134                   22310263.5784
 11  8 15  3 16 30.0000000  0  8G12G25G26G05G29G15G21G02
 -23273680.14847 -18105441.94645  22742716.6804                   22742715.2774
  -7647022.40248  -5939757.33946  21998337.4844                   21998338.9224
  15299658.77347  11939020.08145  22413136.5554                   22413136.1374
 -24630441.38748 -19173325.24846  21080704.3754   21080702.6214
   2820078.95348   2213751.78146  21405181.7114   21405180.3204
  27047939.26647  21093483.34744  23245584.8984                   23245583.9454
  36446037.67646  28413201.33943  24802346.4224                   24802345.3204
 -45229799.64847 -35201011.15745  22299994.1334                   22299991.0864
 11  8 15  3 17  0.0000000  0  8G12G25G26G05G29G15G21G02
 -23285325.33647 -18114516.15045  22740500.6884                   22740499.7584
  -7702732.24248  -5983167.61746  21987736.2274                   21987737.3794
  15119808.20347  11798876.83945  22378911.8524                   22378911.0474
 -24670546.20748 -19204575.75346  21073072.2424   21073071.0274
   2652043.14848   2082814.83346  21373205.6414   21373204.3754
  26851771.44147  20940625.34244  23208256.0084                   23208254.6604
  36287998.25046  28290053.86243  24772272.6024                   24772271.8324
 -45283668.65647 -35242987.00145  22289743.1564                   22289740.1764
 11  8 15  3 17 30.0000000  0  8G12G25G26G05G29G15G21G02
 -23296762.61347 -18123428.33045  22738324.1724                   22738322.9494
  -7757966.41848  -6026207.22646  21977225.3444                   21977227.0514
  14940327.81647  11659022.03045  22344758.0164                   22344757.5984
 -24710281.42647 -19235538.25346  21065511.1644   21065509.6094
   2484285.58648   1952094.70146  21341282.6174   21341281.2934
  26655714.76647  20787853.95644  23170946.9924                   23170946.3754
  36129968.32046  28166913.67543  24742200.2034                   24742200.6764
 -45337421.27047 -35284872.16245  22279513.9384                   22279510.9774
 11  8 15  3 18  0.0000000  0  8G12G25G26G05G29G15G21G02
 -23307995.51647 -18132181.25445  22736186.9694                   22736185.4344
  -7812727.71548  -6068878.38046  21966804.0944                   21966806.0234
  14761220.65247  11519458.09345  22310675.0084                   22310674.4574
 -24749649.91448 -19266214.99346  21058019.5004   21058018.2464
   2316808.08248   1821592.78246  21309412.5554   21309411.3674
  26459771.68447  20635171.06345  23133660.3914                   23133659.4494
  35971947.15246  28043780.41643  24712130.5784                   24712129.8914
 -45391057.47747 -35326666.62245  22269307.3674                   22269304.3754
 11  8 15  3 18 30.0000000  0  8G12G25G26G05G29G15G21G02
 -23319026.05147 -18140776.48445  22734087.6254                   22734086.8134
  -7867017.53548  -6111182.12946  21956473.1724                   21956475.1094
  14582491.53947  11380188.71145  22276663.9534                   22276663.1254
 -24788652.98048 -19296606.99746  21050597.6804   21050596.2234
   2149614.14848   1691311.82946  21277596.5004   21277595.4964
  26263946.17247  20482579.80945  23096396.1334                   23096395.6254
  35813935.22746  27920654.34043  24682061.4064                   24682060.2624
 -45444576.21547 -35368369.52645  22259123.2894                   22259120.1254
 11  8 15  3 19  0.0000000  0  8G12G25G26G05G29G15G21G02
 -23329857.89547 -18149216.87845  22732026.5704                   22732025.7114
  -7920838.59448  -6153120.60546  21946231.6644                   21946233.0594
  14404143.43447  11241216.21645  22242725.0004                   22242724.5784
 -24827293.63748 -19326716.57946  21043244.4774   21043243.0394
   1982705.71148   1561253.34846  21245835.0784   21245834.2584
  26068240.94947  20330082.27945  23059154.2274                   23059153.5084
  35655931.56646  27797534.65243  24651993.5314                   24651993.7274
 -45497977.61748 -35409981.01045  22248961.7114                   22248958.0124
 11  8 15  3 19 30.0000000  0  8G12G25G26G05G29G15G21G02
 -23340493.17247 -18157504.15045  22730002.6564                   22730001.5594
  -7974192.62548  -6194695.19446  21936078.4454                   21936079.8794
  14226180.78547  11102544.08945  22208860.1094                   22208859.7074
 -24865573.72348 -19356545.21746  21035960.2034   21035958.4144
   1816085.76248   1431419.65046  21214128.2274   21214127.0664
  25872659.78147  20177681.43145  23021936.1414                   23021935.7234
  35497936.45346  27674421.68243  24621928.5944                   24621927.7114
 -45551260.63747 -35451500.24745  22238822.2344                   22238818.4884
 11  8 15  3 20  0.0000000  0  8G12G25G26G05G29G15G21G02
 -23350934.57047 -18165640.29145  22728015.8674                   22728014.6374
  -8027081.52348  -6235907.31346  21926013.8594                   21926015.6134
  14048607.67647  10964175.50945  22175068.9844                   22175068.1414
 -24903494.80548 -19386094.10446  21028743.7034   21028742.7114
   1649757.09048   1301812.92346  21182476.7664   21182475.6414
  25677206.27747  20025380.06345  22984742.9694                   22984742.0274
  35339949.73046  27551315.27143  24591864.9454                   24591864.3324
 -45604424.46548 -35492926.60345  22228705.4064                   22228701.9024
 11  8 15  3 20 30.0000000  0  8G12G25G26G05G29G15G21G02
 -23361186.82047 -18173629.07945  22726064.3364                   22726063.1954
  -8079509.29748  -6276760.11346  21916037.3134                   21916039.0704
  13871426.05547  10826111.98645  22141352.2424                   22141351.5864
 -24941061.15248 -19415366.58246  21021595.1484   21021594.0234
   1483720.48448   1172433.77746  21150880.9844   21150879.6954
  25481881.89147  19873179.30545  22947573.5864                   22947572.5394
  35181969.58646  27428213.98343  24561801.9064                   24561801.6564
 -45657470.17648 -35534260.94045  22218611.3284                   22218607.5274
 11  8 15  3 21  0.0000000  0  8G12G25G26G05G29G15G21G02
 -23371252.84847 -18181472.76145  22724149.3364                   22724148.7304
  -8131478.13748  -6317255.33746  21906148.4304                   21906150.1094
  13694639.76247  10688356.50345  22107710.8134                   22107710.8914
 -24978274.95348 -19444364.32846  21014513.7974   21014512.3164
   1317978.74248   1043284.39546  21119341.3204   21119339.9264
  25286690.02747  19721081.81645  22910429.9694                   22910428.8324
  35023995.75446  27305117.56844  24531740.3594                   24531740.2814
 -45710397.51248 -35575503.00545  22208539.4694                   22208535.6174
 11  8 15  3 21 30.0000000  0  8G12G25G26G05G29G15G21G02
 -21805714.20747 -16961572.53445  23022060.7194                   23022060.3874
  -6607567.80948  -5129792.76346  22196138.9304                   22196140.3134
  15093679.39847  11778517.31645  22373939.3834                   22373939.4494
 -23439716.52748 -18245487.62246  21307291.6954   21307290.0004
   2727960.55548   2141971.55746  21387652.2274   21387650.9844   26667061.24647
  20796695.80845                  23173105.4694                   23173104.8794
  36441454.00446  28409630.61043  24801474.2034                   24801473.7854
 -44187783.19948 -34389050.27945  22498283.3444                   22498280.2664
 11  8 15  3 22  0.0000000  0  8G12G25G26G05G29G15G21G02
 -21815415.97747 -16969132.38045  23020215.1094                   23020214.2774
  -6658625.55147  -5169578.01446  22186423.0554                   22186423.5314
  14917695.11747  11641386.74545  22340450.6804                   22340450.1294
 -23476231.87948 -18273941.14646  21300342.7424   21300341.6094
   2562815.83248   2013287.38546  21356226.1024   21356225.0594   26472144.23447
  20644812.50445                  23136014.1564                   23136013.8094
  36283492.06346  28286543.49043  24771414.7584                   24771414.3244
 -44240472.11747 -34430106.57945  22488256.7344                   22488253.9024
 11  8 15  3 22 30.0000000  0  8G12G25G26G05G29G15G21G02
 -21824943.91047 -16976556.76545  23018401.9224                   23018401.3014
  -6709235.03948  -5209013.99046  22176792.5164                   22176793.0824
  14742113.74247  11504570.13945  22307038.1564                   22307037.6454
 -23512405.21148 -18302128.14046  21293459.5944   21293457.8484
   2397969.64848   1884835.84346  21324856.9454   21324855.7934   26277365.68447
  20493037.08145                  23098949.1254                   23098947.8094
  36125531.79346  28163457.68543  24741355.0004                   24741354.6334
 -44293044.96947 -34471072.42245  22478252.3834                   22478249.6804
 11  8 15  3 23  0.0000000  0  8G12G25G26G05G29G15G21G02
 -21834294.81247 -16983843.18845  23016622.5864                   23016621.7424
  -6759392.56248  -5248097.78846  22167247.7584                   22167248.7814
  14566944.73847  11368074.87345  22273704.7274                   22273704.3364
 -23548232.87948 -18330045.79146  21286641.6644   21286640.3874
   2233430.45348   1756623.51146  21293546.0394   21293544.8954   26082734.71147
  20341376.64145                  23061912.1094                   23061911.1604
  35967578.57046  28040377.32943  24711297.9844                   24711296.8754
 -44345495.11747 -34511942.66745  22468271.5314                   22468268.7624
 11  8 15  3 23 30.0000000  0  9G12G25G18G26G05G29G15G21G02
 -21843476.55547 -16990997.80845  23014875.4534                   23014874.1254
  -6809105.75848  -5286835.35846  22157787.6564                   22157788.9884
  43835429.85555  34174326.00452  24739859.9844                   24739859.8204
  14392186.60247  11231899.74245  22240450.0084                   22240448.8714
 -23583722.36348 -18357699.93646  21279888.2894   21279886.3054
   2069195.57848   1628648.30046  21262293.2424   21262291.9224   25888249.55147
  20189829.81645                  23024902.2424                   23024901.5984
  35809626.94946  27917298.26743  24681240.0944                   24681238.9104
 -44397827.36748 -34552721.03045  22458313.4144                   22458310.3164
 11  8 15  3 24  0.0000000  0  9G12G25G18G26G05G29G15G21G02
 -21852500.17247 -16998029.20045  23013158.3284                   23013156.7814
  -6858384.72348  -5325234.56146  22148410.1484                   22148411.0744
  43645468.11746  34026303.92642  24703711.2894                   24703711.0704
  14217835.50047  11096041.78745  22207271.5474                   22207271.1484
 -23618883.94948 -18385098.56346  21273196.9844   21273195.5044
   1905259.88348   1500906.22246  21231097.3284   21231095.9654   25693905.78147
  20038393.15645                  22987920.2424                   22987919.3324
  35651669.00846  27794214.30043  24651182.2504                   24651180.4884
 -44450049.09047 -34593413.27345  22448375.9224                   22448373.1294
 11  8 15  3 24 30.0000000  0  9G12G25G18G26G05G29G15G21G02
 -21861370.75447 -17004941.34545  23011470.6644                   23011469.7814
  -6907233.91048  -5363298.88446  22139114.3594                   22139116.1684
  43455675.75445  33878413.81342  24667596.4924                   24667594.3874
  14043892.84447  10960502.11245  22174171.2664                   22174170.6954
 -23653721.62948 -18412244.80146  21266567.6414   21266566.0354
   1741623.91448   1373397.70146  21199958.3914   21199957.3244   25499704.17647
  19887067.27845                  22950965.0784                   22950963.3834
  35493702.56346  27671123.67443  24621121.7974                   24621121.4734
 -44502161.74647 -34634020.51545  22438458.8204                   22438456.2974
 11  8 15  3 25  0.0000000  0  9G12G25G18G26G05G29G15G21G02
 -21870090.25447 -17011735.75745  23009810.9844                   23009809.9654
  -6955654.87548  -5401029.51646  22129900.1564                   22129901.5354
  43266054.09446  33730656.78543  24631512.4224                   24631510.8444
  13870363.09047  10825284.17845  22141149.8984                   22141149.2074
 -23688236.94148 -18439139.84346  21259999.7734   21259998.1684
   1578290.65248   1246125.06146  21168877.1804   21168875.7424   25305649.25447
  19735855.68845                  22914037.7504                   22914036.5984
  35335728.02346  27548026.75443  24591061.5554                   24591060.0514
 -44554164.05147 -34674541.77045  22428563.0164                   22428560.3554
 11  8 15  3 25 30.0000000  0  9G12G25G18G26G05G29G15G21G02
 -21878659.43747 -17018413.07045  23008179.8914                   23008179.6414
  -7003648.12948  -5438426.85046  22120767.2034                   22120768.5514
  43076606.96946  33583035.70443  24595461.6644                   24595460.3714
  13697252.10947  10690392.56545  22108207.5314                   22108206.7274
 -23722430.20348 -18465783.93346  21253493.0004   21253491.3094
   1415264.65248   1119091.84746  21137853.9694   21137852.9884   25111745.79747
  19584762.10845                  22877138.7274                   22877137.5744
  35177746.96146  27424924.67843  24560996.5784                   24560998.1484
 -44606053.73447 -34714975.27045  22418688.6644                   22418685.5864
 11  8 15  3 26  0.0000000  0  9G12G25G18G26G05G29G15G21G02
 -21887079.42247 -17024974.11245  23006577.8834                   23006577.0984
  -7051214.09048  -5475491.23546  22111715.5004                   22111717.4614
  42887337.99646  33435553.46843  24559444.3204                   24559444.2704
  13524565.33247  10555831.48545  22075346.5394                   22075345.1524
 -23756301.93748 -18492177.48846  21247047.1334   21247045.5234
   1252550.67648    992301.76046  21106890.5234   21106889.3954   24917999.56647
  19433791.06345                  22840270.3754                   22840268.9344
  35019761.07846  27301818.90943  24530933.3364                   24530933.8524
 -44657828.18747 -34755319.00445  22408836.2974                   22408832.9614
 11  8 15  3 26 30.0000000  0  9G12G25G18G26G05G29G15G21G02
 -21895354.53947 -17031422.27445  23005003.3594                   23005001.9844
  -7098356.53548  -5512225.62046  22102744.7894                   22102746.6374
  42698247.14546  33288209.93043  24523461.7974                   24523461.4384
  13352305.03947  10421602.73445  22042566.3594                   22042565.0314
 -23789855.73448 -18518323.30246  21240662.2424   21240660.4964
   1090149.67648    865755.56746  21075986.8364   21075985.7934   24724412.25447
  19282943.82345                  22803431.4844                   22803430.3954
  34861768.98046  27178708.29243  24500868.9614                   24500868.5084
 -44709488.23047 -34795573.58945  22399005.5864                   22399001.9104
 11  8 15  3 27  0.0000000  0  9G12G25G18G26G05G29G15G21G02
 -21903486.62547 -17037758.97845  23003455.3834                   23003454.7114
  -7145077.20348  -5548631.33646  22093853.9064                   22093855.7624
  42509336.25446  33141006.62543  24487513.3914                   24487513.1884
  13180475.72747  10287709.80845  22009868.2664                   22009867.5944
 -23823093.14548 -18544222.58346  21234337.4924   21234335.7934
    928065.05147    739455.89846  21045143.2734   21045141.7814   24530987.98447
  19132223.69645                  22766624.2114                   22766622.9844
  34703770.65646  27055592.77943  24470802.8134                   24470801.7664
 -44761032.73047 -34835738.12945  22389197.1024                   22389193.2584
 11  8 15  3 27 30.0000000  0  9G12G25G18G26G05G29G15G21G02
 -21911479.82447 -17043987.46745  23001934.0634                   23001933.9844
  -7191379.51648  -5584711.04546  22085043.2274                   22085044.6054
  42320606.13346  32993944.29943  24451598.8754                   24451598.7624
  13009079.82447  10154154.61745  21977252.6644                   21977252.2544
 -23856017.47748 -18569877.90946  21228072.0164   21228070.4884
    766298.35948    613403.96146  21014359.7664   21014358.6454   24337728.98847
  18981632.34445                  22729848.3834                   22729847.0234
  34545765.16446  26932471.78043  24440735.6804                   24440734.1484
 -44812462.00047 -34875812.88245  22379410.3834                   22379407.4694
 11  8 15  3 28  0.0000000  0  9G12G25G18G26G05G29G15G21G02
 -21919334.14547 -17050107.73545  23000440.5634                   23000440.0704
  -7237262.94948  -5620464.38846  22076311.8674                   22076313.1174
  42132061.12146  32847026.15743  24415719.7344                   24415719.1844
  12838124.19147  10020942.49745  21944720.4614                   21944720.4804
 -23888627.66848 -18595288.44446  21221866.9144   21221865.1094
    604854.89848    487603.88946  20983637.9774   20983636.8594   24144641.29747
  18831174.47145                  22693104.6484                   22693103.5904
  34387755.20347  26809347.23843  24410666.9614                   24410665.3164
 -44863772.67247 -34915795.23945  22369646.8674                   22369643.4344
 11  8 15  3 28 30.0000000  0  9G12G25G18G26G05G29G15G21G02
 -21927053.24247 -17056122.61845  22998971.4614                   22998971.5514
  -7282731.03548  -5655894.08346  22067659.8134                   22067661.2814
  41943701.62146  32700252.53043  24379875.6024                   24379876.0864
  12667611.19147   9888075.28145  21912273.2894                   21912272.5274
 -23920927.35548 -18620457.04146  21215720.4924   21215718.6804
    443736.09048    362056.80046  20952978.2974   20952977.0744   23951727.71547
  18680852.27545                  22656394.5314                   22656393.0554
  34229739.17646  26686217.95943  24380597.2894                   24380595.5084
 -44914965.18747 -34955685.50045  22359904.9844                   22359902.4384
 11  8 15  3 29  0.0000000  0  9G12G25G18G26G05G29G15G21G02
 -21934638.42247 -17062033.19045  22997527.8754                   22997527.3984
  -7327784.50848  -5691000.69845  22059086.3524                   22059087.8164
  41755530.94146  32553626.08543  24344067.9614                   24344068.2424
  12497546.40647   9755557.30945  21879911.2274                   21879910.3634
 -23952917.07048 -18645384.09346  21209633.0234   21209631.1604
    282946.38748    236766.16546  20922381.0704   20922379.6374   23758992.69147
  18530669.20145                  22619718.1094                   22619716.7344
  34071719.00046  26563085.43443  24350526.7194                   24350524.9734
 -44966037.11747 -34995481.86145  22350186.1414                   22350183.8954
 11  8 15  3 29 30.0000000  0  9G12G25G18G26G05G29G15G21G02
 -20366676.05547 -15840244.33345  23295901.0704                   23295900.4264
  -5797008.42248  -4498188.16446  22350383.0234                   22350385.0864
  43142972.36346  33634749.38443  24608090.0394                   24608089.6484
  13903355.02347  10850992.66245  22147427.4844                   22147426.8874
 -22409182.13348 -17442473.75946  21503396.0314   21503394.1844
   1697909.58648   1339334.93746  21191639.5474   21191638.1524   25141861.86347
  19608229.57245                  22882869.3284                   22882868.3484
  35489115.56646  27667550.37543  24620247.8674                   24620247.5594
 -43441570.42647 -33807585.74745  22640282.6334                   22640279.4384
 11  8 15  3 30  0.0000000  0  9G12G25G18G26G05G29G15G21G02
 -20374005.11747 -15845955.32945  23294506.7734                   23294505.5124
  -5841243.75848  -4532657.26646  22341965.4224                   22341967.0234
  42955179.74646  33488417.52843  24572354.3984                   24572352.9734
  13734193.72347  10719178.73145  22115236.8524                   22115236.7034
 -22440562.18448 -17466925.74946  21497424.4454   21497422.9184
   1537782.59048   1214560.69046  21161168.5314   21161167.1644   24949490.46147
  19458329.71045                  22846262.3674                   22846261.5434
  35331082.79347  27544408.08943  24590176.2274                   24590175.0164
 -43492403.52747 -33847195.98045  22630609.8524                   22630606.7464
 11  8 15  3 30 30.0000000  0  9G12G25G18G26G05G29G15G21G02
 -20381211.71947 -15851570.87545  23293134.9694                   23293134.2384
  -5885074.98847  -4566811.49246  22333624.6334                   22333626.0824
  42767577.04746  33342233.65642  24536653.5234                   24536653.5204
  13565488.37547  10587720.11045  22083133.4614                   22083132.4454
 -22471642.08248 -17491143.87046  21491509.8364   21491508.4694
   1377988.85248   1090046.12046  21130760.7194   21130759.3204   24757304.85547
  19308574.64845                  22809690.9144                   22809690.1254
  35173041.97746  27421259.45643  24560101.6804                   24560101.3554
 -43543117.56647 -33886713.44245  22620958.7814                   22620955.7894
 11  8 15  3 31  0.0000000  0  9G12G25G18G26G05G29G15G21G02
 -20388295.91047 -15857091.04145  23291787.2664                   23291786.2624
  -5928501.50448  -4600650.34246  22325361.0314                   22325361.9024
  42580168.47746  33196201.08143  24500991.2424                   24500990.3914
  13397245.71547  10456621.98945  22051117.7664                   22051116.8094
 -22502420.85548 -17515127.34146  21485653.2194   21485651.6054
   1218534.45348    965795.97446  21100417.2814   21100416.1174   24565311.42647
  19158969.25845                  22773155.7974                   22773154.8484
  35014996.14547  27298106.94844  24530026.6254                   24530025.6954
 -43593708.77347 -33926135.18945  22611331.7034                   22611328.6724
 11  8 15  3 31 30.0000000  0  9G12G25G18G26G05G29G15G21G02
 -20395260.74247 -15862518.20145  23290461.6954                   23290460.9494
  -5971526.60547  -4634176.39045  22317173.4924                   22317174.3714
  42392954.90246  33050320.50043  24465366.5864                   24465365.0634
  13229468.55947  10325886.61145  22019190.9384                   22019190.1524
 -22532901.47748 -17538878.47446  21479852.7814   21479851.1914
   1059421.26648    841811.71046  21070139.1254   21070138.1684   24373512.74247
  19009515.64645                  22736657.8674                   22736656.4264
  34856944.22746  27174949.69643  24499950.5164                   24499949.2034
 -43644177.44547 -33965461.43745  22601728.1884                   22601724.5004
 11  8 15  3 32  0.0000000  0  9G12G25G18G26G05G29G15G21G02
 -20402110.12547 -15867855.38545  23289158.8594                   23289158.1414
  -6014153.64547  -4667392.28146  22309061.9224                   22309063.1094
  42205936.84446  32904592.20742  24429777.6254                   24429776.7234
  13062159.53147  10195516.04645  21987352.8834                   21987352.5984
 -22563087.16048 -17562399.78946  21474108.3674   21474106.9224
    900650.94148    718094.61046  21039926.3754   21039924.7424   24181911.21547
  18860215.63945                  22700197.4064                   22700196.1844
  34698885.56346  27051787.20543  24469871.7034                   24469871.1134
 -43694523.66847 -34004692.29045  22592147.4144                   22592144.0784
 11  8 15  3 32 30.0000000  0  9G12G25G18G26G05G29G15G21G02
 -20408848.34847 -15873105.94145  23287876.3914                   23287875.1914
  -6056386.66447  -4700301.13646  22301025.2974                   22301027.0434
  42019114.37146  32759016.37143  24394226.3984                   24394225.3444
  12895320.85247  10065511.97045  21955604.5004                   21955604.0474
 -22592981.59048 -17585694.15146  21468419.8754   21468418.4844
    742224.49648    594645.47646  21009778.6094   21009776.9844   23990508.90647
  18711070.90645                  22663775.0634                   22663773.1764
  34540818.18446  26928617.91243  24439793.2504                   24439792.1954
 -43744748.65647 -34043828.68145  22582590.0634                   22582586.2854
 11  8 15  3 33  0.0000000  0  9G12G25G18G26G05G29G15G21G02
 -20415475.89147 -15878270.25645  23286615.2664                   23286614.0784
  -6098225.87547  -4732903.12645  22293063.6564                   22293064.7774
  41832491.14146  32613595.75042  24358713.2194                   24358711.8594
  12728958.07048   9935878.70345  21923947.1484                   21923945.7974
 -22622584.57848 -17608761.42746  21462786.5704   21462785.4414
    584146.96548    471468.22146  20979697.1724   20979696.1334   23799311.28147
  18562085.67345                  22627391.0164                   22627389.6334
  34382744.25446  26805443.55343  24409712.1094                   24409711.0864
 -43794849.30147 -34082868.18745  22573056.1094                   22573052.3874
 11  8 15  3 33 30.0000000  0  9G12G25G18G26G05G29G15G21G02
 -20421999.16446 -15883353.34444  23285373.4694                   23285373.1994
  -6139677.38348  -4765203.00845  22285175.4924                   22285177.3444
  41646065.23046  32468328.81643  24323237.3204                   24323234.4064
  12563071.34048   9806616.41145  21892379.4384                   21892378.3594
 -22651902.11748 -17631606.27846  21457207.7194   21457206.4734
    426417.46148    348562.13246  20949682.1094   20949681.0084   23608318.35247
  18413259.96745                  22591046.2424                   22591044.9144
  34224659.92246  26682261.05143  24379629.6954                   24379628.9024
 -43844828.60247 -34121813.11045  22563545.5944                   22563542.2734
 11  8 15  3 34  0.0000000  0  9G12G25G18G26G05G29G15G21G02
 -20428419.43747 -15888356.17444  23284152.0084                   23284151.0864
  -6180742.16047  -4797201.54646  22277361.1024                   22277362.6254
  41459839.15246  32323217.63243  24287799.2584                   24287797.5744
  12397665.75848   9677729.04145  21860904.0084                   21860902.6484
 -22680934.68048 -17654229.04446  21451682.9454   21451681.3484
    269040.07448    225930.43946  20919734.2424   20919733.0904   23417535.09447
  18264597.74145                  22554741.3674                   22554739.9304
  34066566.68446  26559071.63643  24349545.6804                   24349544.7424
 -43894684.33647 -34160661.77845  22554057.9384                   22554055.7504
 11  8 15  3 34 30.0000000  0  9G12G25G18G26G05G29G15G21G02
 -20434737.20747 -15893279.11744  23282949.9694                   23282948.8204
  -6221420.91448  -4828899.28345  22269620.2194                   22269622.0354
  41273816.32846  32178264.83543  24252399.9144                   24252398.5744
  12232747.06348   9549221.05245  21829521.1644                   21829519.2584
 -22709682.48448 -17676629.93946  21446212.5234   21446210.6914
    112018.74248    103576.17446  20889854.3914   20889853.1604   23226966.72747
  18116102.98345                  22518477.4924                   22518476.2464
  33908466.42646  26435876.73843  24319460.8524                   24319459.6954
 -43944414.03947 -34199412.23945  22544595.4144                   22544592.5394
 11  8 15  3 35  0.0000000  0  9G12G25G18G26G05G29G15G21G02
 -20440957.09447 -15898125.80544  23281766.2424                   23281765.3794
  -6261717.71147  -4860299.40446  22261952.0474                   22261953.2194
  41087996.50045  32033470.28343  24217039.6804                   24217039.4694
  12068316.80947   9421093.67445  21798230.7194                   21798229.5004
 -22738149.44948 -17698811.99246  21440795.5704   21440793.9884
    -44645.17648    -18499.58146  20860041.9694   20860041.0004   23036614.80947
  17967776.92345                  22482254.6174                   22482253.5434
  33750357.18846  26312674.84144  24289372.4454                   24289372.0664
 -43994018.40647 -34238065.04845  22535155.5234                   22535152.8134
 11  8 15  3 35 30.0000000  0  9G12G25G18G26G05G29G15G21G02
 -20447083.28947 -15902899.48344  23280600.1254                   23280599.5864
  -6301636.63747  -4891405.05545  22254355.5704                   22254357.3444
  40902379.77346  31888834.04043  24181717.7894                   24181717.1024
  11904377.31648   9293348.68945  21767034.0474                   21767032.9224
 -22766339.05148 -17720777.91346  21435430.9454   21435429.5124
   -200950.54348   -140295.93646  20830298.2424   20830296.7154   22846481.48047
  17819621.20245                  22446073.4454                   22446072.1374
  33592238.13346  26189465.38343  24259283.5784                   24259282.8714
 -44043498.46147 -34276620.96545  22525740.0474                   22525736.5594
 11  8 15  3 36  0.0000000  0  9G12G25G18G26G05G29G15G21G02
 -20453116.66847 -15907600.83944  23279452.7504                   23279451.6254
  -6341178.10247  -4922216.60345  22246830.7114                   22246832.5784
  40716969.55946  31744358.61543  24146436.1414                   24146434.9734
  11740934.17647   9165990.48345  21735931.7504                   21735930.9844
 -22794251.63348 -17742527.98146  21430119.5314   21430118.0234
   -356892.52048   -261809.14846  20800623.3754   20800621.6954   22656572.18847
  17671640.02345                  22409934.3674                   22409933.5824
  33434110.37945  26066249.02343  24229192.4304                   24229191.5004
 -44092851.51647 -34315077.91945  22516348.5164                   22516345.0824
 11  8 15  3 36 30.0000000  0  9G12G25G18G26G05G29G15G21G02
 -20459063.02347 -15912234.38144  23278320.9064                   23278319.4224
  -6380348.10247  -4952738.71845  22239377.4064                   22239378.8634
  40531763.61346  31600042.41643  24111192.9534                   24111190.6724
  11577987.36347   9039019.03245  21704923.9144                   21704922.7584
 -22821892.81248 -17764066.56146  21424859.4304   21424858.0904
   -512472.34048   -383040.14746  20771017.3204   20771015.8094   22466886.80147
  17523833.29345                  22373838.7034                   22373837.8134
  33275970.87545  25943023.53443  24199098.7034                   24199098.9774
 -44142080.25847 -34353438.01545  22506980.6564                   22506977.0274
 11  8 15  3 37  0.0000000  0  9G12G25G18G26G05G29G15G21G02
 -20464922.50847 -15916800.21044  23277206.1174                   23277204.7504
  -6419146.25847  -4982971.04945  22231994.3674                   22231995.7974
  40346766.50846  31455888.95243  24075989.3204                   24075987.3244
  11415543.35248   8912439.34645  21674011.8524                   21674010.0664
 -22849261.43448 -17785392.75946  21419651.6334   21419649.7624
   -667684.18048   -503984.42246  20741481.5234   20741480.1804   22277431.66847
  17376205.99245                  22337786.2664                   22337785.7584
  33117821.92946  25819790.69243  24169004.1174                   24169004.2074
 -44191181.18747 -34391698.50245  22497637.1644                   22497632.9694
 11  8 15  3 37 30.0000000  0  9G12G25G18G26G05G29G15G21G02
 -18895277.22747 -14693700.00045  23575899.1804                   23575898.6914
  -4882153.98847  -3785314.74046  22524474.5554                   22524475.8634
  41737405.73446  32539504.03143  24340618.8524                   24340617.5394
  12829030.87547  10013858.25145  21942989.2664                   21942987.5124
 -21300939.06648 -16578907.79646  21714287.5084   21714285.8364
    752899.74248    602964.10846  21011809.6414   21011808.6684   23663636.04347
  18456365.28145                  22601572.4844                   22601571.9024
  34535089.09846  26924154.85943  24438701.5084                   24438700.3204
 -42664731.73447 -33202257.38845  22788110.5004                   22788106.8714
 11  8 15  3 38  0.0000000  0  9G12G25G18G26G05G29G15G21G02
 -18900970.77047 -14698136.56344  23574816.4614                   23574815.2974
  -4920216.50447  -3814973.85946  22517231.2974                   22517232.6764
  41552830.78946  32395679.43143  24305494.8134                   24305493.6214
  12667602.75047   9888070.18545  21912270.4144                   21912269.0434
 -21327769.55548 -16599814.66846  21709181.5634   21709180.2274
    598431.41048    482599.18846  20982415.3134   20982414.2384   23474650.98447
  18309104.20445                  22565609.7664                   22565608.9884
  34376921.99246  26800907.89043  24408603.5634                   24408602.1644
 -42713574.84447 -33240316.98345  22778816.1484                   22778813.3284
 11  8 15  3 38 30.0000000  0  9G12G25G18G26G05G29G15G21G02
 -18906587.27347 -14702513.10144  23573747.4774                   23573745.9224
  -4957916.75447  -3844350.69445  22510057.1954                   22510058.1914
  41368466.55546  32252019.07243  24270411.2734                   24270410.1254
  12506686.02747   9762680.59445  21881649.1564                   21881648.3014
 -21354335.98848 -16620515.77346  21704126.5704   21704125.3984
    444336.74248    362525.44446  20953092.2194   20953090.5864   23285904.73047
  18162029.21345                  22529692.5084                   22529691.5474
  34218743.62546  26677652.05743  24378503.0554                   24378502.0864
 -42762289.92247 -33278276.81445  22769545.8594                   22769543.0044
 11  8 15  3 39  0.0000000  0  9G12G25G18G26G05G29G15G21G02
 -18912126.46147 -14706829.35844  23572693.6254                   23572692.5044
  -4995254.49247  -3873445.05346  22502951.9384                   22502953.3054
  41184317.60946  32108526.48143  24235368.6804                   24235368.2584
  12346287.06647   9637694.46745  21851126.1414                   21851125.5234
 -21380637.61748 -16641010.54046  21699121.3914   21699120.0634
    290621.52348    242747.37046  20923840.7974   20923839.6684   23097403.87547
  18015145.47845                  22493822.2814                   22493820.5784
  34060557.13746  26554389.97843  24348401.5704                   24348400.3164
 -42810873.19147 -33316133.95545  22760300.7974                   22760298.0984
 11  8 15  3 39 30.0000000  0  9G12G25G18G26G05G29G15G21G02
 -18917591.66846 -14711087.99644  23571653.5474                   23571652.7544
  -5032233.05147  -3902259.51646  22495915.4774                   22495916.5354
  41000384.50846  31965202.03943  24200367.2114                   24200366.8164
  12186408.48447   9513113.81845  21820702.0784                   21820701.0514
 -21406677.28548 -16661301.18946  21694166.0634   21694164.7934
    137287.51648    123266.34146  20894662.7274   20894661.2234   22909150.54347
  17868454.63045                  22457998.6644                   22457997.4344
  33902361.65646  26431120.84744  24318297.6334                   24318296.8404
 -42859324.81647 -33353888.50345  22751081.2274                   22751078.5664
 11  8 15  3 40  0.0000000  0  9G12G25G18G26G05G29G15G21G02
 -18922988.81646 -14715293.61144  23570626.2194                   23570625.4774
  -5068858.07047  -3930798.51145  22488945.5234                   22488947.4144
  40816665.79746  31822044.72643  24165406.9694                   24165406.6604
  12027050.77047   9388939.01645  21790377.5164                   21790376.0664
 -21432460.16848 -16681391.73746  21689259.8444   21689257.9924
    -15665.98048      4081.81146  20865556.5004   20865554.7584   22721145.13747
  17721957.01645                  22422222.2344                   22422220.9264
  33744153.99246  26307842.24444  24288191.6644                   24288191.0084
 -42907647.04347 -33391542.21844  22741885.8834                   22741882.6374
 11  8 15  3 40 30.0000000  0  9G12G25G18G26G05G29G15G21G02
 -18928320.32446 -14719448.04744  23569611.8524                   23569610.4264
  -5105131.96547  -3959063.90045  22482043.0944                   22482044.5044
  40633162.84446  31679055.34443  24130487.9304                   24130487.2974
  11868217.21947   9265172.67245  21760152.5864                   21760150.9304
 -21457988.07848 -16701283.62246  21684401.8524   21684400.4534
   -168235.87948   -114803.81946  20836523.4924   20836522.2154   22533391.35547
  17575655.49145                  22386493.9534                   22386492.6524
  33585934.55546  26184554.37243  24258083.3444                   24258081.9144
 -42955839.06247 -33429094.48445  22732714.5704                   22732711.3984
 11  8 15  3 41  0.0000000  0  9G12G25G18G26G05G29G15G21G02
 -18933590.07446 -14723554.36744  23568608.9454                   23568607.5474
  -5141058.81247  -3987058.85545  22475206.4064                   22475208.3714
  40449875.79346  31536234.35443  24095609.8364                   24095608.6254
  11709910.35547   9141816.71345  21730027.5554                   21730026.3794
 -21483264.40248 -16720979.46046  21679591.6724   21679590.4144
   -320420.82448   -233389.47347  20807563.7034   20807562.1644   22345891.23447
  17429551.59345                  22350813.7344                   22350812.2894
  33427701.71546  26061256.14843  24227973.1564                   24227970.3634
 -43003901.46947 -33466545.74644  22723568.6254                   22723565.5204
 11  8 15  3 41 30.0000000  0  9G12G25G18G26G05G29G15G21G02
 -18938798.73046 -14727613.05343  23567616.8364                   23567616.5314
  -5176638.91847  -4014783.63445  22468435.8134                   22468437.2384
  40266808.22746  31393584.31343  24060772.8914                   24060771.5514
  11552135.40247   9018875.24145  21700003.8674                   21700002.8014
 -21508289.36748 -16740479.43746  21674829.4844   21674828.3914
   -472216.70348   -351671.95546  20778677.7114   20778676.4104   22158650.29747
  17283649.61545                  22315182.6644                   22315181.4104
  33269457.82446  25937949.25243  24197860.2814                   24197857.8754
 -43051831.44147 -33503893.78845  22714447.9774                   22714444.5004
 11  8 15  3 42  0.0000000  0  9G12G25G18G26G05G29G15G21G02
 -18943951.96546 -14731628.64643  23566636.8594                   23566635.8164
  -5211878.13347  -4042242.75245  22461730.0474                   22461731.7194
  40083957.66846  31251103.51443  24025976.0784                   24025975.7664
  11394892.61347   8896348.42645  21670081.6024                   21670080.3794
 -21533068.12948 -16759787.57246  21670114.8754   21670113.0744
   -623623.80948   -469651.49546  20749866.2424   20749864.5944   21971668.89147
  17137949.83345                  22279601.4534                   22279599.9414
  33111199.71947  25814631.32544  24167744.5004                   24167742.0664
 -43099631.23047 -33541140.40944  22705352.2584                   22705348.4224
 11  8 15  3 42 30.0000000  0  9G12G25G18G26G05G29G15G21G02
 -18949051.28946 -14735602.14843  23565666.5164                   23565665.0314
  -5246778.05147  -4069437.49045  22455088.7194                   22455090.4024
  39901326.78146  31108793.74243  23991223.3284                   23991222.3634
  11238186.25848   8774239.61945  21640261.1724                   21640259.9534
 -21557601.65648 -16778904.60346  21665446.2734   21665444.3524
   -774638.38748   -587325.17247  20721128.8284   20721127.3594   21784951.38747
  16992455.72345                  22244070.3914                   22244069.1884
  32952928.15247  25691302.88243  24137626.1564                   24137624.3364
 -43147299.53947 -33578284.57745  22696281.6024                   22696277.4184
